     2              OBSERVATION DATA    GPS                 RINEX VERSION / TYPE
teqc 2000Feb29 Duncan Agnew 20031030 00:44:07UTC            PGM / RUN BY / DATE
                                                            COMMENT
L2: 1 -> 1; 150 -> 5; 250 -> 9                              COMMENT
L2: 1 -> 1; 150 -> 5; 250 -> 9                              COMMENT
L2: 1 -> 1; 150 -> 5; 250 -> 9                              COMMENT
L2: 1 -> 1; 150 -> 5; 250 -> 9                              COMMENT
L2: 1 -> 1; 150 -> 5; 250 -> 9                              COMMENT
Original Marker Name: PT65                                  COMMENT
Campaign Name: CSUSB 2002-2003                              COMMENT
4-Character Station Name: PT65                              COMMENT
6-Character Antenna Code: DMRCHT                            COMMENT
Vertical Measurement Point: BPA                             COMMENT
Vertical Offset to Rinex Ref. Point: 0.0000                 COMMENT
Radial Measurement Point: RRP                               COMMENT
Radial Offset to Rinex Ref. Point: 0.0000                   COMMENT
Antenna Height from Field Measurement: 1.5000 m             COMMENT
Additional Antenna Identification Info.:                    COMMENT
Turborogue and Ashtech Choke Ring                           COMMENT
Strong wind; at take-down alignment was off                 COMMENT
40deg W of N.                                               COMMENT
Original XYZ: 0.0000 0.0000 0.0000                          COMMENT
New XYZ position is based on association with SCEC monument COMMENT
E1F2D0D4+0011. Position of that monument is believed to be  COMMENT
valid to within 1 m horizontally; vertical accuracy         COMMENT
should be no worse than 3-times this value.                 COMMENT
                                                            COMMENT
Revised Rinex header created by UCSD GPS archive for        COMMENT
GSAC on 09-Nov-2004 (2004:314) 22:54:31 GMT                 COMMENT
For assistance contact dagnew@ucsd.edu                      COMMENT
or anderson@python.ucsd.edu                                 COMMENT
                                                            COMMENT
PT65                                                        MARKER NAME
JCD CAL STATE SAN BERNARDINO                                OBSERVER / AGENCY
2402 ASHTECH Z-XII3 CD00                                    REC # / TYPE / VERS
1401 DORNE-MARGOL. TYPE T                                   ANT # / TYPE
 -2396128.0000 -4688912.0000  3588573.0000                  APPROX POSITION XYZ
        1.5000        0.0000        0.0000                  ANTENNA: DELTA H/E/N
     1     1     0                                          WAVELENGTH FACT L1/2
     7    C1    L1    L2    P1    P2    S1    S2            # / TYPES OF OBSERV
     0                                                      INTERVAL
  2002     7    12    10    45    0.000000                  TIME OF FIRST OBS
  2002     7    12    18    35    0.000000                  TIME OF LAST OBS
                                                            END OF HEADER
 02  7 12 10 45  0.0000000  0  6G30G24G 4G 5G 7G 9
                    -87882.75749    -50938.18743
       214.000          74.000
                    -29350.30249    -16794.35647                  18278763.840
       248.000         204.000
                     50811.52349     27743.36447                  18592455.823
       246.000         197.000
                    -42968.43949    -15659.45345                  19597787.003
       239.000         158.000
                     38591.10049      4072.26643
       219.000          74.000
                     41032.03849     27929.39847                  19194470.605
       244.000         200.000
 02  7 12 10 45 30.0000000  0  6G30G24G 4G 5G 7G 9
                   -184260.73849   -126037.93643
       209.000          74.000
  18272802.208      -60654.69549    -41187.38948  18272802.072    18272807.031
       248.000         216.000
  18602518.741      103709.73049     68962.71647  18602518.285    18602522.309
       246.000         209.000
  19584016.774     -115311.52649    -72030.72247  19584016.458    19584020.456
       239.000         193.000
                    106622.39649     57083.49344                  21063342.752
       219.000         131.000
  19202318.475       82292.60849     60080.44447  19202318.362    19202322.779
       244.000         208.000
 02  7 12 10 46  0.0000000  0  6G30G24G 4G 5G 7G 9
                   -280553.50149   -201071.09444                  24482570.089
       214.000         116.000
  20665299.114      -91359.23549    -65112.99248  20665298.871    20665303.820
       249.000         219.000
  21011026.600      157145.34249    110600.83647  21011026.579    21011030.635
       245.000         211.000
  21968643.792     -187374.12649   -128183.41847  21968642.955    21968647.269
       239.000         197.000
  23474639.879      174718.99549    110145.74845  23474636.787    23474641.983
       222.000         160.000
  21608618.575      124122.00649     92674.73847  21608617.875    21608622.052
       244.000         209.000
 02  7 12 10 46 30.0000000  0  6G30G24G 4G 5G 7G 9
  24464255.137     -376794.98749   -276064.45745  24464251.751    24464256.594
       212.000         144.000
  20659570.693     -121464.12349    -88571.33848  20659569.957    20659574.950
       249.000         219.000
  21021306.090      211160.62349    152690.64647  21021305.683    21021309.175
       246.000         211.000
  21954981.110     -259176.68249   -184133.46247  21954979.764    21954984.121
       239.000         198.000
  23487613.775      242933.08049    163299.53846  23487616.811    23487622.650
       218.000         163.000
  21616693.637      166557.05249    125740.97247  21616693.025    21616697.337
       244.000         210.000
 02  7 12 10 47  0.0000000  0  6G30G24G 4G 5G 7G 9
  24328130.188    -1092126.61049   -833465.67545  24328129.366    24328133.108
       215.000         148.000
  20536133.847     -770128.61749   -594024.17848  20536133.291    20536138.158
       249.000         219.000
  20913868.347     -353427.44849   -287248.12847  20913868.190    20913871.835
       246.000         211.000
  21823547.147     -949866.03249   -722332.95847  21823545.834    21823550.135
       239.000         199.000
  23382790.855     -307920.35749   -265936.92046  23382793.599    23382799.374
       218.000         165.000
  21507057.908     -409582.05449   -323198.62247  21507057.544    21507061.420
       244.000         209.000
 02  7 12 10 47 30.0000000  0  6G30G24G 4G 5G 7G 9
  24309296.177    -1191100.59749   -910588.25945  24309295.805    24309299.871
       217.000         153.000
  20530086.470     -801907.54549   -618786.96648  20530085.997    20530090.815
       249.000         219.000
  20923810.823     -301178.96849   -246535.03647  20923810.507    20923814.563
       245.000         211.000
  21809440.512    -1023994.98149   -780095.79047  21809439.219    21809443.736
       239.000         199.000
  23395260.676     -242399.62949   -214881.84446  23395262.147    23395266.030
       222.000         165.000
  21514807.994     -368854.84149   -291463.16047  21514807.779    21514812.111
       244.000         209.000
 02  7 12 10 48  0.0000000  0  6G30G24G 4G 5G 7G 9
  24290463.007    -1290067.77249   -987705.52345  24290462.603    24290466.684
       218.000         153.000
  20524140.942     -833151.45849   -643132.85448  20524140.633    20524145.444
       249.000         219.000
  20933845.478     -248446.23049   -205444.59847  20933845.460    20933849.230
       245.000         211.000
  21795374.234    -1097913.05149   -837694.31147  21795373.587    21795377.246
       240.000         199.000
  23407734.071     -176854.64849   -163807.82946  23407734.413    23407739.279
       220.000         165.000
  21522656.103     -327613.11349   -259326.77747  21522655.805    21522660.103
       244.000         209.000
 02  7 12 10 48 30.0000000  0  6G30G24G 4G 5G 7G 9
  24271632.447    -1389022.52049  -1064813.11745  24271632.069    24271636.527
       217.000         155.000
  20518298.056     -863856.19049   -667058.60048  20518297.678    20518302.383
       249.000         220.000
  20943972.677     -195227.86549   -163975.75447  20943972.809    20943975.900
       245.000         211.000
  21781349.302    -1171614.68749   -895124.17547  21781348.546    21781352.513
       240.000         199.000
  23420212.551     -111281.74949   -112712.07846  23420212.824    23420217.649
       221.000         164.000
  21530602.382     -285855.13949   -226788.11747  21530602.194    21530606.309
       244.000         209.000
 02  7 12 10 49  0.0000000  0  6G30G24G 4G 5G 7G 9
  24252804.243    -1487964.78149  -1141910.96545  24252803.723    24252808.548
       217.000         156.000
  20512557.595     -894022.71049   -690564.96848  20512557.102    20512561.976
       249.000         219.000
  20954191.499     -141527.60749   -122131.41547  20954191.565    20954195.329
       245.000         211.000
  21767365.574    -1245099.12949   -952384.79147  21767364.517    21767368.909
       239.000         199.000
  23432696.029      -45682.47149    -61595.75946  23432695.912    23432701.034
       222.000         166.000
  21538646.342     -243584.20749   -193849.74747  21538646.196    21538650.286
       244.000         209.000
 02  7 12 10 49 30.0000000  0  6G30G24G 4G 5G 7G 9
  24233978.797    -1586893.43749  -1218998.23145  24233979.065    24233982.226
       221.000         158.000
  20506919.418     -923651.49849   -713652.31248  20506918.905    20506923.949
       249.000         219.000
  20964501.454      -87348.25749    -79913.71247  20964501.428    20964505.198
       245.000         210.000
  21753423.529    -1318364.84849  -1009474.97247  21753422.549    21753427.272
       240.000         200.000
  23445184.302       19942.43749    -10459.48146  23445184.097    23445189.591
       222.000         166.000
  21546787.495     -200802.61149   -160513.46647  21546787.120    21546791.561
       244.000         209.000
 02  7 12 10 50  0.0000000  0  6G30G24G 4G 5G 7G 9
  24215156.152    -1685806.54049  -1296073.39245  24215156.506    24215160.187
       221.000         158.000
  20501383.733     -952741.61949   -736319.93048  20501383.508    20501388.132
       249.000         219.000
  20974902.285      -32691.64149    -37324.13847  20974902.247    20974905.809
       245.000         211.000
  21739523.524    -1391409.42649  -1066392.84347  21739522.881    21739527.420
       240.000         200.000
  23457677.433       85593.34149     40697.06546  23457677.228    23457683.154
       223.000         164.000
  21555025.488     -157512.00749   -126780.54347  21555025.296    21555029.288
       245.000         209.000
 02  7 12 10 50 30.0000000  0  6G30G24G 4G 5G 7G 9
  24196336.962    -1784702.01849  -1373134.79945  24196337.514    24196340.322
       222.000         159.000
  20495950.696     -981292.47349   -758567.32748  20495950.129    20495955.162
       249.000         219.000
  20985393.564       22440.27849      5635.80747  20985393.454    20985397.507
       245.000         210.000
  21725666.159    -1464230.43949  -1123136.49747  21725665.755    21725669.706
       240.000         200.000
  23470175.563      151270.43049     91874.01146  23470174.526    23470180.564
       223.000         165.000
  21563360.009     -113713.87349    -92652.13947  21563359.737    21563363.857
       243.000         209.000
 02  7 12 10 51  0.0000000  0  6G30G24G 4G 5G 7G 9
  24177521.466    -1883578.31749  -1450181.27445  24177520.951    24177525.431
       220.000         158.000
  20490620.349    -1009303.66849   -780394.21648  20490620.059    20490624.797
       249.000         220.000
  20995974.829       78045.23749     48964.33647  20995975.079    20995978.294
       245.000         210.000
  21711851.780    -1536825.93449  -1179704.42947  21711851.198    21711855.468
       241.000         200.000
  23482678.589      216973.58549    143071.28646  23482678.840    23482682.682
       221.000         164.000
  21571790.796      -69410.07249    -58129.70047  21571790.500    21571794.578
       243.000         208.000
 02  7 12 10 51 30.0000000  0  6G30G24G 4G 5G 7G 9
  24158709.954    -1982433.61049  -1527211.37145  24158710.323    24158713.735
       218.000         158.000
  20485392.853    -1036774.40249   -801799.96648  20485392.368    20485397.226
       249.000         219.000
  21006645.706      134120.91549     92659.66447  21006645.712    21006649.448
       245.000         210.000
  21698080.753    -1609193.40349  -1236094.68347  21698080.382    21698084.478
       241.000         201.000
  23495186.508      282703.30749    194289.24246  23495185.761    23495189.696
       221.000         164.000
  21580317.439      -24602.42549    -23214.67747  21580317.287    21580321.350
       244.000         208.000
 02  7 12 10 52  0.0000000  0  6G30G24G 4G 5G 7G 9
  24139902.462    -2081266.69349  -1604224.13545  24139901.404    24139906.505
       214.000         156.000
  20480268.034    -1063705.49549   -822785.21848  20480267.716    20480272.419
       249.000         219.000
  21017405.626      190664.53549    136719.62447  21017405.413    21017409.487
       244.000         210.000
  21684353.410    -1681331.53149  -1292306.22347  21684352.885    21684357.031
       240.000         201.000
  23507699.466      348458.53549    245527.08146  23507699.578    23507703.478
       222.000         164.000
  21588939.468       20706.45449     12090.93347  21588938.869    21588943.295
       244.000         209.000
 02  7 12 10 52 30.0000000  0  6G30G24G 4G 5G 7G 9
  24121099.294    -2180075.63449  -1681218.11045  24121097.582    24121103.559
       215.000         155.000
  20475246.090    -1090096.17349   -843349.37048  20475245.742    20475250.348
       249.000         219.000
  21028254.259      247673.99549    181142.58047  21028253.943    21028257.665
       245.000         210.000
  21670670.064    -1753237.73149  -1348337.03847  21670669.698    21670673.613
       241.000         201.000
  23520217.344      414239.88049    296785.27446  23520216.423    23520222.071
       219.000         163.000
  21597656.618       66515.14849     47785.97647  21597656.234    21597660.702
       243.000         208.000
 02  7 12 10 53  0.0000000  0  6G30G24G 4G 5G 7G 9
  24102301.393    -2278858.90849  -1758192.08645  24102301.974    24102305.618
       212.000         153.000
  20470327.018    -1115946.02549   -863492.10548  20470326.538    20470331.510
       249.000         219.000
  21039190.986      305147.02449    225926.75047  21039191.061    21039194.714
       245.000         210.000
  21657031.405    -1824910.25449  -1404185.76747  21657030.790    21657035.091
       242.000         202.000
  23532739.881      480046.91249    348063.47645  23532739.294    23532743.677
       218.000         162.000
  21606468.480      112821.36749     83868.70647  21606468.243    21606472.346
       244.000         208.000
 02  7 12 10 53 30.0000000  0  6G30G24G 4G 5G 7G 9
  24083508.812    -2377615.24149  -1835145.04845  24083507.804    24083513.312
       211.000         151.000
  20465510.767    -1141255.75149   -883213.94748  20465510.132    20465515.078
       248.000         219.000
  21050215.442      363080.50849    271069.72247  21050215.539    21050218.947
       246.000         210.000
  21643437.361    -1896347.44049  -1459851.12247  21643436.820    21643440.983
       241.000         202.000
  23545267.340      545879.23749    399361.38946  23545266.391    23545272.051
       219.000         163.000
  21615374.546      159622.67649    120337.21047  21615374.118    21615378.402
       243.000         208.000
 02  7 12 10 54  0.0000000  0  6G30G24G 4G 5G 7G 9
  24064721.588    -2476343.30849  -1912075.95645  24064721.670    24064726.153
       212.000         151.000
  20460797.267    -1166025.16149   -902514.77148  20460796.915    20460801.757
       249.000         219.000
  21061326.978      421471.97249    316569.55847  21061326.597    21061330.498
       245.000         209.000
  21629888.518    -1967547.45749  -1515331.66047  21629888.090    21629892.108
       242.000         202.000
  23557799.518      611736.46549    450678.69945  23557798.226    23557803.352
       217.000         162.000
  21624374.395      206916.95849    157189.87547  21624373.947    21624378.415
       243.000         208.000
 02  7 12 10 54 30.0000000  0  6G30G24G 4G 5G 7G 9
  24045940.094    -2575040.75849  -1988983.04745  24045940.122    24045944.437
       213.000         151.000
  20456186.801    -1190253.62549   -921394.07448  20456186.347    20456191.181
       249.000         220.000
  21072525.282      480319.56249    362424.83147  21072525.134    21072529.022
       245.000         209.000
  21616385.311    -2038507.58349  -1570625.26447  21616384.179    21616388.706
       241.000         202.000
  23570336.385      677618.94249    502015.69645  23570336.176    23570339.964
       219.000         162.000
  21633467.683      254702.32749    194425.20147  21633467.312    21633471.576
       243.000         208.000
 02  7 12 10 55  0.0000000  0  6G30G24G 4G 5G 7G 9
  24027164.540    -2673706.43349  -2065865.36745  24027164.750    24027167.930
       216.000         150.000
  20451679.186    -1213941.25349   -939851.95848  20451678.787    20451683.503
       249.000         220.000
  21083809.954      539620.49249    408633.34247  21083809.862    21083813.318
       245.000         209.000
  21602927.873    -2109226.26449  -1625730.74247  21602927.125    21602931.157
       241.000         202.000
  23582878.239      743526.58549    553372.30645  23582877.304    23582883.287
       219.000         162.000
  21642653.962      302976.55749    232041.47447  21642653.673    21642657.822
       244.000         208.000
 02  7 12 10 55 30.0000000  0  6G30G24G 4G 5G 7G 9
  24008396.025    -2772338.35449  -2142721.41645  24008396.213    24008399.194
       220.000         151.000
  20447274.531    -1237088.07649   -957888.43148  20447274.057    20447279.018
       248.000         219.000
  21095180.253      599372.37349    455193.25847  21095180.001    21095184.480
       244.000         209.000
  21589517.038    -2179701.26549  -1680646.32947  21589516.659    21589520.447
       242.000         203.000
  23595424.833      809459.28349    604748.41845  23595424.368    23595429.253
       217.000         162.000
  21651932.900      351737.59449    270037.06947  21651932.519    21651936.507
       242.000         207.000
 02  7 12 10 56  0.0000000  0  6G30G24G 4G 5G 7G 9
  23989633.624    -2870935.01149  -2219550.01045  23989631.694    23989636.367
       215.000         150.000
  20442972.729    -1259694.17949   -975503.56548  20442972.365    20442977.041
       249.000         219.000
  21106635.955      659572.59249    502102.52747  21106635.850    21106639.651
       245.000         209.000
  21576152.868    -2249930.48949  -1735370.40047  21576151.761    21576156.383
       241.000         203.000
  23607976.073      875416.81449    656143.91345  23607976.018    23607980.039
       217.000         160.000
  21661304.014      400983.11949    308410.16947  21661303.642    21661308.075
       243.000         207.000
 02  7 12 10 56 30.0000000  0  6G30G24G 4G 5G 7G 9
  23970877.960    -2969494.30249  -2296349.51445  23970878.806    23970881.390
       220.000         152.000
  20438773.954    -1281758.92749   -992696.86448  20438773.502    20438778.377
       249.000         219.000
  21118176.665      720219.01449    549359.47747  21118176.361    21118180.346
       244.000         209.000
  21562835.880    -2319911.70749  -1789901.21947  21562835.580    21562839.498
       242.000         203.000
  23620532.220      941399.70049    707559.13245  23620530.757    23620536.738
       216.000         159.000
  21670766.996      450711.19949    347159.28847  21670766.590    21670771.047
       243.000         207.000
 02  7 12 10 57  0.0000000  0  6G30G24G 4G 5G 7G 9
  23952130.276    -3068014.49649  -2373118.52945  23952130.475    23952133.534
       217.000         152.000
  20434678.197    -1303282.38749  -1009468.37948  20434677.797    20434682.689
       249.000         220.000
  21129801.775      781309.42849    596962.39447  21129801.893    21129805.177
       244.000         208.000
  21549566.672    -2389642.68049  -1844237.03847  21549565.686    21549569.759
       242.000         203.000
  23633093.209     1007407.80949    758994.00445  23633093.080    23633098.249
       217.000         159.000
  21680321.488      500920.04749    386283.03947  21680321.246    21680325.590
       242.000         207.000
 02  7 12 10 57 30.0000000  0  6G30G24G 4G 5G 7G 9
  23933390.469    -3166495.25749  -2449856.80545  23933390.838    23933393.769
       220.000         155.000
  20430685.191    -1324265.67849  -1025818.98548  20430684.681    20430689.492
       248.000         219.000
  21141510.661      842839.94049    644908.24547  21141510.557    21141514.695
       244.000         208.000
  21536344.974    -2459122.64949  -1898377.28347  21536344.269    21536348.538
       241.000         203.000
  23645658.785     1073439.64349    810447.38245  23645657.742    23645662.868
       217.000         160.000
  21689966.681      551605.95949    425778.54347  21689966.259    21689970.585
       243.000         206.000
 02  7 12 10 58  0.0000000  0  6G30G24G 4G 5G 7G 9
  23914658.474    -3264933.18749  -2526561.67445  23914658.217    23914661.854
       220.000         157.000
  20426795.216    -1344707.51349  -1041747.67248  20426794.754    20426799.633
       248.000         219.000
  21153303.026      904809.37449    693196.11547  21153302.953    21153306.665
       243.000         208.000
  21523171.834    -2528348.07849  -1952319.18547  21523171.418    21523175.343
       243.000         204.000
  23658228.981     1139496.72149    861920.42945  23658228.549    23658232.830
       219.000         159.000
  21699702.569      602768.28749    465645.27147  21699702.169    21699706.531
       243.000         206.000
 02  7 12 10 58 30.0000000  0  6G30G24G 4G 5G 7G 9
  23895934.837    -3363327.62149  -2603232.68145  23895935.518    23895938.025
       220.000         157.000
  20423008.129    -1364608.72249  -1057255.08748  20423007.626    20423012.350
       249.000         219.000
  21165178.317      967214.35549    741823.37347  21165178.212    21165181.836
       246.000         208.000
  21510047.379    -2597317.91949  -2006061.93247  21510046.834    21510050.678
       243.000         204.000
  23670803.889     1205578.08849    913412.37045  23670802.325    23670807.549
       216.000         158.000
  21709528.527      654403.76349    505880.68047  21709528.226    21709532.527
       243.000         207.000
 02  7 12 10 59  0.0000000  0  6G30G24G 4G 5G 7G 9
  23877219.838    -3461674.94849  -2679866.98845  23877219.235    23877223.540
       217.000         158.000
  20419324.186    -1383967.98549  -1072340.22148  20419323.776    20419328.420
       249.000         219.000
  21177136.385     1030054.12949    790789.42647  21177136.454    21177140.034
       245.000         208.000
  21496972.336    -2666028.30149  -2059602.51247  21496971.476    21496975.632
       242.000         204.000
  23683383.516     1271685.33649    964924.50645  23683383.085    23683387.958
       215.000         159.000
  21719444.516      706512.19149    546484.61047  21719444.012    21719448.468
       243.000         206.000
 02  7 12 10 59 30.0000000  0  6G30G24G 4G 5G 7G 9
  23858513.780    -3559974.53649  -2756464.09745  23858514.014    23858516.539
       222.000         161.000
  20415743.242    -1402786.12449  -1087003.69548  20415742.905    20415747.574
       249.000         219.000
  21189176.553     1093325.32049    840091.65447  21189176.478    21189179.960
       245.000         208.000
  21483946.651    -2734478.20949  -2112940.12147  21483945.704    21483950.622
       242.000         204.000
  23695968.002     1337817.64749   1016456.18645  23695967.263    23695971.398
       218.000         157.000
  21729449.792      759089.99049    587454.30847  21729449.285    21729453.627
       243.000         206.000
 02  7 12 11  0  0.0000000  0  6G30G24G 4G 5G 7G 9
  23839817.288    -3658225.62749  -2833023.37245  23839817.788    23839821.085
       220.000         161.000
  20412265.055    -1421064.22449  -1101246.35748  20412264.473    20412269.413
       248.000         220.000
  21201297.995     1157024.15449    889727.10647  21201298.107    21201301.785
       245.000         207.000
  21470970.801    -2802666.48449  -2166073.86547  21470970.327    21470974.703
       244.000         205.000
  23708557.342     1403973.93349   1068006.52545  23708557.287    23708562.069
       220.000         158.000
  21739543.674      812133.77349    628787.09847  21739543.058    21739547.699
       242.000         205.000
 02  7 12 11  0 30.0000000  0  6G30G24G 4G 5G 7G 9
  23821130.615    -3756425.06449  -2909542.42945  23821130.764    23821133.168
       219.000         160.000
  20408889.749    -1438801.47949  -1115067.57948  20408889.200    20408894.145
       248.000         219.000
  21213500.691     1221149.34949    939694.78047  21213500.649    21213504.315
       244.000         207.000
  21458045.573    -2870589.62749  -2219000.98647  21458044.565    21458048.966
       243.000         205.000
  23721151.381     1470155.40249   1119576.50945  23721151.688    23721154.534
       222.000         159.000
  21749726.122      865642.62149    670482.27347  21749725.928    21749730.171
       243.000         206.000
 02  7 12 11  1  0.0000000  0  6G30G24G 4G 5G 7G 9
  23802453.973    -3854571.99149  -2986020.56945  23802454.234    23802456.921
       219.000         159.000
  20405617.201    -1455998.83049  -1128468.10048  20405616.875    20405621.366
       248.000         219.000
  21225783.849     1285697.67949    989992.17147  21225783.656    21225787.214
       245.000         207.000
  21445170.862    -2938246.50549  -2271720.61947  21445169.978    21445174.252
       243.000         205.000
  23733750.132     1536361.10749   1171165.38545  23733749.807    23733754.754
       221.000         160.000
  21759996.526      919613.40349    712537.41247  21759996.008    21760000.390
       242.000         205.000
 02  7 12 11  1 30.0000000  0  6G30G24G 4G 5G 7G 9
  23783787.578    -3952663.91049  -3062455.79945  23783787.477    23783791.093
       219.000         159.000
  20402447.506    -1472655.57449  -1141447.36448  20402446.990    20402451.801
       248.000         219.000
  21238147.116     1350667.33549   1040617.86447  21238147.127    21238150.870
       244.000         206.000
  21432347.390    -3005634.33149  -2324230.60947  21432346.715    21432351.006
       244.000         206.000
  23746353.349     1602591.89249   1222773.78445  23746353.831    23746357.307
       220.000         159.000
  21770354.409      974044.51149    754951.22547  21770354.048    21770358.211
       243.000         205.000
 02  7 12 11  2  0.0000000  0  6G30G24G 4G 5G 7G 9
  23765132.361    -4050698.87749  -3138846.67345  23765131.782    23765136.595
       218.000         159.000
  20399380.672    -1488771.88049  -1154005.51448  20399380.143    20399384.942
       248.000         219.000
  21250590.142     1416055.74949   1091569.86847  21250589.683    21250593.578
       243.000         206.000
  21419575.569    -3072750.92349  -2376529.24447  21419574.477    21419578.935
       243.000         206.000
  23758961.563     1668847.80249   1274401.77245  23758960.794    23758965.361
       219.000         160.000
  21780799.584     1028933.84349    797722.12547  21780798.907    21780803.430
       242.000         205.000
 02  7 12 11  2 30.0000000  0  6G30G24G 4G 5G 7G 9
  23746487.800    -4148675.58949  -3215192.14745  23746487.449    23746492.425
       216.000         159.000
  20396416.544    -1504348.35549  -1166143.01548  20396415.915    20396421.000
       248.000         219.000
  21263112.255     1481859.77349   1142845.71447  21263112.284    21263116.025
       244.000         206.000
  21406855.595    -3139594.63049  -2428615.24747  21406854.823    21406858.900
       244.000         206.000
  23771574.251     1735128.32149   1326048.91445  23771573.332    23771578.317
       216.000         159.000
  21791331.285     1084278.39349    840847.73247  21791330.676    21791335.181
       242.000         205.000
 02  7 12 11  3  0.0000000  0  6G30G24G 4G 5G 7G 9
  23727854.657    -4246591.28149  -3291490.09045  23727855.138    23727858.510
       218.000         160.000
  20393555.224    -1519384.52449  -1177859.48948  20393554.756    20393559.575
       248.000         219.000
  21275713.136     1548078.03249   1194444.34347  21275713.250    21275716.742
       244.000         205.000
  21394188.175    -3206162.54849  -2480486.34747  21394187.392    21394191.505
       244.000         206.000
  23784191.932     1801434.37849   1377715.99645  23784191.207    23784195.339
       214.000         157.000
  21801949.333     1140076.61749    884326.82547  21801948.845    21801953.342
       242.000         204.000
 02  7 12 11  3 30.0000000  0  7G10G30G24G 4G 5G 7G 9
  24596021.869    -2185329.49749  -1682063.63345  24596020.639    24596025.583
       200.000         135.000
  23709233.204    -4344446.80349  -3367741.14545  23709234.249    23709237.087
       222.000         160.000
  20390796.280    -1533882.93749  -1189156.94648  20390795.886    20390800.506
       248.000         219.000
  21288391.933     1614705.03249   1246361.46847  21288391.593    21288395.672
       243.000         205.000
  21381573.157    -3272455.15949  -2532142.91647  21381572.425    21381576.591
       245.000         206.000
  23796813.845     1867763.38049   1429400.93545  23796813.279    23796817.723
       215.000         156.000
  21812652.796     1196323.78749    928155.75747  21812652.455    21812656.713
       242.000         204.000
 02  7 12 11  4  0.0000000  0  7G10G30G24G 4G 5G 7G 9
  24576951.248    -2285545.93949  -1760154.30145  24576949.342    24576957.180
       201.000         137.000
  23690623.949    -4442240.93049  -3443944.34945  23690624.482    23690628.557
       221.000         162.000
  20388139.418    -1547844.95349  -1200036.43048  20388138.945    20388143.734
       248.000         219.000
  21301147.892     1681737.73149   1298594.72947  21301148.002    21301151.865
       244.000         206.000
  21369010.807    -3338471.08149  -2583583.89147  21369009.892    21369014.259
       244.000         207.000
  23809439.998     1934114.58749   1481103.15345  23809439.428    23809443.870
       216.000         154.000
  21823441.116     1253016.49149    972331.86747  21823440.816    21823444.865
       242.000         204.000
 02  7 12 11  4 30.0000000  0  7G10G30G24G 4G 5G 7G 9
  24557865.172    -2385843.78149  -1838308.40345  24557864.284    24557871.208
       210.000         141.000
  23672027.638    -4539967.34649  -3520094.77145  23672027.546    23672031.447
       222.000         161.000
  20385585.380    -1561266.28149  -1210494.59748  20385584.923    20385589.719
       247.000         219.000
  21313981.357     1749177.80949   1351145.42647  21313981.308    21313985.190
       243.000         206.000
  21356502.320    -3404203.53749  -2634803.97447  21356501.592    21356505.963
       245.000         207.000
  23822071.366     2000492.56349   1532826.23745  23822071.063    23822075.609
       215.000         155.000
  21834314.643     1310157.01749   1016856.91747  21834314.409    21834318.383
       241.000         204.000
 02  7 12 11  5  0.0000000  0  7G10G30G24G 4G 5G 7G 9
  24538764.184    -2486221.02049  -1916524.36645  24538762.828    24538768.717
       206.000         143.000
  23653444.137    -4637624.60649  -3596191.31945  23653445.031    23653447.807
       220.000         162.000
  20383134.117    -1574147.91049  -1220532.21248  20383133.640    20383138.461
       248.000         219.000
  21326891.675     1817022.27049   1404011.22647  21326891.390    21326894.893
       243.000         204.000
  21344048.173    -3469650.93249  -2685801.93847  21344047.254    21344051.468
       245.000         207.000
  23834707.710     2066896.84249   1584569.81845  23834706.146    23834712.825
       217.000         156.000
  21845272.791     1367742.30249   1061728.50847  21845272.453    21845276.632
       242.000         203.000
 02  7 12 11  5 30.0000000  0  7G10G30G24G 4G 5G 7G 9
  24519648.238    -2586675.46049  -1994800.47245  24519647.491    24519653.614
       208.000         144.000
  23634873.789    -4735211.82349  -3672233.28245  23634872.798    23634877.667
       219.000         161.000
  20380785.339    -1586490.72049  -1230149.97548  20380784.976    20380789.771
       248.000         219.000
  21339878.408     1885267.85749   1457189.59047  21339878.460    21339882.107
       244.000         205.000
  21331648.408    -3534812.02749  -2736576.81047  21331647.718    21331651.599
       245.000         207.000
  23847348.787     2133326.71949   1636333.36245  23847348.124    23847354.275
       214.000         156.000
  21856315.045     1425769.26449   1106944.29347  21856314.738    21856318.996
       241.000         203.000
 02  7 12 11  6  0.0000000  0  7G10G30G24G 4G 5G 7G 9
  24500518.321    -2687204.12349  -2073134.44745  24500518.484    24500523.539
       213.000         146.000
  23616317.263    -4832726.55349  -3748218.77145  23616317.983    23616321.382
       221.000         162.000
  20378539.081    -1598295.00249  -1239348.10848  20378538.511    20378543.287
       247.000         219.000
  21352941.042     1953912.05649   1510678.56047  21352941.047    21352944.644
       244.000         205.000
  21319303.613    -3599684.36649  -2787126.68047  21319302.654    21319307.156
       245.000         207.000
  23859994.985     2199782.41949   1688117.02545  23859994.270    23859999.748
       217.000         156.000
  21867440.845     1484235.59449   1152502.44047  21867440.486    21867444.507
       243.000         203.000
 02  7 12 11  6 30.0000000  0  7G10G30G24G 4G 5G 7G 9
  24481374.748    -2787804.25949  -2151524.10045  24481372.538    24481380.475
       206.000         146.000
  23597774.957    -4930167.28149  -3824146.59246  23597774.441    23597777.657
       219.000         163.000
  20376395.136    -1609561.53949  -1248127.21948  20376394.576    20376399.385
       248.000         219.000
  21366078.955     2022952.17749   1564476.04347  21366078.372    21366082.910
       243.000         205.000
  21307014.011    -3664266.38549  -2837450.33047  21307013.382    21307017.128
       246.000         208.000
  23872646.091     2266263.75549   1739920.65645  23872645.062    23872650.016
       213.000         154.000
  21878649.811     1543138.63249   1198400.89447  21878649.216    21878653.458
       241.000         202.000
 02  7 12 11  7  0.0000000  0  7G10G30G24G 4G 5G 7G 9
  24462217.886    -2888473.63949  -2229967.70145  24462217.000    24462222.918
       210.000         146.000
  23579246.660    -5027532.82549  -3900015.83346  23579246.607    23579250.978
       221.000         163.000
  20374353.363    -1620290.94049  -1256487.78048  20374352.929    20374357.609
       248.000         219.000
  21379291.481     2092384.76949   1618579.35647  21379291.245    21379294.834
       243.000         204.000
  21294780.147    -3728556.33049  -2887546.38747  21294779.001    21294783.125
       245.000         208.000
  23885301.706     2332770.22749   1791743.86045  23885301.250    23885305.877
       216.000         154.000
  21889941.171     1602475.16249   1244637.10847  21889940.869    21889945.067
       241.000         202.000
 02  7 12 11  7 30.0000000  0  7G10G30G24G 4G 5G 7G 9
  24443048.584    -2989209.41949  -2308463.07345  24443048.030    24443053.725
       218.000         148.000
  23560733.434    -5124821.08049  -3975824.84646  23560732.264    23560737.134
       223.000         164.000
  20372413.796    -1630483.63749  -1264430.14048  20372413.302    20372418.022
       248.000         219.000
  21392578.371     2162207.50949   1672986.66547  21392578.316    21392582.248
       243.000         204.000
  21282602.044    -3792552.01849  -2937413.16347  21282600.922    21282605.374
       244.000         207.000
  23897962.221     2399301.83449   1843586.66245  23897962.205    23897965.771
       214.000         152.000
  21901314.611     1662242.93449   1291209.35747  21901314.186    21901318.469
       242.000         202.000
 02  7 12 11  8  0.0000000  0  7G10G30G24G 4G 5G 7G 9
  24423867.301    -3090008.74849  -2387007.97645  24423865.899    24423872.314
       216.000         148.000
  23542235.567    -5222029.94649  -4051571.99546  23542235.160    23542237.566
       223.000         164.000
  20370576.226    -1640140.03349  -1271954.59048  20370575.784    20370580.509
       249.000         219.000
  21405939.001     2232417.98049   1727696.11447  21405939.017    21405942.523
       245.000         204.000
  21270480.566    -3856251.04949  -2987048.76747  21270480.163    21270484.184
       247.000         208.000
  23910627.631     2465858.91149   1895449.33545  23910627.867    23910631.289
       219.000         152.000
  21912769.609     1722439.73349   1338115.93847  21912769.256    21912773.693
       243.000         202.000
 02  7 12 11  8 30.0000000  0  7G10G30G24G 4G 5G 7G 9
  24404674.190    -3190868.42349  -2465599.85245  24404673.096    24404678.861
       216.000         146.000
  23523752.631    -5319157.69549  -4127255.93346  23523752.145    23523755.072
       219.000         163.000
  20368840.612    -1649260.67149  -1279061.57848  20368840.195    20368844.818
       248.000         219.000
  21419372.869     2303013.13249   1782705.31047  21419372.807    21419376.050
       243.000         204.000
  21258415.931    -3919651.59649  -3036451.79147  21258414.716    21258419.065
       244.000         209.000
  23923297.942     2532441.35149   1947331.74545  23923296.347    23923302.393
       215.000         152.000
  21924305.722     1783062.66849   1385354.56247  21924305.569    21924309.809
       240.000         202.000
 02  7 12 11  9  0.0000000  0  7G10G30G24G 4G 5G 7G 9
  24385470.710    -3291784.09149  -2544235.40745  24385469.920    24385476.290
       217.000         144.000
  23505285.653    -5416200.77749  -4202873.89745  23505285.170    23505289.386
       221.000         162.000
  20367207.171    -1657844.66649  -1285750.40648  20367206.686    20367211.488
       248.000         219.000
  21432879.704     2373992.18749   1838013.65047  21432879.956    21432883.093
       244.000         204.000
  21246408.573    -3982750.11749  -3085619.47247  21246407.818    21246411.750
       246.000         209.000
  23935973.036     2599050.60749   1999235.06645  23935971.782    23935977.142
       213.000         152.000
  21935922.849     1844110.81549   1432924.52647  21935922.707    21935927.216
       241.000         202.000
 02  7 12 11  9 30.0000000  0  7G10G30G24G 4G 5G 7G 9
  24366256.353    -3392755.62949  -2622914.52145  24366254.783    24366260.277
       218.000         140.000
  23486834.857    -5513160.03649  -4278426.58446  23486835.402    23486839.153
       223.000         164.000
  20365675.138    -1665895.49249  -1292023.77048  20365674.657    20365679.565
       248.000         219.000
  21446458.585     2445349.46549   1893616.71147  21446458.396    21446462.620
       242.000         204.000
  21234458.782    -4045547.11449  -3134552.20247  21234457.851    21234462.395
       246.000         210.000
  23948653.097     2665684.25149   2051157.35345  23948652.793    23948656.679
       216.000         153.000
  21947619.887     1905578.88349   1480821.69647  21947619.739    21947623.882
       242.000         201.000
 02  7 12 11 10  0.0000000  0  7G10G30G24G 4G 5G 7G 9
  24347032.094    -3493778.72849  -2701633.74345  24347031.881    24347036.222
       211.000         141.000
  23468400.915    -5610031.84849  -4353911.08946  23468400.714    23468405.257
       223.000         165.000
  20364244.822    -1673411.85949  -1297880.67048  20364244.407    20364249.272
       247.000         219.000
  21460109.260     2517084.14649   1949513.85347  21460109.056    21460112.759
       242.000         204.000
  21222566.968    -4108038.77949  -3183247.00547  21222566.163    21222570.269
       246.000         210.000
  23961337.999     2732343.82149   2103099.87945  23961337.521    23961343.464
       213.000         154.000
  21959396.672     1967466.00249   1529045.39547  21959396.396    21959400.658
       241.000         201.000
 02  7 12 11 10 30.0000000  0  7G10G30G24G 4G 5G 7G 9
  24327798.581    -3594851.16849  -2780391.46645  24327798.695    24327802.720
       218.000         142.000
  23449983.523    -5706815.00249  -4429326.54446  23449983.594    23449987.394
       221.000         166.000
  20362915.909    -1680395.38749  -1303322.37448  20362915.367    20362920.016
       248.000         219.000
  21473831.027     2589192.75149   2005702.36247  21473831.126    21473834.641
       243.000         203.000
  21210733.562    -4170223.95949  -3231702.99147  21210732.635    21210736.863
       246.000         210.000
  23974027.802     2799028.64049   2155062.02145  23974026.567    23974031.560
       213.000         154.000
  21971252.528     2029768.63149   1577592.87047  21971252.229    21971256.449
       241.000         201.000
 02  7 12 11 11  0.0000000  0  7G10G30G24G 4G 5G 7G 9
  24308556.468    -3695969.46649  -2859184.88445  24308553.339    24308562.666
       210.000         141.000
  23431583.402    -5803507.34149  -4504671.20946  23431583.442    23431586.948
       225.000         167.000
  20361688.507    -1686845.51249  -1308348.45048  20361688.167    20361692.791
       249.000         219.000
  21487623.599     2661672.94749   2062180.40547  21487623.288    21487627.040
       241.000         202.000
  21198958.912    -4232099.97049  -3279918.07147  21198958.436    21198962.215
       247.000         210.000
  23986722.215     2865739.17549   2207044.24845  23986721.668    23986727.743
       212.000         154.000
  21983187.045     2092484.67549   1626462.49547  21983186.667    21983190.840
       240.000         200.000
 02  7 12 11 11 30.0000000  0  7G10G30G24G 4G 5G 7G 9
  24289305.962    -3797130.44549  -2938011.53245  24289304.265    24289311.839
       206.000         138.000
  23413201.444    -5900106.05649  -4579942.93346  23413199.899    23413205.089
       222.000         168.000
  20360562.546    -1692762.60549  -1312959.16548  20360561.816    20360566.952
       248.000         219.000
  21501486.547     2734522.78249   2118946.47847  21501486.411    21501489.974
       241.000         202.000
  21187243.728    -4293664.15949  -3327890.16647  21187242.907    21187246.734
       247.000         210.000
  23999421.913     2932476.08049   2259046.98345  23999421.626    23999426.715
       215.000         156.000
  21995199.783     2155612.06749   1675652.63147  21995199.410    21995204.035
       241.000         201.000
 02  7 12 11 12  0.0000000  0  7G10G30G24G 4G 5G 7G 9
  24270047.959    -3898331.25049  -3016869.22645  24270046.586    24270053.427
       209.000         139.000
  23394837.207    -5996609.81549  -4655140.67146  23394838.241    23394841.287
       223.000         168.000
  20359537.734    -1698148.03249  -1317155.60248  20359537.276    20359541.932
       248.000         219.000
  21515419.090     2807739.07849   2175998.11847  21515418.935    21515422.942
       241.000         202.000
  21175588.106    -4354914.81149  -3375617.94747  21175587.246    21175591.512
       247.000         210.000
  24012126.650     2999239.00449   2311070.01445  24012127.220    24012132.027
       215.000         156.000
  22007290.210     2219147.64049   1725160.80547  22007289.950    22007294.348
       240.000         201.000
 02  7 12 11 12 30.0000000  0  7G10G30G24G 4G 5G 7G 9
  24250783.064    -3999569.03449  -3095755.71445  24250781.114    24250787.388
       215.000         141.000
  23376491.871    -6093016.32649  -4730262.61246  23376492.171    23376495.270
       222.000         168.000
  20358614.053    -1703001.97449  -1320937.89248  20358613.525    20358618.385
       248.000         219.000
  21529420.952     2881319.25349   2233333.29747  21529420.952    21529425.006
       242.000         202.000
  21163992.584    -4415849.75849  -3423099.72347  21163991.873    21163995.775
       247.000         210.000
  24024836.372     3066028.12249   2363113.44245  24024836.322    24024839.996
       214.000         155.000
  22019457.962     2283089.18949   1774985.31947  22019457.807    22019462.559
       241.000         201.000
 02  7 12 11 13  0.0000000  0  7G10G30G24G 4G 5G 7G 9
  24231511.583    -4100841.73849  -3174669.45645  24231511.084    24231517.040
       212.000         143.000
  23358165.290    -6189324.78949  -4805308.16546  23358165.289    23358168.750
       224.000         168.000
  20357791.097    -1707326.63349  -1324307.74448  20357790.565    20357795.451
       248.000         219.000
  21543491.400     2955259.72249   2290949.23247  21543491.591    21543495.214
       242.000         202.000
  21152457.353    -4476468.04649  -3470334.74847  21152456.219    21152460.530
       246.000         210.000
  24037550.677     3132842.51349   2415176.57645  24037550.250    24037554.741
       215.000         155.000
  22031702.242     2347432.82249   1825123.17147  22031701.990    22031706.314
       240.000         200.000
 02  7 12 11 13 30.0000000  0  7G10G30G24G 4G 5G 7G 9
  24212234.149    -4202145.14949  -3253607.10545  24212232.780    24212238.608
       208.000         146.000
  23339857.641    -6285531.77449  -4880274.62446  23339857.713    23339860.834
       222.000         167.000
  20357068.988    -1711121.33749  -1327264.65048  20357068.515    20357073.245
       248.000         219.000
  21557630.166     3029559.08949   2348844.83047  21557630.013    21557633.616
       241.000         202.000
  21140982.915    -4536766.17949  -3517320.30247  21140981.963    21140986.505
       247.000         210.000
  24050269.958     3199683.49249   2467260.44745  24050270.144    24050273.668
       215.000         154.000
  22044022.754     2412177.25449   1875573.34747  22044022.291    22044026.496
       240.000         199.000
 02  7 12 11 14  0.0000000  0  7G10G30G24G 4G 5G 7G 9
  24192951.330    -4303476.39649  -3332566.44245  24192950.129    24192955.495
       219.000         147.000
  23321569.677    -6381635.24949  -4955160.45346  23321570.343    23321572.982
       225.000         168.000
  20356447.719    -1714386.21049  -1329808.70248  20356447.105    20356451.871
       247.000         219.000
  21571836.672     3104214.58249   2407017.93347  21571836.278    21571840.026
       240.000         201.000
  21129569.909    -4596742.09649  -3564054.78147  21129569.044    21129573.341
       247.000         211.000
  24062994.545     3266551.21249   2519365.13945  24062993.216    24062999.099
       216.000         156.000
  22056419.059     2477320.00149   1926333.87747  22056418.499    22056422.912
       240.000         200.000
 02  7 12 11 14 30.0000000  0  7G10G30G24G 4G 5G 7G 9
  24173663.953    -4404832.95249  -3411545.47845  24173662.831    24173669.106
       212.000         152.000
  23303301.818    -6477634.09849  -5029964.74646  23303301.260    23303305.456
       222.000         168.000
  20355926.848    -1717123.36849  -1331941.54748  20355926.485    20355931.106
       248.000         219.000
  21586110.203     3179222.62849   2465465.74147  21586109.787    21586113.691
       240.000         201.000
  21118218.386    -4656394.59649  -3610537.24347  21118217.522    21118221.598
       246.000         211.000
  24075724.073     3333444.88049   2571490.03645  24075723.633    24075728.324
       214.000         155.000
  22068890.427     2542857.48149   1977401.99347  22068889.925    22068894.213
       241.000         199.000
 02  7 12 11 15  0.0000000  0  7G10G30G24G 4G 5G 7G 9
  24154372.283    -4506210.90749  -3490541.18745  24154371.277    24154377.407
       214.000         153.000
  23285054.098    -6573524.91949  -5104684.87246  23285053.493    23285057.769
       223.000         168.000
  20355506.526    -1719332.23749  -1333662.73748  20355505.996    20355510.717
       248.000         219.000
  21600450.581     3254581.95149   2524187.27947  21600450.899    21600454.269
       242.000         201.000
  21106929.081    -4715720.11249  -3656764.90547  21106928.058    21106932.372
       245.000         211.000
  24088458.956     3400365.95549   2623636.30245  24088458.307    24088463.299
       217.000         156.000
  22081436.706     2608788.10449   2028776.45547  22081436.270    22081440.558
       239.000         199.000
 02  7 12 11 15 30.0000000  0  7G10G30G24G 4G 5G 7G 9
  24135077.059    -4607608.05749  -3569551.90345  24135075.135    24135081.478
       221.000         154.000
  23266827.462    -6669306.55749  -5179319.92546  23266827.820    23266831.574
       223.000         167.000
  20355186.456    -1721014.08749  -1334973.26448  20355185.878    20355190.704
       248.000         219.000
  21614857.268     3330289.05249   2583179.81247  21614856.616    21614860.853
       240.000         201.000
  21095702.243    -4774717.48349  -3702736.87147  21095701.610    21095705.641
       247.000         211.000
  24101198.676     3467313.60649   2675803.27345  24101197.598    24101202.855
       220.000         156.000
  22094057.090     2675108.44449   2080454.61247  22094056.513    22094060.977
       239.000         198.000
 02  7 12 11 16  0.0000000  0  7G10G30G24G 4G 5G 7G 9
  24115778.696    -4709021.38949  -3648575.21545  24115777.704    24115784.812
       216.000         157.000
  23248622.216    -6764977.09049  -5253868.38546  23248623.073    23248626.279
       225.000         169.000
  20354966.513    -1722169.94149  -1335873.92148  20354966.040    20354970.879
       248.000         219.000
  21629329.404     3406341.17349   2642441.19447  21629329.307    21629333.131
       240.000         200.000
  21084538.341    -4833384.62649  -3748451.52647  21084537.488    21084541.427
       246.000         211.000
  24113943.658     3534287.89949   2727990.98945  24113942.495    24113948.042
       218.000         156.000
  22106751.069     2741815.78149   2132434.31347  22106750.805    22106754.932
       240.000         198.000
 02  7 12 11 16 30.0000000  0  7G10G30G24G 4G 5G 7G 9
  24096477.674    -4810448.83549  -3727609.53245  24096476.526    24096482.249
       220.000         156.000
  23230438.133    -6860535.35749  -5328329.36246  23230437.603    23230442.623
       224.000         169.000
  20354846.244    -1722801.96849  -1336366.40748  20354845.793    20354850.293
       248.000         219.000
  21643866.617     3482734.70549   2701968.60247  21643866.393    21643870.433
       240.000         200.000
  21073437.357    -4891720.55949  -3793908.09047  21073436.533    21073440.896
       246.000         211.000
  24126693.280     3601287.89949   2780198.74945  24126692.159    24126698.022
       218.000         153.000
  22119517.969     2808906.26649   2184712.58047  22119517.617    22119521.844
       239.000         198.000
 02  7 12 11 17  0.0000000  0  7G10G30G24G 4G 5G 7G 9
  24077175.080    -4911884.10949  -3806649.93045  24077172.410    24077179.305
       211.000         150.000
  23212276.279    -6955975.71549  -5402698.49846  23212276.206    23212280.091
       225.000         170.000
  20354826.204    -1722907.26649  -1336448.45648  20354825.707    20354830.525
       248.000         219.000
  21658468.891     3559470.34049   2761762.58747  21658468.354    21658472.572
       241.000         200.000
  21062400.485    -4949719.66849  -3839102.19747  21062399.884    21062403.726
       247.000         211.000
  24139448.564     3668317.29749   2832429.42245  24139447.578    24139452.820
       217.000         151.000
  22132357.885     2876380.63949   2237289.95747  22132357.458    22132362.255
       239.000         197.000
 02  7 12 11 17 30.0000000  0  7G10G30G24G 4G 5G 7G 9
  24057870.886    -5013327.09749  -3885696.34645  24057870.033    24057876.688
       209.000         147.000
  23194136.684    -7051299.48649  -5476976.79046  23194137.593    23194140.068
       227.000         170.000
  20354905.593    -1722490.02149  -1336123.31348  20354905.062    20354909.954
       248.000         219.000
  21673135.151     3636542.19649   2821818.56747  21673135.251    21673139.211
       240.000         199.000
  21051427.540    -5007382.91649  -3884034.58747  21051426.341    21051431.136
       246.000         212.000
  24152208.887     3735373.13449   2884680.70345  24152207.884    24152214.144
       215.000         148.000
  22145269.815     2944233.11549   2290161.98547  22145269.549    22145273.872
       239.000         197.000
 02  7 12 11 18  0.0000000  0  7G10G30G24G 4G 5G 7G 9
  24038566.009    -5114774.43249  -3964746.14845  24038564.778    24038571.929
       208.000         147.000
  23176020.277    -7146503.70549  -5551161.91146  23176019.695    23176023.594
       225.000         171.000
  20355084.444    -1721550.14149  -1335390.92948  20355083.829    20355088.554
       248.000         218.000
  21687865.203     3713948.31849   2882135.01547  21687864.894    21687868.674
       240.000         200.000
  21040518.934    -5064707.61849  -3928703.18447  21040518.002    21040522.618
       246.000         212.000
  24164974.320     3802456.21249   2936953.21445  24164972.717    24164978.956
       212.000         142.000
  22158253.274     3012461.73649   2343327.10947  22158252.931    22158257.730
       238.000         197.000
 02  7 12 11 18 30.0000000  0  7G10G30G24G 4G 5G 7G 9
  24019261.293    -5216222.25449  -4043796.33245  24019259.523    24019266.049
       210.000         147.000
  23157926.643    -7241585.85849  -5625251.91646  23157927.820    23157929.255
       225.000         170.000
  20355362.711    -1720087.91749  -1334251.54248  20355362.486    20355366.844
       248.000         219.000
  21702658.212     3791686.53649   2942710.23347  21702658.003    21702661.937
       239.000         199.000
  21029675.380    -5121691.05449  -3973105.85647  21029674.539    21029678.563
       246.000         212.000
  24177744.963     3869566.88649   2989247.25645  24177743.966    24177748.860
       212.000         138.000
  22171307.905     3081064.28249   2396783.59947  22171307.783    22171312.274
       238.000         196.000
 02  7 12 11 19  0.0000000  0  7G10G30G24G 4G 5G 7G 9
  23999956.623    -5317667.50149  -4122844.53845  23999954.597    23999960.339
       210.000         144.000
  23139856.771    -7336543.76649  -5699245.09446  23139856.121    23139859.511
       225.000         170.000
  20355740.153    -1718104.46149  -1332705.97948  20355739.535    20355744.214
       248.000         219.000
  21717513.977     3869754.27649   3003542.23747  21717513.498    21717517.480
       239.000         198.000
  21018897.162    -5178331.01849  -4017240.88247  21018896.191    21018900.525
       247.000         212.000
  24190521.083     3936705.58049   3041563.11945  24190518.003    24190528.316
       205.000         135.000
  22184433.152     3150037.95849   2450529.28147  22184432.817    22184437.361
       239.000         196.000
 02  7 12 11 19 30.0000000  0  7G10G30G24G 4G 5G 7G 9
  23980653.104    -5419107.27749  -4201888.48945  23980651.410    23980657.994
       211.000         142.000
  23121810.758    -7431375.70049  -5773140.14046  23121810.504    23121814.640
       224.000         170.000
  20356216.464    -1715601.24549  -1330755.41048  20356215.995    20356220.965
       248.000         219.000
  21732431.937     3948148.47949   3064628.62647  21732431.831    21732435.723
       239.000         198.000
  21008184.599    -5234625.81049  -4061106.94647  21008183.947    21008187.996
       247.000         212.000
  24203302.291     4003872.08549   3093900.57445  24203302.982    24203306.008
       204.000         133.000
  22197628.492     3219379.59849   2504561.69047  22197628.362    22197632.818
       239.000         196.000
 02  7 12 11 20  0.0000000  0  7G10G30G24G 4G 5G 7G 9
  23961351.270    -5520538.88749  -4280926.06645  23961349.333    23961355.647
       213.000         142.000
  23103789.314    -7526079.49749  -5846935.31846  23103789.649    23103792.658
       226.000         171.000
  20356791.604    -1712578.98849  -1328400.39948  20356791.177    20356795.821
       248.000         219.000
  21747411.495     4026866.38149   3125967.23747  21747411.290    21747415.529
       239.000         198.000
  20997538.136    -5290573.70049  -4104702.69348  20997537.177    20997541.469
       247.000         213.000
  24216088.775     4071066.31149   3146259.68945  24216088.351    24216093.539
       205.000         133.000
  22210893.224     3289086.08349   2558878.38147  22210893.069    22210897.744
       238.000         196.000
 02  7 12 11 20 30.0000000  0  7G10G30G24G 4G 5G 7G 9
  23942051.770    -5621958.65549  -4359954.45145  23942052.082    23942055.299
       214.000         144.000
  23085792.863    -7620652.71249  -5920628.74146  23085793.078    23085796.569
       226.000         171.000
  20357465.373    -1709038.42449  -1325641.51948  20357464.900    20357469.369
       248.000         219.000
  21762452.221     4105905.60249   3187556.25147  21762452.298    21762456.153
       239.000         198.000
  20986958.121    -5346172.11249  -4148026.12548  20986957.412    20986961.211
       248.000         213.000
  24228880.850     4138288.90049   3198640.89345  24228880.735    24228883.346
       205.000         135.000
  22224227.039     3359155.26449   2613477.70647  22224226.518    22224231.136
       238.000         196.000
 02  7 12 11 21  0.0000000  0  7G10G30G24G 4G 5G 7G 9
  23922755.144    -5723364.39549  -4438971.87845  23922753.962    23922760.622
       217.000         148.000
  23067821.326    -7715094.17749  -5994219.51246  23067820.910    23067824.411
       225.000         171.000
  20358237.329    -1704981.61549  -1322480.36748  20358236.776    20358241.657
       248.000         219.000
  21777553.315     4185262.52649   3249392.78747  21777553.174    21777556.900
       240.000         198.000
  20976444.827    -5401419.77949  -4191076.24548  20976443.870    20976448.229
       247.000         213.000
  24241678.236     4205538.97049   3251043.48445  24241678.006    24241683.408
       210.000         139.000
  22237629.098     3429583.46049   2668356.77747  22237628.740    22237633.347
       239.000         196.000
 02  7 12 11 21 30.0000000  0  7G10G30G24G 4G 5G 7G 9
  23903461.525    -5824752.68449  -4517975.71445  23903460.579    23903467.046
       215.000         152.000
  23049875.128    -7809401.12049  -6067705.46246  23049874.974    23049877.553
       225.000         172.000
  20359107.565    -1700408.66249  -1318917.01848  20359107.103    20359111.754
       248.000         219.000
  21792714.530     4264935.24049   3311475.42647  21792714.248    21792717.906
       238.000         197.000
  20965998.785    -5456314.03749  -4233850.98048  20965997.842    20966002.000
       247.000         213.000
  24254481.011     4272817.29649   3303468.14545  24254480.493    24254485.608
       211.000         142.000
  22251099.118     3500368.44449   2723513.86947  22251098.955    22251103.337
       238.000         196.000
 02  7 12 11 22  0.0000000  0  7G10G30G24G 4G 5G 7G 9
  23884171.712    -5926120.65249  -4596963.70545  23884171.332    23884175.922
       218.000         153.000
  23031955.305    -7903571.82549  -6141085.24646  23031955.509    23031958.382
       228.000         173.000
  20360075.633    -1695321.31349  -1314952.84248  20360075.043    20360079.906
       249.000         218.000
  21807935.200     4344920.46149   3373801.57547  21807935.011    21807939.148
       239.000         197.000
  20955620.249    -5510853.17749  -4276349.00648  20955619.387    20955623.647
       248.000         213.000
  24267289.075     4340123.67149   3355914.63745  24267287.806    24267294.485
       210.000         146.000
  22264636.362     3571506.98749   2778946.45947  22264636.233    22264640.863
       239.000         195.000
 02  7 12 11 22 30.0000000  0  7G10G30G24G 4G 5G 7G 9
  23864886.881    -6027463.90249  -4675932.44245  23864884.574    23864891.352
       217.000         153.000
  23014062.011    -7997602.59149  -6214355.99246  23014061.827    23014064.907
       226.000         174.000
  20361141.683    -1689719.13749  -1310587.50248  20361141.375    20361145.986
       248.000         219.000
  21823215.128     4425216.96949   3436370.28347  21823214.983    21823219.082
       238.000         196.000
  20945310.032    -5565033.82849  -4318567.68248  20945309.404    20945313.547
       248.000         214.000
  24280102.733     4407459.56149   3408384.11845  24280101.476    24280108.217
       213.000         150.000
  22278240.636     3642997.65149   2834653.42347  22278240.305    22278244.656
       238.000         195.000
 02  7 12 11 23  0.0000000  0  7G10G30G24G 4G 5G 7G 9
  23845606.817    -6128780.33749  -4754880.27645  23845606.240    23845611.987
       219.000         154.000
  22996195.164    -8091492.42249  -6287516.91846  22996194.975    22996198.918
       226.000         174.000
  20362305.376    -1683603.88449  -1305822.36348  20362304.900    20362309.405
       248.000         219.000
  21838553.579     4505821.14249   3499178.73147  21838553.594    21838557.380
       238.000         196.000
  20935068.240    -5618854.87049  -4360506.14748  20935067.265    20935071.853
       248.000         214.000
  24292921.742     4474824.37249   3460876.13445  24292921.201    24292926.179
       215.000         151.000
  22291911.201     3714836.66349   2890631.82447  22291910.931    22291915.883
       237.000         194.000
 02  7 12 11 23 30.0000000  0  7G10G30G24G 4G 5G 7G 9
  23826332.977    -6230065.76349  -4833803.97145  23826332.193    23826337.867
       221.000         157.000
  22978355.955    -8185237.78749  -6360565.27746  22978355.316    22978359.329
       228.000         174.000
  20363566.677    -1676975.61449  -1300657.46648  20363566.127    20363570.907
       248.000         218.000
  21853950.403     4586731.61449   3562225.85147  21853950.095    21853954.390
       238.000         196.000
  20924895.407    -5672313.04349  -4402161.86248  20924894.827    20924898.472
       248.000         214.000
  24305746.475     4542219.18049   3513391.51245  24305745.243    24305751.597
       217.000         154.000
  22305647.737     3787022.38049   2946880.39147  22305647.332    22305652.085
       237.000         193.000
 02  7 12 11 24  0.0000000  0  7G10G30G24G 4G 5G 7G 9
  23807064.900    -6331319.55149  -4912703.00345  23807064.112    23807069.273
       219.000         159.000
  22960544.295    -8278838.95749  -6433501.27446  22960544.496    22960548.131
       228.000         176.000
  20364924.894    -1669838.05549  -1295095.72248  20364924.336    20364929.123
       248.000         218.000
  21869404.403     4667943.08049   3625507.51547  21869404.037    21869408.049
       238.000         196.000
  20914791.699    -5725408.72049  -4443535.10448  20914790.742    20914794.928
       247.000         214.000
  24318576.679     4609641.83949   3565928.61145  24318576.390    24318581.649
       220.000         160.000
  22319449.225     3859549.59549   3003395.07447  22319448.787    22319453.762
       237.000         193.000
 02  7 12 11 24 30.0000000  0  7G10G30G24G 4G 5G 7G 9
  23787803.998    -6432536.09049  -4991573.02645  23787802.777    23787809.155
       217.000         160.000
  22942760.852    -8372291.51249  -6506321.46246  22942761.227    22942763.881
       228.000         177.000
  20366380.388    -1662189.59349  -1289135.87248  20366379.859    20366384.731
       248.000         219.000
  21884915.604     4749455.25249   3689023.49147  21884915.748    21884919.266
       238.000         195.000
  20904757.666    -5778137.58649  -4484622.52948  20904756.988    20904761.059
       247.000         214.000
  24331412.741     4677094.78049   3618489.30746  24331412.484    24331417.807
       222.000         163.000
  22333315.565     3932417.69149   3060175.38447  22333315.477    22333319.690
       237.000         194.000
 02  7 12 11 25  0.0000000  0  7G10G30G24G 4G 5G 7G 9
  23768550.782    -6533711.81649  -5070411.22245  23768549.416    23768555.816
       215.000         160.000
  22925006.121    -8465593.11749  -6579024.03446  22925005.809    22925009.623
       227.000         177.000
  20367932.780    -1654031.65749  -1282779.03148  20367932.334    20367936.946
       248.000         219.000
  21900483.532     4831265.35049   3752771.62147  21900483.521    21900487.608
       238.000         195.000
  20894793.971    -5830497.49649  -4525422.44948  20894793.236    20894797.501
       248.000         215.000
  24344254.557     4744578.15749   3671073.71945  24344253.644    24344259.454
       223.000         162.000
  22347246.229     4005623.92149   3117219.17247  22347245.964    22347250.821
       237.000         194.000
 02  7 12 11 25 30.0000000  0  7G10G30G24G 4G 5G 7G 9
  23749305.546    -6634846.08149  -5149217.11245  23749304.029    23749310.560
       214.000         159.000
  22907280.076    -8558743.77349  -6651608.98246  22907280.010    22907284.097
       229.000         177.000
  20369581.438    -1645367.79349  -1276027.95448  20369580.803    20369585.607
       247.000         218.000
  21916107.247     4913368.62649   3816748.21147  21916106.815    21916110.785
       238.000         195.000
  20884900.389    -5882488.68549  -4565935.04948  20884899.725    20884903.817
       248.000         215.000
  24357101.765     4812089.99149   3723680.30545  24357101.010    24357106.702
       222.000         161.000
  22361240.301     4079163.03849   3174522.36847  22361240.216    22361244.871
       237.000         193.000
 02  7 12 11 26  0.0000000  0  7G10G30G24G 4G 5G 7G 9
  23730069.032    -6735934.73249  -5227987.45145  23730066.677    23730073.639
       211.000         157.000
  22889583.340    -8651740.40949  -6724073.90746  22889584.161    22889587.022
       230.000         178.000
  20371326.391    -1636197.89049  -1268882.56448  20371326.194    20371330.545
       248.000         218.000
  21931786.484     4995763.48049   3880952.00047  21931786.710    21931789.692
       239.000         195.000
  20875077.577    -5934107.83849  -4606157.76048  20875076.725    20875080.940
       248.000         215.000
  24369954.474     4879631.42849   3776309.97245  24369953.472    24369958.612
       217.000         158.000
  22375297.434     4153033.33249   3232083.59247  22375297.004    22375301.664
       237.000         193.000
 02  7 12 11 26 30.0000000  0  7G10G30G24G 4G 5G 7G 9
  23710841.802    -6836973.43749  -5306718.88645  23710841.136    23710846.970
       213.000         154.000
  22871916.711    -8744579.34649  -6796415.94546  22871916.642    22871920.511
       230.000         177.000
  20373167.830    -1626521.48849  -1261342.50648  20373167.340    20373171.818
       248.000         218.000
  21947520.933     5078448.36249   3945381.78247  21947520.897    21947524.274
       237.000         194.000
  20865326.227    -5985351.83549  -4646088.14248  20865325.676    20865329.731
       249.000         215.000
  24382813.032     4947204.08049   3828963.93145  24382812.260    24382816.916
       218.000         157.000
  22389417.281     4227233.20249   3289901.63747  22389416.779    22389421.764
       235.000         192.000
 02  7 12 11 27  0.0000000  0  7G10G30G24G 4G 5G 7G 9
  23691624.973    -6937958.73349  -5385408.69245  23691622.821    23691629.344
       211.000         152.000
  22854280.500    -8837258.33449  -6868633.37246  22854280.541    22854283.673
       229.000         177.000
  20375105.286    -1616339.76949  -1253408.68248  20375104.838    20375109.724
       248.000         218.000
  21963310.073     5161420.80449   4010035.63447  21963310.277    21963313.716
       238.000         194.000
  20855646.670    -6036218.65749  -4685724.61948  20855645.647    20855649.672
       248.000         215.000
  24395677.761     5014808.18649   3881642.39845  24395676.625    24395682.383
       213.000         154.000
  22403599.280     4301759.79349   3347974.26247  22403599.031    22403603.118
       236.000         192.000
 02  7 12 11 27 30.0000000  0  7G10G30G24G 4G 5G 7G 9
  23672418.186    -7038890.95949  -5464057.14845  23672417.097    23672424.317
       212.000         151.000
  22836674.542    -8929778.54649  -6940727.06546  22836674.149    22836677.908
       229.000         176.000
  20377138.017    -1605657.90349  -1245085.13548  20377137.551    20377142.245
       248.000         219.000
  21979152.740     5244674.49049   4074908.63247  21979152.719    21979157.325
       237.000         194.000
  20846038.443    -6086709.81149  -4725068.36748  20846037.479    20846041.781
       248.000         215.000
  24408547.770     5082440.22649   3934342.61145  24408547.824    24408551.763
       209.000         152.000
  22417842.188     4376606.79749   3406296.56347  22417841.811    22417846.699
       236.000         192.000
 02  7 12 11 28  0.0000000  0  7G10G30G24G 4G 5G 7G 9
  23653222.746    -7139763.48149  -5542659.06945  23653221.925    23653227.005
       213.000         152.000
  22819099.883    -9022134.12749  -7012692.44846  22819099.836    22819103.444
       229.000         176.000
  20379266.342    -1594473.45449  -1236369.96748  20379265.808    20379270.402
       248.000         218.000
  21995049.171     5328210.57949   4140001.69147  21995049.124    21995052.773
       237.000         194.000
  20836502.946    -6136819.51149  -4764114.87548  20836502.100    20836506.153
       249.000         216.000
  24421423.901     5150104.25449   3987067.76145  24421424.360    24421428.359
       205.000         147.000
  22432146.199     4451774.94849   3464869.11447  22432146.108    22432150.885
       237.000         193.000
 02  7 12 11 28 30.0000000  0  7G10G30G24G 4G 5G 7G 9
  23634038.927    -7240574.80449  -5621213.31745  23634037.696    23634042.959
       216.000         153.000
  22801556.662    -9114324.45849  -7084529.09946  22801556.371    22801560.977
       228.000         176.000
  20381489.756    -1582789.19449  -1227265.33448  20381489.249    20381494.143
       248.000         218.000
  22010998.438     5412024.76549   4205311.45247  22010998.233    22011001.987
       237.000         193.000
  20827040.052    -6186547.18749  -4802863.71448  20827038.941    20827043.135
       248.000         216.000
  24434305.665     5217798.89649   4039816.73545  24434305.842    24434310.383
       197.000         139.000
  22446510.493     4527259.72849   3523688.38147  22446510.154    22446515.022
       236.000         193.000
 02  7 12 11 29  0.0000000  0  7G10G30G24G 4G 5G 7G 9
  23614867.758    -7341319.85449  -5699715.91845  23614866.928    23614872.376
       218.000         154.000
  22784045.657    -9206345.61949  -7156233.90746  22784045.613    22784049.070
       229.000         176.000
  20383808.369    -1570604.77049  -1217770.96148  20383807.933    20383812.475
       248.000         218.000
  22027000.602     5496116.08549   4270837.14747  22027000.675    22027003.781
       238.000         194.000
  20817650.599    -6235889.24849  -4841312.06848  20817649.591    20817653.663
       248.000         216.000
  24447193.670     5285525.58449   4092590.66345  24447192.091    24447197.967
       198.000         132.000
  22460934.820     4603059.83849   3582753.36247  22460934.219    22460939.158
       236.000         192.000
 02  7 12 11 29 30.0000000  0  7G10G30G24G 4G 5G 7G 9
  23595709.391    -7441998.06949  -5778166.47445  23595708.181    23595714.132
       218.000         154.000
  22766566.763    -9298198.06649  -7227807.24746  22766566.934    22766570.079
       230.000         176.000
  20386221.419    -1557924.03849  -1207889.85448  20386220.843    20386225.596
       249.000         219.000
  22043054.364     5580479.17949   4336574.60747  22043054.321    22043058.161
       237.000         194.000
  20808334.373    -6284846.16049  -4879460.30648  20808333.600    20808337.538
       249.000         216.000
  24460087.185     5353282.19649   4145387.93944  24460085.445    24460092.517
       201.000         129.000
  22475418.123     4679169.62649   3642059.67747  22475417.672    22475422.649
       236.000         192.000
 02  7 12 11 30  0.0000000  0  7G10G30G24G 4G 5G 7G 9
  23576564.590    -7542603.45649  -5856560.26145  23576564.364    23576569.465
       221.000         154.000
  22749120.698    -9389876.59549  -7299245.07146  22749120.901    22749124.106
       229.000         177.000
  20388729.220    -1544745.49249  -1197620.84448  20388728.727    20388733.187
       248.000         218.000
  22059159.762     5665114.01049   4402523.82147  22059159.622    22059163.348
       236.000         193.000
  20799092.393    -6333413.27549  -4917304.81048  20799091.389    20799095.430
       248.000         216.000
  24472987.080     5421071.55249   4198210.79344  24472986.144    24472991.469
       201.000         128.000
  22489960.287     4755589.03449   3701607.23447  22489960.095    22489964.709
       235.000         191.000
 02  7 12 11 30 30.0000000  0  7G10G30G24G 4G 5G 7G 9
  23557434.398    -7643134.34249  -5934895.99945  23557433.618    23557439.245
       223.000         157.000
  22731708.110    -9481380.46249  -7370546.79046  22731708.716    22731712.515
       231.000         177.000
  20391331.219    -1531071.93349  -1186966.11348  20391330.656    20391335.209
       248.000         218.000
  22075316.177     5750016.69049   4468681.77147  22075316.037    22075319.730
       236.000         192.000
  20789924.580    -6381590.16549  -4954845.24248  20789923.855    20789927.834
       249.000         216.000
  24485893.128     5488892.50149   4251058.21944  24485889.871    24485900.552
       198.000         122.000
  22504560.537     4832313.68149   3761392.63447  22504559.717    22504564.912
       235.000         190.000
 02  7 12 11 31  0.0000000  0  7G10G30G24G 4G 5G 7G 9
  23538318.790    -7743587.86349  -6013171.46445  23538317.262    23538322.327
       222.000         157.000
  22714329.201    -9572707.65449  -7441710.85746  22714329.627    22714333.038
       230.000         177.000
  20394027.090    -1516904.90049  -1175926.84848  20394026.689    20394031.411
       248.000         218.000
  22091523.098     5835184.14849   4535046.03547  22091523.297    22091527.532
       237.000         193.000
  20780831.484    -6429374.96849  -4992080.15148  20780830.970    20780834.454
       249.000         216.000
  24498804.726     5556745.00549   4303930.21744  24498803.761    24498806.614
       200.000         116.000
  22519218.242     4909340.46749   3821413.47047  22519217.440    22519222.468
       235.000         190.000
 02  7 12 11 31 30.0000000  0  7G10G30G24G 4G 5G 7G 9
  23519218.631    -7843960.55049  -6091383.94045  23519218.444    23519222.922
       223.000         159.000
  22696984.188    -9663855.76549  -7512735.36446  22696983.845    22696988.617
       230.000         178.000
  20396816.643    -1502245.80449  -1164504.16948  20396816.168    20396820.708
       249.000         219.000
  22107779.905     5920614.03749   4601614.76447  22107779.543    22107783.420
       236.000         192.000
  20771813.364    -6476765.47049  -5029007.82048  20771812.344    20771816.548
       248.000         216.000
  24511722.760     5624629.37649   4356827.11644  24511722.777    24511730.431
       204.000         121.000
  22533932.924     4986666.86349   3881667.79147  22533932.483    22533937.738
       236.000         190.000
 02  7 12 11 32  0.0000000  0  7G10G30G24G 4G 5G 7G 9
  23500134.524    -7944248.28749  -6169530.19145  23500132.667    23500138.328
       221.000         160.000
  22679673.793    -9754821.48949  -7583617.75046  22679673.799    22679677.938
       231.000         179.000
  20399699.750    -1487095.09249  -1152698.41148  20399699.392    20399703.960
       248.000         218.000
  22124086.274     6006304.58049   4668386.60447  22124086.154    22124089.810
       237.000         191.000
  20762870.773    -6523759.01549  -5065626.16448  20762870.104    20762874.149
       250.000         216.000
  24524647.136     5692546.64549   4409749.61244  24524648.569    24524652.511
       211.000         128.000
  22548704.196     5064290.51449   3942153.72447  22548703.857    22548708.603
       236.000         190.000
 02  7 12 11 32 30.0000000  0  7G10G30G24G 4G 5G 7G 9
  23481066.970    -8044449.13949  -6247608.72845  23481065.926    23481071.999
       220.000         160.000
  22662398.523    -9845603.87149  -7654357.26446  22662399.427    22662402.739
       231.000         181.000
  20402675.778    -1471455.76249  -1140511.90348  20402675.252    20402679.855
       248.000         218.000
  22140441.483     6092251.77949   4735358.44647  22140441.661    22140444.809
       236.000         191.000
  20754003.912    -6570354.68349  -5101934.47648  20754002.843    20754006.994
       248.000         216.000
  24537577.641     5760495.76649   4462696.93145  24537577.149    24537582.115
       215.000         136.000
  22563531.247     5142207.03749   4002867.87847  22563530.783    22563535.998
       235.000         190.000
 02  7 12 11 33  0.0000000  0  6G10G30G24G 4G 5G 9
  23462016.574    -8144559.63249  -6325616.84945  23462015.734    23462020.803
       220.000         160.000
  22645158.798    -9936200.46949  -7724952.01546  22645159.143    22645163.375
       232.000         182.000
  20405744.693    -1455328.58349  -1127945.25648  20405744.107    20405748.721
       248.000         218.000
  22156845.007     6178452.97449   4802528.19647  22156844.776    22156848.618
       235.000         191.000
  20745213.107    -6616550.62349  -5137931.30748  20745212.118    20745216.277
       249.000         216.000
  22578413.564     5220413.69549   4063808.10247  22578413.470    22578417.651
       236.000         190.000
 02  7 12 11 33 30.0000000  0  6G10G30G24G 4G 5G 9
  23442984.186    -8244575.52549  -6403551.26245  23442982.091    23442989.258
       217.000         159.000
  22627954.904   -10026607.86249  -7795399.33246  22627954.773    22627958.888
       233.000         183.000
  20408906.315    -1438713.91549  -1114998.75448  20408905.779    20408910.475
       248.000         218.000
  22173296.691     6264907.06549   4869894.99047  22173296.306    22173300.961
       235.000         191.000
  20736498.980    -6662343.56049  -5173614.12648  20736498.081    20736502.446
       249.000         216.000
  22593350.833     5298908.99149   4124973.23747  22593350.419    22593355.059
       235.000         189.000
 02  7 12 11 34  0.0000000  0  6G10G30G24G 4G 5G 9
  23423970.136    -8344494.46749  -6481410.10745  23423969.164    23423974.970
       218.000         161.000
  22610787.288   -10116824.73349  -7865698.20046  22610787.637    22610790.955
       233.000         183.000
  20412160.253    -1421614.37049  -1101674.42048  20412159.846    20412164.511
       248.000         219.000
  22189795.749     6351610.06949   4937455.74547  22189795.654    22189799.276
       235.000         190.000
  20727861.749    -6707732.58849  -5208982.19648  20727860.940    20727865.040
       249.000         216.000
  22608342.220     5377688.82949   4186360.07847  22608341.661    22608346.597
       236.000         188.000
 02  7 12 11 34 30.0000000  0  6G10G30G24G 4G 5G 9
  23404975.303    -8444312.62749  -6559190.43946  23404974.433    23404980.632
       220.000         164.000
  22593656.656   -10206848.09949  -7935846.26746  22593656.417    22593659.694
       232.000         183.000
  20415506.337    -1404030.54749  -1087972.73148  20415505.769    20415510.484
       248.000         218.000
  22206341.754     6438560.12849   5005209.05147  22206341.440    22206345.130
       234.000         189.000
  20719301.789    -6752715.13849  -5244033.54048  20719301.056    20719305.176
       249.000         216.000
  22623387.257     5456750.77049   4247966.74347  22623386.925    22623391.582
       235.000         188.000
 02  7 12 11 35  0.0000000  0  6G10G30G24G 4G 5G 9
  23386000.224    -8544027.30749  -6636890.13146  23385998.080    23386004.601
       218.000         163.000
  22576562.937   -10296676.00849  -8005842.03246  22576562.731    22576565.990
       231.000         182.000
  20418944.163    -1385964.62449  -1073895.37948  20418943.909    20418948.294
       249.000         218.000
  22222934.173     6525754.13849   5073152.41047  22222933.663    22222938.322
       234.000         190.000
  20710819.596    -6797289.72049  -5278766.97948  20710819.028    20710822.845
       250.000         217.000
  22638485.165     5536091.37549   4309790.55647  22638484.923    22638489.920
       234.000         188.000
 02  7 12 11 35 30.0000000  0  6G10G30G24G 4G 5G 9
  23367045.702    -8643633.63449  -6714505.38646  23367044.362    23367049.640
       221.000         163.000
  22559507.224   -10386304.64049  -8075682.51146  22559507.148    22559510.594
       230.000         183.000
  20422473.909    -1367416.01249  -1059441.90948  20422473.276    20422477.865
       248.000         218.000
  22239572.905     6613191.29349   5141285.23347  22239573.254    22239577.046
       236.000         190.000
  20702415.651    -6841452.77049  -5313179.74748  20702414.707    20702418.867
       249.000         217.000
  22653635.947     5615709.13549   4371830.33747  22653635.864    22653640.299
       236.000         189.000
 02  7 12 11 36  0.0000000  0  7G10G30G24G 4G 5G 6G 9
  23348110.762    -8743136.94349  -6792040.35346  23348109.140    23348114.899
       219.000         164.000
  22542488.194   -10475740.05849  -8145372.44846  22542487.990    22542491.786
       230.000         183.000
  20426093.342    -1348395.34049  -1044620.60048  20426092.880    20426097.331
       248.000         218.000
  22256255.879     6700860.14949   5209598.63047  22256256.434    22256259.758
       236.000         189.000
  20694088.771    -6885210.94149  -5347277.02548  20694088.031    20694091.878
       249.000         217.000
  24848524.170    -5682994.40549  -4420439.06045  24848523.445    24848528.591
       212.000         151.000
  22668837.295     5695592.50849   4434077.07747  22668837.291    22668841.447
       235.000         188.000
 02  7 12 11 36 30.0000000  0  7G10G30G24G 4G 5G 6G 9
  23329197.710    -8842525.00949  -6869485.53046  23329196.763    23329202.325
       223.000         163.000
  22525508.072   -10564970.90449  -8214902.96246  22525507.745    22525511.231
       231.000         182.000
  20429804.187    -1328894.76349  -1029425.33948  20429803.591    20429808.282
       248.000         218.000
  22272984.032     6788767.22849   5278097.63547  22272983.624    22272987.802
       233.000         189.000
  20685841.022    -6928553.39949  -5381050.37448  20685840.111    20685844.299
       249.000         217.000
  24834911.233    -5754531.54249  -4476182.25445  24834911.309    24834916.332
       215.000         151.000
  22684090.309     5775747.84249   4496535.74646  22684090.131    22684095.069
       234.000         187.000
 02  7 12 11 37  0.0000000  0  7G10G30G24G 4G 5G 6G 9
  23310307.453    -8941794.04649  -6946837.95746  23310305.881    23310311.923
       221.000         164.000
  22508567.354   -10653994.67749  -8284272.12846  22508566.833    22508570.828
       231.000         183.000
  20433606.090    -1308915.59549  -1013857.14348  20433605.709    20433610.234
       248.000         218.000
  22289757.073     6876910.29649   5346780.53347  22289757.102    22289760.465
       236.000         189.000
  20677672.734    -6971477.80649  -5414497.96748  20677671.636    20677675.908
       249.000         217.000
  24821302.809    -5826044.36249  -4531906.48545  24821302.620    24821307.159
       213.000         151.000
  22699394.630     5856172.43249   4559204.22146  22699394.356    22699398.914
       233.000         187.000
 02  7 12 11 37 30.0000000  0  7G10G30G24G 4G 5G 6G 9
  23291440.190    -9040941.95749  -7024095.99446  23291438.742    23291444.738
       222.000         163.000
  22491666.245   -10742809.82849  -8353478.72946  22491666.453    22491669.277
       231.000         183.000
  20437498.574    -1288460.51149   -997918.11348  20437497.915    20437502.693
       248.000         218.000
  22306574.402     6965285.61849   5415644.39147  22306574.350    22306578.039
       234.000         189.000
  20669584.176    -7013983.23649  -5447619.08348  20669583.295    20669587.331
       249.000         217.000
  24807698.532    -5897534.17249  -4587612.79645  24807697.169    24807704.229
       215.000         149.000
  22714749.403     5936862.30449   4622079.42146  22714749.186    22714754.279
       235.000         187.000
 02  7 12 11 38  0.0000000  0  7G10G30G24G 4G 5G 6G 9
  23272596.514    -9139965.63449  -7101257.26145  23272595.707    23272601.141
       222.000         161.000
  22474805.473   -10831414.47149  -8422521.30446  22474805.556    22474808.762
       231.000         183.000
  20441481.305    -1267531.12049   -981609.49648  20441480.807    20441485.407
       249.000         218.000
  22323435.278     7053890.38449   5484687.03947  22323435.457    22323438.605
       234.000         188.000
  20661575.680    -7056068.25049  -5480412.60548  20661574.879    20661579.065
       249.000         217.000
  24794098.750    -5969001.51449  -4643301.60345  24794097.863    24794104.051
       214.000         149.000
  22730154.088     6017814.09649   4685158.71846  22730153.902    22730158.805
       234.000         187.000
 02  7 12 11 38 30.0000000  0  7G10G30G24G 4G 5G 6G 9
  23253776.712    -9238863.30049  -7178320.32045  23253775.696    23253781.781
       221.000         161.000
  22457984.770   -10919807.47649  -8491398.97246  22457984.801    22457988.380
       232.000         183.000
  20445553.652    -1246130.98649   -964934.07148  20445553.248    20445557.477
       248.000         218.000
  22340339.162     7142720.58849   5553905.35946  22340339.495    22340342.351
       234.000         186.000
  20653647.305    -7097732.18349  -5512878.01448  20653646.568    20653650.509
       250.000         217.000
  24780503.073    -6040447.76549  -4698973.97845  24780502.815    24780509.065
       214.000         149.000
  22745607.719     6099023.34949   4748438.62546  22745607.544    22745612.088
       235.000         187.000
 02  7 12 11 39  0.0000000  0  7G10G30G24G 4G 5G 6G 9
  23234981.879    -9337630.71549  -7255281.87245  23234981.467    23234986.472
       221.000         161.000
  22441205.154   -11007985.52949  -8560109.12646  22441205.597    22441208.800
       234.000         184.000
  20449715.564    -1224259.78349   -947891.56848  20449714.907    20449719.792
       248.000         218.000
  22357285.637     7231774.52449   5623298.02246  22357285.803    22357289.036
       236.000         187.000
  20645799.578    -7138972.27549  -5545013.15248  20645798.631    20645802.734
       249.000         217.000
  24766911.422    -6111872.13549  -4754629.28645  24766910.794    24766916.933
       211.000         147.000
  22761109.975     6180488.16749   4811917.67946  22761109.602    22761114.171
       234.000         186.000
 02  7 12 11 39 30.0000000  0  7G10G30G24G 4G 5G 6G 9
  23216212.344    -9436265.17949  -7332139.84945  23216211.401    23216216.887
       221.000         162.000
  22424466.715   -11095947.16749  -8628650.65846  22424466.715    22424470.981
       234.000         185.000
  20453966.708    -1201919.88249   -930483.85348  20453966.504    20453970.963
       249.000         218.000
  22374274.010     7321049.06949   5692862.57146  22374273.843    22374278.424
       233.000         187.000
  20638032.721    -7179787.36449  -5576817.12348  20638032.118    20638036.063
       249.000         217.000
  24753323.906    -6183275.49349  -4810268.21045  24753323.241    24753327.151
       211.000         145.000
  22776660.156     6262204.79649   4875592.94846  22776659.627    22776665.077
       234.000         186.000
 02  7 12 11 40  0.0000000  0  7G10G30G24G 4G 5G 6G 9
  23197468.884    -9534763.16149  -7408891.46846  23197467.597    23197473.136
       222.000         163.000
  22407769.997   -11183689.33349  -8697021.17546  22407769.294    22407773.580
       234.000         185.000
  20458306.827    -1179112.84549   -912712.13548  20458306.329    20458310.905
       248.000         218.000
  22391303.888     7410541.99449   5762597.31446  22391304.093    22391307.827
       234.000         186.000
  20630347.208    -7220175.19549  -5608288.15748  20630346.069    20630350.405
       249.000         217.000
  24739740.218    -6254657.71749  -4865890.68045  24739740.964    24739746.231
       214.000         145.000
  22792257.787     6344170.59549   4939462.38146  22792257.319    22792262.340
       234.000         186.000
 02  7 12 11 40 30.0000000  0  7G10G30G24G 4G 5G 6G 9
  23178752.012    -9633120.56149  -7485533.55446  23178750.535    23178756.331
       223.000         164.000
  22391115.375   -11271209.04649  -8765218.33846  22391114.894    22391119.124
       232.000         186.000
  20462735.431    -1155840.00749   -894577.45648  20462734.833    20462739.330
       248.000         218.000
  22408375.058     7500251.33449   5832500.69546  22408374.785    22408378.644
       234.000         186.000
  20622743.385    -7260133.33549  -5639424.37648  20622742.642    20622746.714
       249.000         217.000
  24726160.851    -6326018.26649  -4921496.26545  24726158.717    24726165.372
       212.000         144.000
  22807902.264     6426382.98649   5003523.95646  22807901.838    22807906.876
       234.000         186.000
 02  7 12 11 41  0.0000000  0  7G10G30G24G 4G 5G 6G 9
  23160062.560    -9731334.74449  -7562064.01846  23160060.514    23160066.654
       223.000         164.000
  22374503.626   -11358504.32949  -8833240.63946  22374504.083    22374506.904
       235.000         186.000
  20467252.408    -1132103.16949   -876081.22348  20467252.016    20467256.648
       249.000         218.000
  22425486.843     7590173.91849   5902570.23546  22425486.998    22425491.011
       233.000         186.000
  20615221.622    -7299660.42449  -5670224.71148  20615220.520    20615224.847
       249.000         217.000
  24712585.225    -6397357.65749  -4977085.38345  24712584.264    24712588.973
       213.000         143.000
  22823593.149     6508838.82049   5067775.20746  22823593.185    22823598.011
       234.000         186.000
 02  7 12 11 41 30.0000000  0  7G10G30G24G 4G 5G 6G 9
  23141400.742    -9829402.96549  -7638480.77346  23141399.063    23141405.671
       222.000         164.000
  22357935.217   -11445573.58449  -8901086.79646  22357934.944    22357938.462
       234.000         186.000
  20471857.305    -1107904.50249   -857225.12048  20471856.828    20471861.454
       249.000         218.000
  22442638.538     7680306.81349   5972803.64346  22442638.665    22442642.665
       234.000         186.000
  20607782.164    -7338755.21649  -5700688.18848  20607781.260    20607785.427
       249.000         218.000
  24699013.727    -6468676.71949  -5032658.67445  24699013.199    24699017.871
       214.000         143.000
  22839329.609     6591534.26449   5132213.20146  22839328.572    22839334.359
       234.000         185.000
 02  7 12 11 42  0.0000000  0  7G10G30G24G 4G 5G 6G 9
  23122767.441    -9927321.39149  -7714780.78346  23122765.972    23122772.128
       225.000         165.000
  22341409.895   -11532413.66449  -8968754.40246  22341410.174    22341413.838
       235.000         187.000
  20476549.856    -1083244.91549   -838009.85948  20476549.210    20476553.816
       248.000         218.000
  22459829.916     7770647.94049   6043199.29546  22459829.574    22459834.327
       233.000         187.000
  20600425.388    -7377415.20549  -5730812.85948  20600424.773    20600428.516
       249.000         218.000
  24685446.061    -6539975.10649  -5088215.79445  24685445.552    24685452.023
       213.000         144.000
  22855111.105     6674466.80749   5196835.92646  22855110.246    22855116.360
       234.000         185.000
 02  7 12 11 42 30.0000000  0  7G10G30G24G 4G 5G 6G 9
  23104163.178   -10025086.91649  -7790961.66846  23104161.902    23104166.705
       224.000         166.000
  22324928.891   -11619022.60849  -9036241.87547  22324928.843    22324931.673
       234.000         188.000
  20481329.636    -1058126.72349   -818437.24348  20481329.131    20481333.607
       248.000         218.000
  22477060.366     7861194.38949   6113754.96546  22477060.325    22477063.536
       233.000         186.000
  20593151.643    -7415639.00549  -5760597.63948  20593150.908    20593154.931
       250.000         218.000
  24671882.314    -6611253.36749  -5143757.28545  24671881.772    24671887.411
       213.000         145.000
  22870937.146     6757633.21549   5261640.88346  22870936.920    22870941.995
       233.000         184.000
 02  7 12 11 43  0.0000000  0  7G10G30G24G 4G 5G 6G 9
  23085588.571   -10122696.72849  -7867021.23346  23085587.960    23085592.531
       227.000         166.000
  22308491.964   -11705398.36949  -9103547.66047  22308491.553    22308495.397
       234.000         188.000
  20486196.351    -1032551.90549   -798508.82448  20486195.992    20486200.517
       249.000         218.000
  22494329.240     7951943.30649   6184468.40346  22494328.820    22494333.570
       231.000         184.000
  20585961.161    -7453425.15249  -5790041.39648  20585960.356    20585964.697
       250.000         218.000
  24658322.347    -6682511.99149  -5199283.44745  24658321.259    24658326.112
       213.000         144.000
  22886807.269     6841030.22549   5326625.53346  22886807.033    22886812.071
       233.000         184.000
 02  7 12 11 43 30.0000000  0  7G10G30G24G 4G 5G 6G 9
  23067044.523   -10220146.64649  -7942956.18846  23067043.098    23067048.896
       223.000         167.000
  22292100.061   -11791537.76949  -9170669.25647  22292100.190    22292103.642
       234.000         188.000
  20491149.739    -1006521.57249   -778225.44348  20491149.253    20491153.851
       248.000         217.000
  22511636.314     8042892.67049   6255338.02046  22511636.169    22511640.439
       233.000         185.000
  20578854.487    -7490771.09649  -5819142.13348  20578853.926    20578857.880
       250.000         218.000
  24644766.071    -6753750.40949  -5254793.84745  24644765.454    24644771.404
       212.000         144.000
  22902720.681     6924655.54849   5391788.11246  22902720.107    22902725.201
       230.000         182.000
 02  7 12 11 44  0.0000000  0  7G10G30G24G 4G 5G 6G 9
  23048531.428   -10317432.88449  -8018763.59346  23048529.895    23048536.156
       224.000         167.000
  22275753.829   -11877437.89149  -9237604.40447  22275753.377    22275757.850
       234.000         188.000
  20496189.692     -980036.50749   -757587.73248  20496189.363    20496193.896
       248.000         218.000
  22528981.330     8134040.64149   6326362.40846  22528980.601    22528985.460
       233.000         186.000
  20571832.055    -7527674.49449  -5847898.02848  20571831.138    20571835.186
       250.000         218.000
  24631213.678    -6824968.10049  -5310288.11345  24631212.886    24631219.253
       209.000         143.000
  22918676.947     7008506.62249   5457126.58246  22918676.410    22918681.721
       231.000         181.000
 02  7 12 11 44 30.0000000  0  7G10G30G24G 4G 5G 6G 9
  23030050.042   -10414553.67649  -8094442.08046  23030049.309    23030054.255
       223.000         167.000
  22259453.428   -11963097.37249  -9304352.04847  22259453.301    22259456.603
       235.000         188.000
  20501315.593     -953099.82049   -736598.10748  20501314.915    20501319.889
       248.000         218.000
  22546363.316     8225383.44849   6397538.59546  22546363.497    22546366.687
       232.000         184.000
  20564893.842    -7564134.74949  -5876308.61848  20564893.011    20564897.226
       249.000         218.000
  24617665.208    -6896166.30049  -5365767.16845  24617664.306    24617668.753
       207.000         140.000
  22934675.485     7092579.12749   5522637.59246  22934674.985    22934680.470
       230.000         181.000
 02  7 12 11 45  0.0000000  0  7G10G30G24G 4G 5G 6G 9
  23011600.980   -10511504.13549  -8169987.85346  23011600.021    23011606.159
       223.000         168.000
  22243199.410   -12048512.39449  -9370909.21047  22243199.004    22243202.652
       234.000         188.000
  20506527.296     -925712.05249   -715256.99548  20506526.957    20506531.523
       249.000         218.000
  22563782.211     8316920.18449   6468865.92046  22563782.069    22563785.716
       232.000         182.000
  20558040.614    -7600148.81149  -5904371.53248  20558039.785    20558044.133
       250.000         219.000
  24604120.273    -6967343.89549  -5421230.20045  24604120.342    24604123.954
       208.000         138.000
  22950715.728     7176871.56049   5588319.96946  22950715.710    22950720.656
       230.000         181.000
 02  7 12 11 45 30.0000000  0  7G10G30G24G 4G 5G 6G 9
  22993184.777   -10608281.71249  -8245398.89646  22993183.560    22993189.456
       224.000         169.000
  22226992.144   -12133681.52249  -9437274.75347  22226992.223    22226995.712
       235.000         189.000
  20511824.420     -897875.60549   -693566.26148  20511823.870    20511828.417
       248.000         218.000
  22581237.313     8408647.18749   6540341.50446  22581236.855    22581240.398
       231.000         182.000
  20551272.421    -7635715.98349  -5932086.21548  20551271.581    20551275.615
       250.000         219.000
  24590579.167    -7038501.93749  -5476677.95545  24590578.507    24590582.807
       208.000         139.000
  22966797.156     7261380.09749   5654170.74646  22966797.537    22966802.194
       228.000         180.000
 02  7 12 11 46  0.0000000  0  7G10G30G24G 4G 5G 6G 9
  22974802.094   -10704883.52149  -8320673.00646  22974801.156    22974807.022
       224.000         170.000
  22210832.257   -12218602.70049  -9503447.08947  22210832.451    22210835.687
       235.000         190.000
  20517206.426     -869592.97649   -671527.85648  20517205.924    20517210.511
       248.000         217.000
  22598728.062     8500561.61449   6611963.13046  22598728.306    22598731.212
       233.000         183.000
  20544589.470    -7670834.90849  -5959451.61748  20544588.907    20544592.913
       250.000         218.000
  24577041.919    -7109640.96149  -5532110.93745  24577041.348    24577044.696
       207.000         140.000
  22982918.934     7346101.18549   5720187.15346  22982918.247    22982924.023
       229.000         180.000
 02  7 12 11 46 30.0000000  0  7G10G30G24G 4G 5G 6G 9
  22956453.409   -10801306.13549  -8395807.46146  22956452.838    22956457.846
       226.000         171.000
  22194719.952   -12303273.38149  -9569424.24147  22194719.955    22194723.208
       236.000         190.000
  20522673.055     -840865.68649   -649142.95048  20522672.549    20522677.104
       248.000         217.000
  22616254.008     8592661.14649   6683728.97446  22616252.824    22616258.385
       230.000         181.000
  20537992.285    -7705503.73649  -5986466.28848  20537991.584    20537995.815
       250.000         219.000
  24563507.862    -7180761.01649  -5587529.04245  24563506.858    24563511.421
       208.000         140.000
  22999080.762     7431031.67449   5786366.71946  22999080.508    22999085.210
       229.000         180.000
 02  7 12 11 47  0.0000000  0  7G10G30G24G 4G 5G 6G 9
  22938139.798   -10897545.32949  -8470799.01346  22938138.247    22938143.040
       225.000         172.000
  22178655.996   -12387690.27549  -9635203.63047  22178656.296    22178659.520
       236.000         190.000
  20528224.107     -811694.62549   -626412.25148  20528223.567    20528228.430
       248.000         218.000
  22633814.729     8684944.03249   6755637.69146  22633815.536    22633818.399
       234.000         180.000
  20531481.189    -7739719.61849  -6013128.01848  20531480.272    20531484.588
       249.000         219.000
  24549977.908    -7251861.26749  -5642931.78545  24549977.764    24549982.555
       211.000         142.000
  23015282.092     7516169.77449   5852708.04746  23015282.012    23015286.844
       228.000         180.000
 02  7 12 11 47 30.0000000  0  7G10G30G24G 4G 5G 6G 9
  22919861.126   -10993599.96649  -8545646.75546  22919859.871    22919865.603
       226.000         171.000
  22162640.468   -12471852.91449  -9700784.88847  22162640.363    22162644.200
       235.000         191.000
  20533858.973     -782083.43449   -603338.59748  20533858.615    20533863.165
       249.000         218.000
  22651409.838     8777405.77949   6827685.83246  22651409.456    22651413.541
       233.000         182.000
  20525056.206    -7773483.11549  -6039437.24248  20525055.540    20525059.468
       250.000         218.000
  24536451.397    -7322944.04649  -5698320.87845  24536450.799    24536455.926
       210.000         145.000
  23031521.900     7601510.26249   5919207.09046  23031521.350    23031526.248
       230.000         180.000
 02  7 12 11 48  0.0000000  0  7G10G30G24G 4G 5G 6G 9
  22901618.856   -11089463.97049  -8620345.94446  22901616.931    22901623.247
       224.000         171.000
  22146674.059   -12555756.33049  -9766164.15747  22146674.017    22146677.634
       236.000         191.000
  20539577.715     -752031.30749   -579921.35848  20539577.007    20539581.624
       248.000         217.000
  22669038.731     8870046.67449   6899873.53046  22669038.211    22669042.296
       232.000         181.000
  20518718.172    -7806789.77049  -6065390.47948  20518717.298    20518721.446
       250.000         219.000
  24522928.505    -7394006.68949  -5753694.28545  24522928.750    24522933.126
       211.000         147.000
  23047800.123     7687052.87649   5985863.63746  23047799.450    23047804.161
       231.000         181.000
 02  7 12 11 48 30.0000000  0  7G10G30G24G 4G 5G 6G 9
  22883413.192   -11185135.07649  -8694894.83646  22883412.273    22883418.081
       225.000         171.000
  22130757.351   -12639399.20149  -9831340.41447  22130757.286    22130760.906
       236.000         190.000
  20545379.671     -721541.53649   -556163.09148  20545379.250    20545383.828
       248.000         217.000
  22686700.975     8962862.93749   6972197.85346  22686700.784    22686705.106
       232.000         182.000
  20512467.145    -7839639.15749  -6090987.40848  20512466.385    20512470.512
       249.000         219.000
  24509409.323    -7465050.53649  -5809053.03445  24509410.058    24509413.838
       216.000         151.000
  23064116.114     7772793.43849   6052674.43946  23064115.535    23064120.524
       231.000         181.000
 02  7 12 11 49  0.0000000  0  7G10G30G24G 4G 5G 6G 9
  22865244.583   -11280611.23149  -8769291.80446  22865242.872    22865248.336
       227.000         171.000
  22114890.390   -12722780.08449  -9896312.53547  22114890.410    22114893.868
       235.000         190.000
  20551264.441     -690616.80049   -532065.89148  20551263.786    20551268.942
       248.000         217.000
  22704396.074     9055850.90649   7044655.99046  22704395.464    22704399.490
       231.000         180.000
  20506303.256    -7872030.70049  -6116227.58048  20506302.532    20506306.552
       250.000         219.000
  24495893.832    -7536076.67849  -5864398.00745  24495892.776    24495898.606
       214.000         153.000
  23080468.884     7858727.72449   6119636.18746  23080468.614    23080473.199
       231.000         180.000
 02  7 12 11 49 30.0000000  0  7G10G30G24G 4G 5G 6G 9
  22847114.240   -11375886.16049  -8843531.97446  22847112.893    22847118.926
       227.000         171.000
  22099074.437   -12805893.71149  -9961076.37747  22099073.720    22099077.388
       235.000         190.000
  20557232.241     -659256.10349   -507628.98448  20557231.964    20557236.213
       248.000         218.000
  22722123.643     9149011.04949   7117248.30946  22722122.972    22722127.476
       230.000         178.000
  20500227.347    -7903959.90049  -6141107.47648  20500226.369    20500230.547
       250.000         219.000
  24482381.583    -7607082.60049  -5919727.17045  24482381.190    24482386.716
       214.000         154.000
  23096858.444     7944855.66849   6186748.83746  23096858.358    23096863.118
       230.000         180.000
 02  7 12 11 50  0.0000000  0  7G10G30G24G 4G 5G 6G 9
  22829022.533   -11470958.22349  -8917614.06846  22829021.108    22829026.468
       227.000         171.000
  22083309.348   -12888739.09249 -10025631.21347  22083309.133    22083313.491
       235.000         191.000
  20563282.274     -627463.18049   -482855.28048  20563281.476    20563286.382
       248.000         217.000
  22739883.439     9242339.66249   7189971.91246  22739883.007    22739886.926
       229.000         178.000
  20494239.451    -7935426.42849  -6165626.85648  20494238.794    20494243.048
       250.000         219.000
  24468873.161    -7678069.79549  -5975041.81445  24468873.591    24468878.374
       218.000         156.000
  23113284.126     8031172.82349   6254008.92946  23113284.076    23113288.787
       231.000         180.000
 02  7 12 11 50 30.0000000  0  7G10G30G24G 4G 5G 6G 9
  22810970.054   -11565824.65849  -8991535.93846  22810969.704    22810973.741
       227.000         170.000
  22067595.767   -12971314.52249 -10089975.69047  22067595.661    22067599.731
       237.000         192.000
  20569414.042     -595240.08249   -457746.36748  20569413.341    20569418.327
       248.000         217.000
  22757674.528     9335833.35149   7262824.10546  22757674.130    22757678.787
       228.000         176.000
  20488339.802    -7966429.59649  -6189785.17448  20488338.998    20488343.030
       250.000         219.000
  24455368.247    -7749039.27249  -6030342.64345  24455367.282    24455372.114
       216.000         156.000
  23129745.063     8117675.17549   6321413.33646  23129744.721    23129749.449
       229.000         179.000
 02  7 12 11 51  0.0000000  0  7G10G30G24G 4G 5G 6G 9
  22792957.372   -11660481.73649  -9065294.66646  22792956.015    22792961.944
       226.000         170.000
  22051934.178   -13053617.19949 -10154107.62847  22051933.994    22051937.154
       236.000         192.000
  20575627.422     -562588.58749   -432303.64548  20575627.170    20575631.468
       248.000         217.000
  22775496.830     9429490.23249   7335803.47046  22775497.211    22775500.747
       231.000         178.000
  20482528.732    -7996967.09749  -6213580.63248  20482527.851    20482531.658
       250.000         219.000
  24441866.484    -7819990.49049  -6085629.24645  24441866.098    24441871.205
       215.000         155.000
  23146240.602     8204359.94049   6388959.87546  23146240.171    23146244.769
       229.000         177.000
 02  7 12 11 51 30.0000000  0  7G10G30G24G 4G 5G 6G 9
  22774984.858   -11754927.64049  -9138888.84146  22774984.446    22774988.240
       228.000         171.000
  22036324.562   -13135645.81949 -10218026.03347  22036324.670    22036328.384
       236.000         192.000
  20581921.798     -529511.78649   -406529.52048  20581921.192    20581925.822
       248.000         217.000
  22793349.671     9523306.25749   7408906.85946  22793349.103    22793352.408
       230.000         179.000
  20476806.269    -8027038.82549  -6237013.15548  20476805.413    20476809.621
       250.000         219.000
  24428368.055    -7890925.11749  -6140902.91045  24428368.333    24428372.767
       217.000         156.000
  23162770.063     8291223.00849   6456645.35146  23162769.768    23162774.440
       228.000         177.000
 02  7 12 11 52  0.0000000  0  7G10G30G24G 4G 5G 6G 9
  22757053.888   -11849156.17349  -9212313.63046  22757052.780    22757058.468
       227.000         171.000
  22020768.157   -13217395.22449 -10281726.85047  22020768.559    22020771.927
       238.000         193.000
  20588297.219     -496008.53349   -380423.08748  20588296.729    20588301.772
       248.000         217.000
  22811232.620     9617282.10149   7482134.78146  22811232.982    22811236.010
       229.000         177.000
  20471173.316    -8056640.37349  -6260079.30048  20471172.552    20471176.403
       250.000         219.000
  24414873.316    -7961840.29349  -6196161.44045  24414871.736    24414877.974
       216.000         156.000
  23179333.513     8378264.14349   6524469.58246  23179333.092    23179338.143
       228.000         177.000
 02  7 12 11 52 30.0000000  0  7G10G30G24G 4G 5G 6G 9
  22739164.376   -11943166.10349  -9285568.08746  22739162.306    22739168.268
       227.000         172.000
  22005265.090   -13298865.21849 -10345209.94747  22005265.212    22005268.570
       239.000         193.000
  20594752.988     -462083.30249   -353987.83748  20594752.520    20594757.246
       249.000         217.000
  22829145.073     9711412.76449   7555483.32246  22829145.491    22829150.056
       232.000         178.000
  20465629.654    -8085772.52249  -6282779.68048  20465628.700    20465633.012
       250.000         219.000
  24401381.653    -8032738.36149  -6251406.62445  24401381.465    24401385.864
       216.000         154.000
  23195929.746     8465478.05049   6592428.45046  23195929.572    23195934.813
       228.000         176.000
 02  7 12 11 53  0.0000000  0  7G10G30G24G 4G 5G 6G 9
  22721317.275   -12036952.68049  -9358648.50446  22721315.780    22721321.340
       227.000         173.000
  21989815.836   -13380051.70249 -10408472.13847  21989815.767    21989818.925
       238.000         193.000
  20601289.008     -427736.39149   -327224.00648  20601288.325    20601293.125
       248.000         217.000
  22847087.115     9805697.70649   7628952.11846  22847086.961    22847091.469
       230.000         181.000
  20460175.960    -8114432.08349  -6305111.80148  20460175.385    20460178.999
       251.000         219.000
  24387893.695    -8103617.82149  -6306637.29145  24387893.053    24387898.785
       213.000         153.000
  23212558.718     8552863.46049   6660520.95146  23212558.610    23212563.330
       227.000         175.000
 02  7 12 11 53 30.0000000  0  7G10G30G24G 4G 5G 6G 9
  22703513.250   -12130513.51749  -9431553.02446  22703511.796    22703517.160
       227.000         173.000
  21974420.789   -13460953.22949 -10471512.27647  21974420.975    21974424.482
       239.000         194.000
  20607904.711     -392970.38049   -300133.60548  20607904.175    20607908.839
       248.000         217.000
  22865057.622     9900133.51549   7702538.42346  22865057.060    22865061.595
       229.000         179.000
  20454812.305    -8142618.44949  -6327075.20648  20454811.259    20454815.667
       251.000         219.000
  24374409.069    -8174479.70949  -6361854.28345  24374407.279    24374414.348
       213.000         152.000
  23229219.402     8640416.23949   6728743.87546  23229219.546    23229223.699
       228.000         174.000
 02  7 12 11 54  0.0000000  0  7G10G30G24G 4G 5G 6G 9
  22685752.785   -12223845.21449  -9504279.00146  22685751.431    22685756.087
       227.000         174.000
  21959080.482   -13541567.40649 -10534328.51247  21959080.355    21959084.470
       238.000         195.000
  20614599.775     -357787.80949   -272718.61648  20614599.410    20614603.825
       248.000         217.000
  22883056.358     9994717.59449   7776240.28346  22883056.600    22883059.883
       228.000         177.000
  20449538.920    -8170330.25249  -6348668.82048  20449538.059    20449541.993
       250.000         219.000
  24360927.596    -8245324.38749  -6417057.83945  24360926.392    24360932.226
       214.000         151.000
  23245911.456     8728133.43649   6797094.90946  23245910.701    23245916.563
       226.000         174.000
 02  7 12 11 54 30.0000000  0  7G10G30G24G 4G 5G 6G 9
  22668036.776   -12316943.15549  -9576822.81646  22668035.586    22668040.640
       228.000         175.000
  21943795.422   -13621890.41649 -10596917.87347  21943795.467    21943798.873
       238.000         195.000
  20621374.017     -322188.86249   -244979.17548  20621373.520    20621378.250
       248.000         217.000
  22901083.138    10089448.98149   7850056.94046  22901082.281    22901087.190
       227.000         177.000
  20444356.405    -8197564.42849  -6369890.25548  20444355.397    20444359.389
       250.000         219.000
  24347449.619    -8316150.55349  -6472246.98345  24347449.252    24347452.793
       213.000         150.000
  23262634.385     8816013.14849   6865572.56846  23262633.334    23262638.606
       227.000         174.000
 02  7 12 11 55  0.0000000  0  7G10G30G24G 4G 5G 6G 9
  22650365.806   -12409805.11849  -9649182.75246  22650365.218    22650370.569
       229.000         175.000
  21928566.263   -13701920.67949 -10659279.11647  21928565.950    21928569.365
       239.000         195.000
  20628226.855     -286176.69949   -216917.73948  20628226.506    20628231.036
       247.000         217.000
  22919137.386    10184324.36849   7923985.79046  22919138.301    22919141.621
       229.000         177.000
  20439264.935    -8224320.44549  -6390739.09748  20439264.022    20439268.155
       250.000         219.000
  24333975.018    -8386959.16649  -6527422.44845  24333974.360    24333979.650
       214.000         150.000
  23279387.490     8904051.28849   6934173.68846  23279386.786    23279393.063
       227.000         174.000
 02  7 12 11 55 30.0000000  0  7G10G30G24G 4G 5G 6G 9
  22632740.161   -12502429.07249  -9721357.22246  22632739.610    22632743.579
       229.000         176.000
  21913392.903   -13781656.93049 -10721411.25147  21913392.674    21913396.839
       239.000         195.000
  20635157.865     -249754.18549   -188536.55848  20635157.528    20635162.154
       248.000         217.000
  22937218.280    10279340.01549   7998023.94246  22937218.694    22937222.580
       230.000         178.000
  20434264.448    -8250598.10049  -6411215.19048  20434263.574    20434267.547
       250.000         219.000
  24320503.692    -8457751.35649  -6582585.10945  24320502.796    24320507.970
       213.000         149.000
  23296170.020     8992243.83449   7002895.12846  23296169.647    23296174.927
       227.000         175.000
 02  7 12 11 56  0.0000000  0  7G10G30G24G 4G 5G 6G 9
  22615160.556   -12594809.92649  -9793342.26246  22615159.541    22615164.618
       229.000         176.000
  21898276.217   -13861095.05149 -10783311.08747  21898276.059    21898279.419
       239.000         195.000
  20642166.851     -212921.87049   -159836.04948  20642166.376    20642170.720
       248.000         217.000
  22955325.789    10374495.18249   8072170.80946  22955324.929    22955329.942
       227.000         177.000
  20429355.640    -8276394.20549  -6431316.03748  20429354.862    20429358.596
       250.000         219.000
  24307035.593    -8528525.89449  -6637734.00545  24307034.470    24307039.389
       214.000         147.000
  23312981.678     9080589.41249   7071735.80446  23312981.559    23312986.020
       228.000         176.000
 02  7 12 11 56 30.0000000  0  7G10G30G24G 4G 5G 6G 9
  22597627.912   -12686944.59049  -9865135.46746  22597626.629    22597632.054
       230.000         177.000
  21883216.769   -13940232.88949 -10844976.94347  21883216.794    21883220.178
       239.000         196.000
  20649253.288     -175682.30449   -130818.20248  20649252.450    20649257.393
       247.000         216.000
  22973459.271    10469787.37449   8146424.42546  22973458.865    22973462.956
       228.000         175.000
  20424538.670    -8301707.51149  -6451040.68948  20424537.737    20424541.969
       250.000         219.000
  24293571.098    -8599283.04249  -6692869.39445  24293570.311    24293576.139
       215.000         147.000
  23329821.898     9169084.51049   7140692.99746  23329821.291    23329827.166
       228.000         176.000
 02  7 12 11 57  0.0000000  0  7G10G30G24G 4G 5G 6G 9
  22580142.642   -12778830.26349  -9936734.66246  22580141.533    22580146.262
       230.000         176.000
  21868214.841   -14019068.14849 -10906407.00547  21868214.250    21868218.524
       239.000         196.000
  20656416.881     -138037.19949   -101484.34548  20656416.351    20656421.335
       248.000         216.000
  22991618.444    10565214.04449   8220782.86446  22991618.734    22991621.702
       230.000         175.000
  20419813.764    -8326536.93949  -6470388.28548  20419812.948    20419816.843
       250.000         219.000
  24280109.967    -8670022.99849  -6747991.38045  24280110.140    24280114.996
       214.000         148.000
  23346689.897     9257726.27349   7209764.46346  23346689.293    23346694.835
       228.000         176.000
 02  7 12 11 57 30.0000000  0  7G10G30G24G 4G 5G 6G 9
  22562705.225   -12870463.74249 -10008137.31846  22562703.835    22562709.692
       229.000         177.000
  21853270.911   -14097598.79449 -10967599.71847  21853271.065    21853274.855
       239.000         196.000
  20663657.222      -99989.15349    -71836.50448  20663656.698    20663661.372
       248.000         216.000
  23009802.622    10660772.24949   8295243.81946  23009802.555    23009806.303
       227.000         175.000
  20415181.095    -8350881.45249  -6489358.02648  20415180.255    20415184.319
       250.000         219.000
  24266651.785    -8740746.29449  -6803100.37345  24266651.257    24266656.359
       213.000         148.000
  23363585.070     9346510.93949   7278947.28646  23363584.367    23363590.016
       227.000         176.000
 02  7 12 11 58  0.0000000  0  7G10G30G24G 4G 5G 6G 9
  22545316.776   -12961840.63049 -10079340.05146  22545314.943    22545320.782
       229.000         177.000
  21838385.790   -14175821.24649 -11028552.27747  21838385.830    21838389.187
       239.000         196.000
  20670974.094      -61538.86149    -41875.24048  20670973.463    20670978.132
       247.000         216.000
  23028011.531    10756460.96849   8369806.39546  23028011.050    23028015.635
       226.000         174.000
  20410641.252    -8374738.52849  -6507947.94348  20410640.348    20410644.302
       250.000         219.000
  24253196.807    -8811451.96749  -6858195.63445  24253197.411    24253200.625
       216.000         149.000
  23380507.059     9435436.71349   7348240.07146  23380506.842    23380511.876
       228.000         176.000
 02  7 12 11 58 30.0000000  0  7G10G30G24G 4G 5G 6G 9
  22527977.498   -13052958.55649 -10150341.00146  22527976.806    22527981.532
       228.000         177.000
  21823559.639   -14253733.73349 -11089263.30647  21823559.474    21823562.854
       239.000         197.000
  20678366.877      -22689.13149    -11602.71948  20678366.195    20678370.976
       247.000         216.000
  23046244.674    10852277.09849   8444468.27046  23046244.547    23046249.420
       226.000         174.000
  20406194.315    -8398107.24649  -6526157.32648  20406193.496    20406197.686
       250.000         219.000
  24239745.410    -8882140.84849  -6913277.83945  24239745.843    24239749.612
       215.000         150.000
  23397455.383     9524499.98449   7417639.99746  23397455.099    23397460.142
       226.000         175.000
 02  7 12 11 59  0.0000000  0  7G10G30G24G 4G 5G 6G 9
  22510688.337   -13143813.98149 -10221137.37746  22510687.565    22510692.564
       229.000         177.000
  21808792.802   -14331333.53249 -11149730.67947  21808792.807    21808796.228
       240.000         197.000
  20685835.408       16558.23149     18979.64848  20685834.775    20685839.619
       247.000         216.000
  23064501.777    10948218.44949   8519227.73146  23064501.728    23064505.605
       228.000         173.000
  20401840.577    -8420986.25149  -6543985.11148  20401839.670    20401843.685
       250.000         219.000
  24226296.798    -8952812.61949  -6968346.68745  24226295.834    24226301.981
       215.000         151.000
  23414429.085     9613697.64349   7487144.63246  23414429.228    23414433.895
       226.000         174.000
 02  7 12 11 59 30.0000000  0  7G10G30G24G 4G 5G 6G 9
  22493449.714   -13234403.50349 -10291726.57446  22493448.330    22493453.670
       228.000         177.000
  21794086.060   -14408618.20749 -11209952.49847  21794086.188    21794089.911
       241.000         198.000
  20693379.207       56201.02249     49870.14148  20693378.692    20693383.342
       247.000         216.000
  23082782.311    11044282.72549   8594082.99846  23082782.502    23082785.790
       226.000         172.000
  20397580.317    -8443374.09849  -6561430.17348  20397579.530    20397583.522
       250.000         219.000
  24212851.610    -9023467.39849  -7023402.31145  24212851.462    24212856.125
       218.000         153.000
  23431427.896     9703026.83049   7556751.75846  23431428.150    23431433.504
       225.000         173.000
 02  7 12 12  0  0.0000000  0  7G10G30G24G 4G 5G 6G 9
  22476262.194   -13324723.86549 -10362106.03246  22476260.389    22476266.531
       228.000         177.000
  21779439.703   -14485585.49349 -11269927.01447  21779439.348    21779442.982
       239.000         198.000
  20700997.764       96236.94949     81066.96948  20700997.198    20701001.974
       248.000         216.000
  23101085.683    11140467.46849   8669032.11946  23101085.581    23101089.893
       226.000         171.000
  20393413.756    -8465269.53549  -6578491.54648  20393412.804    20393417.109
       249.000         219.000
  24199409.746    -9094105.31649  -7078444.79545  24199408.918    24199414.030
       216.000         153.000
  23448451.095     9792484.49249   7626458.98146  23448450.965    23448456.076
       222.000         170.000
 02  7 12 12  0 30.0000000  0  7G10G30G24G 4G 5G 6G 9
  22459126.631   -13414771.78349 -10432273.19646  22459125.361    22459131.024
       229.000         178.000
  21764854.116   -14562232.77249 -11329652.16747  21764854.715    21764857.550
       242.000         198.000
  20708690.884      136664.56549    112569.01048  20708690.562    20708695.166
       248.000         216.000
  23119411.599    11236770.65949   8744073.50746  23119410.785    23119415.007
       224.000         171.000
  20389341.098    -8486671.28849  -6595168.23048  20389340.124    20389344.179
       250.000         219.000
  24185970.887    -9164726.36349  -7133474.13245  24185970.781    24185974.793
       218.000         153.000
  23465498.097     9882067.55949   7696263.92846  23465498.094    23465503.221
       223.000         169.000
 02  7 12 12  1  0.0000000  0  7G10G30G24G 4G 5G 6G 9
  22442043.610   -13504543.45349 -10502225.10646  22442042.617    22442048.547
       230.000         179.000
  21750330.293   -14638556.97749 -11389125.56847  21750329.920    21750333.830
       241.000         199.000
  20716458.171      177481.70949    144374.58048  20716457.675    20716462.330
       247.000         216.000
  23137759.810    11333190.29549   8819205.66146  23137760.392    23137764.079
       228.000         172.000
  20385362.826    -8507577.25249  -6611458.57748  20385361.938    20385365.899
       249.000         219.000
  24172535.371    -9235330.14549  -7188490.02245  24172534.952    24172539.605
       221.000         154.000
  23482568.701     9971773.68449   7766164.76346  23482567.677    23482572.775
       223.000         168.000
 02  7 12 12  1 30.0000000  0  7G10G30G24G 4G 5G 6G 9
  22425013.513   -13594037.21649 -10571960.47146  22425011.887    22425017.608
       230.000         180.000
  21735867.864   -14714557.56549 -11448346.81347  21735868.052    21735871.285
       241.000         199.000
  20724298.905      218685.17349    176481.18048  20724298.117    20724303.130
       247.000         216.000
  23156129.360    11429722.31949   8894425.40146  23156128.886    23156132.865
       228.000         172.000
  20381478.765    -8527987.97349  -6627363.02748  20381477.946    20381481.962
       250.000         219.000
  24159102.830    -9305918.54649  -7243493.92945  24159103.021    24159107.041
       220.000         155.000
  23499661.723    10061597.98449   7836157.68546  23499661.513    23499666.092
       223.000         167.000
 02  7 12 12  2  0.0000000  0  7G10G30G24G 4G 5G 6G 9
  22408037.214   -13683248.21149 -10641475.49746  22408036.439    22408041.257
       231.000         180.000
  21721467.823   -14790230.27349 -11507312.55947  21721467.551    21721471.466
       241.000         199.000
  20732213.071      260274.56049    208888.49648  20732212.668    20732217.158
       248.000         216.000
  23174520.224    11526366.26249   8969732.32846  23174518.904    23174523.029
       222.000         170.000
  20377689.577    -8547900.45949  -6642879.24248  20377688.810    20377692.855
       250.000         219.000
  24145673.486    -9376489.91549  -7298484.56745  24145672.829    24145676.728
       220.000         156.000
  23516777.081    10151539.36449   7906241.83946  23516776.874    23516781.943
       224.000         166.000
 02  7 12 12  2 30.0000000  0  7G10G30G24G 4G 5G 6G 9
  22391115.319   -13772173.65449 -10710768.01546  22391114.294    22391119.207
       232.000         181.000
  21707130.642   -14865572.90849 -11566021.09947  21707130.456    21707134.123
       241.000         200.000
  20740200.206      302247.23349    241594.47548  20740200.008    20740204.302
       248.000         216.000
  23192931.705    11623119.47449   9045124.38546  23192930.748    23192935.818
       225.000         169.000
  20373995.358    -8567313.83049  -6658006.52948  20373994.437    20373998.509
       249.000         219.000
  24132247.264    -9447044.78649  -7353462.32045  24132246.413    24132252.217
       220.000         158.000
  23533914.127    10241594.40549   7976414.57646  23533914.180    23533918.385
       223.000         166.000
 02  7 12 12  3  0.0000000  0  7G10G30G24G 4G 5G 6G 9
  22374248.372   -13860810.07149 -10779835.31646  22374247.431    22374251.846
       231.000         181.000
  21692856.685   -14940582.94549 -11624470.47147  21692856.168    21692860.009
       241.000         200.000
  20748260.002      344601.23249    274597.58348  20748259.539    20748263.949
       247.000         216.000
  23211363.699    11719979.97449   9120600.06646  23211363.937    23211366.828
       229.000         171.000
  20370396.345    -8586226.49449  -6672743.66348  20370395.429    20370399.358
       249.000         219.000
  24118824.458    -9517582.64449  -7408426.82645  24118823.446    24118827.966
       221.000         160.000
  23551072.135    10331760.32149   8046673.70646  23551071.572    23551076.857
       225.000         166.000
 02  7 12 12  3 30.0000000  0  7G10G30G24G 4G 5G 6G 9
  22357436.954   -13949154.79549 -10848675.32346  22357436.329    22357440.367
       232.000         181.000
  21678646.343   -15015258.25049 -11682659.01847  21678646.635    21678649.651
       242.000         200.000
  20756391.700      387334.01049    307895.85448  20756390.750    20756396.010
       246.000         215.000
  23229815.553    11816944.85849   9196157.08246  23229815.953    23229819.108
       226.000         173.000
  20366892.780    -8604637.89549  -6687090.19748  20366891.814    20366896.041
       249.000         219.000
  24105404.559    -9588104.08349  -7463378.55445  24105404.076    24105408.323
       221.000         160.000
  23568250.567    10422033.32849   8117016.28046  23568250.520    23568256.063
       224.000         167.000
 02  7 12 12  4  0.0000000  0  7G10G30G24G 4G 5G 6G 9
  22340681.926   -14037203.01149 -10917284.28746  22340680.539    22340685.385
       232.000         182.000
  21664500.488   -15089595.35449 -11740584.02147  21664499.969    21664503.757
       241.000         200.000
  20764595.363      430444.82049    341488.69548  20764594.870    20764599.664
       248.000         215.000
  23248286.990    11914013.21649   9271794.69546  23248285.867    23248291.190
       223.000         172.000
  20363485.030    -8622545.50249  -6701044.17448  20363484.223    20363488.098
       249.000         219.000
  24091988.139    -9658607.98349  -7518316.56645  24091987.344    24091991.339
       220.000         160.000
  23585448.896    10512411.54549   8187440.84046  23585448.264    23585452.160
       225.000         167.000
 02  7 12 12  4 30.0000000  0  7G10G30G24G 4G 5G 6G 9
  22323983.722   -14124952.33849 -10985660.35146  22323982.788    22323987.156
       233.000         182.000
  21650419.239   -15163592.41249 -11798244.06347  21650419.167    21650422.690
       241.000         200.000
  20772870.440      473930.62349    375373.72848  20772870.191    20772874.747
       248.000         215.000
  23266777.729    12011182.11449   9347510.67546  23266778.564    23266781.769
       226.000         172.000
  20360173.261    -8639948.90349  -6714605.25548  20360172.416    20360176.518
       249.000         219.000
  24078574.776    -9729095.34249  -7573241.71845  24078573.910    24078579.623
       219.000         160.000
  23602666.658    10602891.51949   8257944.69246  23602666.694    23602671.593
       224.000         168.000
 02  7 12 12  5  0.0000000  0  7G10G30G24G 4G 5G 6G 9
  22307342.897   -14212400.37649 -11053801.64046  22307341.579    22307346.430
       233.000         183.000
  21636403.105   -15237247.73149 -11855637.80547  21636402.820    21636406.517
       241.000         201.000
  20781216.508      517788.98549    409549.06548  20781215.994    20781220.624
       247.000         215.000
  23285286.946    12108448.44749   9423302.59146  23285287.391    23285291.121
       228.000         173.000
  20356957.548    -8656847.68249  -6727773.13048  20356956.692    20356960.538
       249.000         219.000
  24065164.304    -9799566.81349  -7628154.50645  24065163.774    24065168.475
       219.000         160.000
  23619903.157    10693469.62549   8328525.00346  23619903.171    23619907.471
       225.000         168.000
 02  7 12 12  5 30.0000000  0  7G10G30G24G 4G 5G 6G 9
  22290760.179   -14299542.80549 -11121704.80046  22290759.548    22290763.396
       233.000         184.000
  21622452.660   -15310557.83749 -11912762.55247  21622452.697    21622456.224
       241.000         201.000
  20789633.089      562018.53849    444013.64048  20789632.427    20789637.145
       247.000         215.000
  23303814.426    12205811.25949   9499169.68046  23303814.625    23303817.792
       226.000         172.000
  20353838.249    -8673239.54549  -6740546.00248  20353837.412    20353841.565
       249.000         219.000
  24051757.333    -9870021.18249  -7683053.97245  24051757.445    24051761.294
       218.000         159.000
  23637157.987    10784143.92649   8399180.28146  23637158.056    23637162.632
       224.000         169.000
 02  7 12 12  6  0.0000000  0  7G10G30G24G 4G 5G 6G 9
  22274236.139   -14386376.97049 -11189367.74746  22274235.168    22274239.959
       233.000         185.000
  21608568.272   -15383520.89349 -11969616.87147  21608568.259    21608571.794
       242.000         202.000
  20798119.816      606616.42049    478765.22748  20798119.491    20798124.189
       247.000         215.000
  23322359.688    12303267.43249   9575109.49446  23322358.767    23322363.229
       225.000         171.000
  20350815.588    -8689123.71849  -6752923.27848  20350814.754    20350818.805
       250.000         219.000
  24038353.309    -9940459.30149  -7737940.75945  24038352.405    24038356.601
       216.000         158.000
  23654430.372    10874910.66649   8469907.59446  23654429.789    23654434.796
       225.000         170.000
 02  7 12 12  6 30.0000000  0  7G10G30G24G 4G 5G 6G 9
  22257771.621   -14472898.50949 -11256787.10446  22257770.716    22257775.139
       233.000         185.000
  21594750.605   -15456133.42049 -12026198.04447  21594750.555    21594754.248
       242.000         202.000
  20806676.460      651581.76949    513803.15648  20806675.838    20806680.733
       247.000         215.000
  23340922.451    12400815.71549   9651121.11146  23340922.546    23340926.316
       224.000         170.000
  20347890.008    -8704498.02649  -6764903.25048  20347888.900    20347893.034
       248.000         219.000
  24024952.530   -10010880.23949  -7792814.14745  24024951.502    24024957.024
       215.000         158.000
  23671719.986    10965767.74649   8540705.27846  23671719.180    23671724.247
       224.000         170.000
 02  7 12 12  7  0.0000000  0  7G10G30G24G 4G 5G 6G 9
  22241367.009   -14559105.30249 -11323961.19746  22241365.803    22241370.867
       234.000         186.000
  21580999.817   -15528393.96749 -12082504.95247  21580999.675    21581003.346
       242.000         202.000
  20815302.332      696911.35849    549124.91448  20815301.527    20815306.592
       247.000         215.000
  23359502.354    12498453.04849   9727202.10046  23359501.673    23359507.255
       223.000         169.000
  20345061.305    -8719362.51049  -6776485.96448  20345060.568    20345064.576
       249.000         219.000
  24011554.849   -10081284.92249  -7847674.87545  24011554.707    24011559.713
       215.000         158.000
  23689025.894    11056711.21949   8611570.29346  23689024.849    23689031.771
       224.000         170.000
 02  7 12 12  7 30.0000000  0  7G10G30G24G 4G 5G 6G 9
  22225023.066   -14644993.53849 -11390887.06446  22225021.808    22225026.233
       233.000         186.000
  21567316.694   -15600299.40249 -12138535.15747  21567317.057    21567319.624
       243.000         202.000
  20823997.365      742603.88349    584729.47248  20823997.097    20824001.468
       247.000         215.000
  23378098.819    12596178.28149   9803351.56046  23378097.770    23378103.013
       221.000         167.000
  20342330.116    -8733715.27249  -6787669.93248  20342328.979    20342333.253
       248.000         219.000
  23998160.611   -10151672.48149  -7902522.26245  23998161.029    23998164.935
       216.000         158.000
  23706347.969    11147739.09949   8682501.08946  23706347.397    23706353.330
       224.000         170.000
 02  7 12 12  8  0.0000000  0  7G10G30G24G 4G 5G 6G 9
  22208740.154   -14730560.64449 -11457562.71046  22208738.910    22208744.051
       234.000         185.000
  21553701.431   -15671848.05949 -12194287.34347  21553701.383    21553705.363
       243.000         203.000
  20832760.904      788656.29849    620614.46448  20832760.660    20832765.048
       248.000         215.000
  23396711.401    12693988.05349   9879566.92346  23396710.894    23396715.072
       223.000         164.000
  20339696.276    -8747556.05649  -6798454.95948  20339695.452    20339699.423
       248.000         218.000
  23984769.299   -10222043.69949  -7957356.90345  23984768.520    23984773.596
       215.000         157.000
  23723685.235    11238847.54749   8753494.64546  23723685.534    23723690.932
       223.000         170.000
 02  7 12 12  8 30.0000000  0  7G10G30G24G 4G 5G 6G 9
  22192519.211   -14815802.15249 -11523984.63446  22192517.830    22192522.593
       233.000         185.000
  21540154.782   -15743036.36549 -12249758.74347  21540154.751    21540158.305
       243.000         203.000
  20841592.685      835067.66449    656779.16248  20841592.096    20841596.722
       247.000         215.000
  23415339.973    12791881.49549   9955847.47046  23415340.147    23415343.637
       223.000         165.000
  20337160.276    -8760882.71149  -6808839.36448  20337159.507    20337163.740
       250.000         219.000
  23971381.351   -10292397.42549  -8012177.92445  23971380.718    23971384.814
       217.000         157.000
  23741037.666    11330034.70449   8824549.54546  23741038.601    23741042.105
       221.000         169.000
 02  7 12 12  9  0.0000000  0  7G10G30G24G 4G 5G 6G 9
  22176360.396   -14900717.04949 -11590152.05546  22176359.316    22176363.914
       234.000         185.000
  21526676.814   -15813863.95249 -12304949.05247  21526676.532    21526679.834
       243.000         203.000
  20850491.974      881834.05049    693220.50048  20850491.315    20850496.298
       247.000         214.000
  23433983.753    12889854.49749  10032190.01846  23433982.951    23433989.494
       218.000         164.000
  20334721.956    -8773696.28049  -6818823.96148  20334721.145    20334724.959
       249.000         219.000
  23957996.602   -10362735.65349  -8066986.88045  23957996.424    23958001.040
       219.000         158.000
  23758404.000    11421295.53249   8895661.83146  23758403.030    23758409.702
       220.000         168.000
 02  7 12 12  9 30.0000000  0  7G10G30G24G 4G 5G 6G 9
  22160264.674   -14985300.10649 -11656060.89746  22160263.609    22160268.743
       233.000         185.000
  21513268.151   -15884326.18149 -12359854.67247  21513267.835    21513271.662
       242.000         203.000
  20859458.834      928955.25749    729938.32348  20859458.347    20859463.034
       247.000         214.000
  23452642.343    12987906.97949  10108594.48946  23452642.334    23452645.881
       220.000         165.000
  20332381.851    -8785993.48749  -6828406.19748  20332380.996    20332385.229
       249.000         219.000
  23944614.923   -10433056.54349  -8121782.33945  23944613.719    23944619.580
       215.000         157.000
  23775784.184    11512629.18149   8966830.87746  23775783.797    23775789.473
       221.000         168.000
 02  7 12 12 10  0.0000000  0  7G10G30G24G 4G 5G 6G 9
  22144232.787   -15069548.18949 -11721708.72846  22144232.237    22144236.502
       232.000         185.000
  21499929.570   -15954420.87949 -12414473.90647  21499929.349    21499932.905
       243.000         203.000
  20868492.721      976428.64549    766930.56948  20868492.233    20868496.867
       247.000         215.000
  23471315.698    13086036.57849  10185059.06246  23471315.746    23471319.657
       223.000         165.000
  20330140.186    -8797773.64349  -6837585.54248  20330139.447    20330143.427
       249.000         219.000
  23931236.494   -10503360.18749  -8176564.34445  23931236.500    23931239.289
       216.000         156.000
  23793177.678    11604032.49449   9038054.20346  23793177.726    23793183.000
       220.000         168.000
 02  7 12 12 10 30.0000000  0  7G10G30G24G 4G 5G 6G 9
  22128265.074   -15153458.91049 -11787093.67146  22128263.762    22128269.051
       233.000         185.000
  21486661.189   -16024146.60249 -12468805.62447  21486660.804    21486664.588
       243.000         204.000
  20877593.172     1024251.64949    804195.24848  20877592.823    20877597.436
       248.000         215.000
  23490003.252    13184240.24549  10261581.38446  23490002.739    23490007.664
       222.000         166.000
  20327996.945    -8809036.61149  -6846361.87448  20327995.931    20328000.191
       249.000         219.000
  23917861.177   -10573647.47449  -8231333.60045  23917860.300    23917865.144
       219.000         155.000
  23810583.618    11695501.86249   9109329.01046  23810582.956    23810589.067
       221.000         168.000
 02  7 12 12 11  0.0000000  0  7G10G30G24G 4G 5G 6G 9
  22112362.186   -15237028.89849 -11852213.11046  22112361.151    22112366.123
       233.000         186.000
  21473463.456   -16093500.53449 -12522847.64747  21473463.401    21473466.844
       243.000         204.000
  20886759.760     1072422.38649    841730.88648  20886759.247    20886764.124
       247.000         215.000
  23508704.498    13282516.07949  10338159.92446  23508704.183    23508709.421
       223.000         165.000
  20325952.344    -8819780.93249  -6854734.07148  20325951.377    20325955.430
       249.000         219.000
  23904489.048   -10643918.12149  -8286089.94145  23904488.447    23904493.377
       219.000         156.000
  23828001.734    11787034.34549   9180652.98646  23828000.898    23828007.585
       222.000         168.000
 02  7 12 12 11 30.0000000  0  7G10G30G24G 4G 5G 6G 9
  22096524.910   -15320254.79849 -11917064.43546  22096523.385    22096528.348
       233.000         186.000
  21460337.066   -16162480.12949 -12576597.96747  21460337.408    21460340.458
       243.000         204.000
  20895992.006     1120938.57749    879535.71848  20895991.536    20895996.115
       247.000         214.000
  23527419.164    13380862.19749  10414793.19146  23527418.697    23527423.687
       221.000         164.000
  20324006.638    -8830005.59249  -6862701.33148  20324005.664    20324009.870
       248.000         219.000
  23891120.137   -10714171.88249  -8340833.09645  23891119.562    23891124.029
       221.000         157.000
  23845431.336    11878627.16149   9252023.96946  23845430.982    23845437.136
       223.000         168.000
 02  7 12 12 12  0.0000000  0  7G10G30G24G 4G 5G 6G 9
  22080753.460   -15403133.65749 -11981645.34546  22080752.023    22080757.836
       233.000         186.000
  21447282.446   -16231083.02149 -12630054.75847  21447282.555    21447285.887
       244.000         204.000
  20905289.572     1169797.85049    917607.87748  20905289.119    20905293.674
       247.000         214.000
  23546146.825    13479276.54949  10491479.63946  23546147.241    23546150.804
       222.000         163.000
  20322159.963    -8839709.91649  -6870263.13748  20322159.092    20322163.141
       248.000         219.000
  23877754.588   -10784408.76349  -8395563.11945  23877755.174    23877758.243
       222.000         159.000
  23862871.779    11970277.40349   9323439.72046  23862870.838    23862876.155
       223.000         167.000
 02  7 12 12 12 30.0000000  0  7G10G30G24G 4G 5G 6G 9
  22065048.861   -15485661.84749 -12045953.00846  22065048.115    22065052.285
       233.000         187.000
  21434299.977   -16299306.34249 -12683215.77747  21434299.923    21434303.124
       243.000         204.000
  20914652.216     1218998.75449    955946.23948  20914652.058    20914656.242
       247.000         214.000
  23564887.255    13577757.38149  10568217.90846  23564888.497    23564891.473
       224.000         164.000
  20320412.545    -8848892.47349  -6877418.37148  20320411.932    20320415.684
       249.000         219.000
  23864392.233   -10854628.25549  -8450279.57645  23864391.056    23864396.325
       219.000         160.000
  23880322.703    12061982.46149   9394898.17546  23880322.267    23880328.044
       224.000         166.000
 02  7 12 12 13  0.0000000  0  7G10G30G24G 4G 5G 6G 9
  22049411.486   -15567836.65149 -12109985.29946  22049409.951    22049414.795
       233.000         186.000
  21421390.081   -16367148.34449 -12736079.66547  21421390.350    21421393.455
       245.000         205.000
  20924079.429     1268538.65349    994548.75048  20924078.852    20924083.733
       247.000         214.000
  23583639.812    13676301.96649  10645005.86145  23583639.706    23583643.371
       221.000         162.000
  20318764.623    -8857552.84449  -6884166.69948  20318763.703    20318767.800
       249.000         219.000
  23851033.074   -10924830.93649  -8504982.95145  23851033.653    23851037.499
       223.000         161.000
  23897783.439    12153738.84249   9466396.64346  23897783.649    23897788.395
       223.000         164.000
 02  7 12 12 13 30.0000000  0  7G10G30G24G 4G 5G 6G 9
  22033842.008   -15649654.79049 -12173739.67746  22033840.829    22033845.842
       234.000         186.000
  21408553.268   -16434606.41049 -12788644.38747  21408553.087    21408556.943
       244.000         205.000
  20933570.680     1318415.73549   1033414.01448  20933569.951    20933575.140
       247.000         214.000
  23602403.888    13774908.60349  10721842.13445  23602403.326    23602407.842
       223.000         162.000
  20317216.183    -8865689.72349  -6890507.11848  20317215.305    20317219.372
       248.000         218.000
  23837677.239   -10995016.55149  -8559673.02145  23837675.980    23837680.812
       223.000         161.000
  23915253.360    12245543.95849   9537933.08446  23915253.664    23915259.174
       222.000         163.000
 02  7 12 12 14  0.0000000  0  7G10G30G24G 4G 5G 6G 9
  22018341.081   -15731112.62749 -12237213.29246  22018339.671    22018344.631
       234.000         186.000
  21395790.062   -16501677.59749 -12840907.64547  21395790.263    21395793.359
       245.000         205.000
  20943125.747     1368627.95949   1072540.41748  20943125.296    20943130.477
       247.000         214.000
  23621179.775    13873575.78449  10798725.60845  23621180.407    23621183.949
       223.000         162.000
  20315767.557    -8873301.92349  -6896438.69848  20315766.647    20315770.897
       249.000         219.000
  23824324.680   -11065184.62949  -8614349.41545  23824324.903    23824328.326
       223.000         161.000
  23932732.103    12337395.36349   9609505.59345  23932732.464    23932736.594
       223.000         162.000
 02  7 12 12 14 30.0000000  0  7G10G30G24G 4G 5G 6G 9
  22002909.021   -15812208.47849 -12300404.85346  22002908.244    22002913.027
       234.000         187.000
  21383100.581   -16568361.15549 -12892868.84847  21383100.288    21383104.060
       244.000         205.000
  20952743.869     1419171.47149   1111924.97248  20952743.448    20952748.273
       246.000         214.000
  23639966.438    13972299.67449  10875653.28546  23639966.482    23639970.406
       222.000         163.000
  20314418.728    -8880390.18749  -6901962.01248  20314417.821    20314421.898
       248.000         218.000
  23810975.176   -11135336.59649  -8669013.25345  23810973.976    23810979.919
       220.000         162.000
  23950219.063    12429288.70049   9681110.77645  23950218.609    23950224.346
       223.000         162.000
 02  7 12 12 15  0.0000000  0  7G10G30G24G 4G 5G 6G 9
  21987546.712   -15892937.89249 -12363310.86746  21987545.559    21987550.535
       235.000         187.000
  21370485.565   -16634653.19349 -12944524.98147  21370485.741    21370489.065
       245.000         206.000
  20962424.894     1470045.57349   1151567.12348  20962424.316    20962428.923
       246.000         213.000
  23658763.855    14071079.73149  10952624.70146  23658763.229    23658768.223
       223.000         163.000
  20313169.981    -8886952.21549  -6907075.26748  20313169.276    20313173.266
       249.000         218.000
  23797628.972   -11205471.03849  -8723663.44645  23797628.325    23797632.904
       219.000         162.000
  23967713.567    12521222.38649   9752747.37945  23967711.948    23967718.908
       220.000         161.000
 02  7 12 12 15 30.0000000  0  7G10G30G24G 4G 5G 6G 9
  21972254.566   -15973298.26249 -12425929.31747  21972253.535    21972258.012
       235.000         188.000
  21357945.507   -16700551.90849 -12995874.62847  21357945.242    21357948.617
       244.000         206.000
  20972168.330     1521247.90749   1191465.03948  20972167.690    20972172.503
       246.000         213.000
  23677571.470    14169913.52349  11029637.97446  23677571.518    23677575.791
       223.000         164.000
  20312021.490    -8892987.79949  -6911778.31448  20312020.741    20312024.726
       249.000         219.000
  23784285.960   -11275588.31749  -8778300.25445  23784286.421    23784290.899
       222.000         162.000
  23985214.875    12613192.94749   9824412.71645  23985214.162    23985220.388
       218.000         160.000
 02  7 12 12 16  0.0000000  0  8G10G30G24G 4G 5G 6G23G 9
  21957033.161   -16053286.94449 -12488258.14147  21957031.933    21957037.199
       234.000         188.000
  21345480.558   -16766055.13549 -13046916.10347  21345480.621    21345484.090
       245.000         206.000
  20981973.838     1572775.80749   1231616.64448  20981973.272    20981978.161
       246.000         213.000
  23696388.707    14268798.63749  11106691.26146  23696388.681    23696392.117
       219.000         164.000
  20310973.316    -8898496.23549  -6916070.59248  20310972.247    20310976.597
       248.000         219.000
  23770946.552   -11345688.62449  -8832923.83945  23770945.237    23770950.263
       219.000         162.000
  24464840.824    -3561267.79549  -2754704.11845  24464839.794    24464846.266
       203.000         136.000
  24002722.669    12705196.96249   9896104.11345  24002722.461    24002728.046
       218.000         159.000
 02  7 12 12 16 30.0000000  0  8G10G30G24G 4G 5G 6G23G 9
  21941883.289   -16132900.27349 -12550294.48147  21941881.861    21941887.219
       235.000         189.000
  21333091.491   -16831160.16149 -13097647.28547  21333091.128    21333094.613
       244.000         206.000
  20991840.901     1624627.73049   1272020.73348  20991840.461    20991845.148
       247.000         213.000
  23715215.315    14367733.46249  11183783.27245  23715214.928    23715217.456
       215.000         161.000
  20310025.563    -8903476.44749  -6919951.27048  20310024.752    20310028.545
       249.000         218.000
  23757609.823   -11415771.61949  -8887533.94545  23757608.430    23757614.299
       218.000         162.000
  24445388.379    -3663490.76549  -2834358.29145  24445387.490    24445393.770
       202.000         135.000
  24020236.336    12797232.27649   9967819.89145  24020235.407    24020241.694
       217.000         159.000
 02  7 12 12 17  0.0000000  0  8G10G30G24G 4G 5G 6G23G 9
  21926805.727   -16212133.08549 -12612034.31547  21926804.729    21926809.521
       235.000         189.000
  21320778.995   -16895862.69049 -13148064.84247  21320779.012    21320782.341
       245.000         206.000
  21001769.573     1676803.29849   1312677.00648  21001769.288    21001773.821
       246.000         213.000
  23734051.127    14466718.10549  11260914.05345  23734050.948    23734055.856
       216.000         160.000
  20309178.888    -8907925.68249  -6923418.20348  20309177.809    20309182.141
       248.000         219.000
  23744277.078   -11485835.18049  -8942128.90645  23744276.929    23744281.409
       220.000         162.000
  24425930.419    -3765742.58249  -2914034.94545  24425929.101    24425934.680
       201.000         136.000
  24037755.851    12889298.11749  10039559.46345  24037755.998    24037760.981
       217.000         159.000
 02  7 12 12 17 30.0000000  0  8G10G30G24G 4G 5G 6G23G 9
  21911800.873   -16290984.28149 -12673476.78647  21911799.907    21911804.659
       235.000         190.000
  21308543.184   -16960162.16149 -13198168.32447  21308543.193    21308546.512
       246.000         206.000
  21011758.980     1729298.03249   1353581.98947  21011758.402    21011763.180
       246.000         212.000
  23752895.956    14565748.58149  11338080.59045  23752897.611    23752900.092
       218.000         161.000
  20308433.025    -8911845.02949  -6926472.23248  20308432.225    20308436.170
       248.000         219.000
  23730947.914   -11555881.06749  -8996710.09546  23730947.647    23730951.989
       219.000         164.000
  24406467.218    -3868022.39349  -2993733.40945  24406465.436    24406472.196
       204.000         137.000
  24055280.413    12981389.42249  10111318.84945  24055279.497    24055286.176
       219.000         160.000
 02  7 12 12 18  0.0000000  0  8G10G30G24G 4G 5G 6G23G 9
  21896869.306   -16369450.27649 -12734619.10347  21896867.904    21896872.908
       236.000         190.000
  21296384.680   -17024055.76849 -13247955.53547  21296384.540    21296388.601
       245.000         207.000
  21021808.943     1782110.77849   1394734.76447  21021808.285    21021813.175
       246.000         212.000
  23771749.246    14664823.26649  11415281.55645  23771749.760    23771754.529
       218.000         162.000
  20307788.240    -8915233.38649  -6929112.50748  20307787.371    20307791.437
       248.000         219.000
  23717622.075   -11625908.55249  -9051276.94646  23717621.482    23717627.519
       220.000         164.000
  24386999.108    -3970327.03449  -3073451.21845  24386998.952    24387004.878
       214.000         146.000
  24072809.248    13073503.74049  10183096.17645  24072809.171    24072814.512
       221.000         161.000
 02  7 12 12 18 30.0000000  0  8G10G30G24G 4G 5G 6G23G 9
  21882011.531   -16447528.43949 -12795459.21547  21882010.309    21882015.887
       236.000         191.000
  21284303.677   -17087541.52849 -13297424.96347  21284303.713    21284307.002
       246.000         207.000
  21031918.847     1835238.91349   1436133.29547  21031918.246    21031923.422
       246.000         212.000
  23790610.561    14763940.15749  11492515.42145  23790610.753    23790615.141
       216.000         161.000
  20307244.593    -8918090.53649  -6931338.84948  20307243.758    20307247.762
       249.000         219.000
  23704299.854   -11695917.98949  -9105829.72346  23704299.455    23704303.788
       220.000         164.000
  24367526.864    -4072654.16549  -3153186.57045  24367526.143    24367532.434
       215.000         152.000
  24090341.727    13165637.92949  10254888.97245  24090341.813    24090347.711
       219.000         161.000
 02  7 12 12 19  0.0000000  0  8G10G30G24G 4G 5G 6G23G 9
  21867228.108   -16525215.69449 -12855994.71647  21867227.034    21867232.062
       236.000         191.000
  21272300.945   -17150616.85049 -13346574.55047  21272301.012    21272304.070
       247.000         208.000
  21042088.395     1888680.37149   1477775.97447  21042087.956    21042092.619
       246.000         212.000
  23809479.491    14863097.16349  11569780.53145  23809479.211    23809483.843
       216.000         159.000
  20306802.131    -8920415.38449  -6933150.42248  20306801.114    20306805.306
       248.000         218.000
  23690980.952   -11765909.00449  -9160368.17246  23690980.665    23690985.103
       219.000         164.000
  24348050.949    -4175001.01149  -3232937.26645  24348049.766    24348056.227
       217.000         154.000
  24107877.732    13257789.50349  10326695.33245  24107876.944    24107883.162
       219.000         161.000
 02  7 12 12 19 30.0000000  0  8G10G30G24G 4G 5G 6G23G 9
  21852519.716   -16602508.98949 -12916223.24847  21852518.796    21852523.435
       235.000         191.000
  21260376.598   -17213279.73149 -13395402.77047  21260376.348    21260380.115
       245.000         208.000
  21052317.185     1942432.85749   1519661.01347  21052316.844    21052321.849
       247.000         212.000
  23828355.953    14962292.51549  11647075.52645  23828355.643    23828360.110
       219.000         160.000
  20306461.079    -8922207.56649  -6934546.92448  20306460.310    20306464.303
       249.000         219.000
  23677665.554   -11835881.76349  -9214892.39046  23677665.263    23677669.975
       219.000         165.000
  24328571.677    -4277364.85049  -3312701.20245  24328570.871    24328577.000
       215.000         151.000
  24125416.316    13349955.38349  10398512.84645  24125415.852    24125421.522
       218.000         160.000
 02  7 12 12 20  0.0000000  0  8G10G30G24G 4G 5G 6G23G 9
  21837886.691   -16679405.67949 -12976142.73947  21837885.746    21837890.614
       236.000         191.000
  21248531.092   -17275528.11349 -13443908.00047  21248531.098    21248534.490
       247.000         208.000
  21062604.581     1996493.38149   1561786.07447  21062604.223    21062608.751
       247.000         212.000
  23847239.242    15061523.68049  11724398.44245  23847239.030    23847243.685
       221.000         160.000
  20306221.440    -8923466.86349  -6935528.19648  20306220.536    20306224.537
       248.000         218.000
  23664353.721   -11905836.68549  -9269402.72946  23664353.729    23664357.911
       223.000         166.000
  24309089.722    -4379743.56949  -3392476.77045  24309089.697    24309095.646
       213.000         152.000
  24142956.886    13442132.21149  10470338.89045  24142956.709    24142962.060
       219.000         161.000
 02  7 12 12 20 30.0000000  0  8G10G30G24G 4G 5G 6G23G 9
  21823329.781   -16755902.45549 -13035750.60547  21823328.934    21823333.883
       236.000         191.000
  21236765.009   -17337359.44949 -13492088.25447  21236764.994    21236768.250
       246.000         208.000
  21072950.272     2050860.24649   1604149.84947  21072949.641    21072954.656
       246.000         212.000
  23866128.915    15160788.82749  11801747.85045  23866128.653    23866133.002
       221.000         159.000
  20306083.359    -8924192.25249  -6936093.43748  20306082.482    20306086.582
       248.000         218.000
  23651045.327   -11975773.30149  -9323898.79646  23651044.473    23651049.900
       220.000         166.000
  24289605.287    -4482134.24249  -3472261.60845  24289603.697    24289610.756
       216.000         151.000
  24160499.216    13534317.55749  10542171.57245  24160498.915    24160504.654
       220.000         161.000
 02  7 12 12 21  0.0000000  0  8G10G30G24G 4G 5G 6G23G 9
  21808849.729   -16831995.61249 -13095043.96547  21808849.108    21808853.466
       237.000         192.000
  21225078.801   -17398770.74149 -13539941.19547  21225078.364    21225082.302
       246.000         208.000
  21083353.971     2105532.01249   1646751.20247  21083353.638    21083358.425
       247.000         212.000
  23885024.820    15260086.90349  11879122.97345  23885025.171    23885028.170
       223.000         158.000
  20306047.222    -8924382.28849  -6936241.52048  20306046.596    20306050.603
       249.000         219.000
  23637740.292   -12045690.73749  -9378379.89946  23637739.983    23637744.956
       221.000         166.000
  24270119.406    -4584533.18649  -3552052.97145  24270118.177    24270125.351
       214.000         150.000
  24178042.709    13626509.05349  10614009.05345  24178041.900    24178048.658
       220.000         161.000
 02  7 12 12 21 30.0000000  0  8G10G30G24G 4G 5G 6G23G 9
  21794447.019   -16907682.47249 -13154020.72547  21794445.969    21794451.041
       237.000         193.000
  21213472.868   -17459760.20249 -13587465.44747  21213472.978    21213476.355
       247.000         209.000
  21093815.171     2160505.85349   1689587.94247  21093814.836    21093819.575
       247.000         212.000
  23903926.776    15359415.42049  11956521.79245  23903928.585    23903931.926
       223.000         157.000
  20306112.951    -8924037.08249  -6935972.53448  20306112.131    20306116.343
       248.000         219.000
  23624438.994   -12115589.40749  -9432846.40146  23624438.252    23624443.603
       221.000         165.000
  24250632.192    -4686938.55549  -3631849.29545  24250630.648    24250637.018
       219.000         149.000
  24195586.764    13718703.39549  10685848.77245  24195586.234    24195592.319
       218.000         161.000
 02  7 12 12 22  0.0000000  0  8G10G30G24G 4G 5G 6G23G 9
  21780122.237   -16982959.85049 -13212678.41747  21780121.346    21780125.842
       237.000         194.000
  21201947.833   -17520325.03749 -13634658.81447  21201947.697    21201951.402
       246.000         209.000
  21104333.592     2215780.33049   1732658.94547  21104333.264    21104337.959
       247.000         212.000
  23922833.941    15458773.30749  12033943.47745  23922834.216    23922837.238
       221.000         155.000
  20306280.699    -8923155.54749  -6935285.63048  20306279.835    20306283.926
       248.000         218.000
  23611141.468   -12185468.57349  -9487297.70946  23611141.827    23611145.579
       222.000         166.000
  24231144.534    -4789347.12649  -3711648.13345  24231143.988    24231148.233
       216.000         147.000
  24213130.977    13810898.30549  10757688.93145  24213131.078    24213136.940
       222.000         161.000
 02  7 12 12 22 30.0000000  0  8G10G30G24G 4G 5G 6G23G 9
  21765875.859   -17057825.02449 -13271014.90747  21765875.118    21765879.633
       238.000         194.000
  21190503.882   -17580463.22949 -13681519.74147  21190503.600    21190506.927
       247.000         209.000
  21114908.745     2271352.82249   1775962.16747  21114908.473    21114913.033
       247.000         212.000
  23941746.030    15558157.82149  12111385.90345  23941744.585    23941751.622
       217.000         154.000
  20306550.553    -8921737.52449  -6934180.68048  20306549.948    20306553.894
       248.000         218.000
  23597847.585   -12255328.56249  -9541734.07846  23597847.260    23597852.016
       222.000         166.000
  24211656.562    -4891756.49549  -3791447.55345  24211656.099    24211662.881
       211.000         145.000
  24230674.780    13903090.50349  10829526.95845  24230673.973    24230679.959
       221.000         160.000
 02  7 12 12 23  0.0000000  0  8G10G30G24G 4G 5G 6G23G 9
  21751708.570   -17132274.83349 -13329027.73647  21751707.406    21751712.391
       237.000         195.000
  21179141.622   -17640172.34949 -13728046.32047  21179141.555    21179145.288
       247.000         209.000
  21125540.240     2327221.42949   1819496.12447  21125539.983    21125544.675
       246.000         211.000
  23960663.188    15657567.87649  12188848.23645  23960662.568    23960667.698
       214.000         151.000
  20306922.685    -8919782.22149  -6932657.07448  20306921.811    20306926.076
       248.000         219.000
  23584557.441   -12325168.95449  -9596155.16546  23584556.531    23584560.749
       223.000         167.000
  24192169.146    -4994163.45849  -3871245.12545  24192168.390    24192173.609
       208.000         141.000
  24248217.342    13995277.64649  10901361.07145  24248216.929    24248222.297
       219.000         158.000
 02  7 12 12 23 30.0000000  0  8G10G30G24G 4G 5G 6G23G 9
  21737620.765   -17206306.61149 -13386714.83247  21737619.529    21737624.446
       238.000         194.000
  21167861.402   -17699450.31149 -13774236.94747  21167861.594    21167864.483
       247.000         210.000
  21136227.603     2383383.60249   1863258.83647  21136226.955    21136231.758
       247.000         211.000
  23979584.658    15757000.98949  12266328.48145  23979584.449    23979588.368
       215.000         152.000
  20307397.027    -8917289.51149  -6930714.71648  20307396.292    20307400.294
       248.000         218.000
  23571270.892   -12394989.87949  -9650561.08546  23571269.760    23571275.087
       221.000         167.000
  24172682.405    -5096565.73749  -3951039.06745  24172680.891    24172687.811
       211.000         139.000
  24265758.439    14087456.56849  10973188.74945  24265758.475    24265764.311
       218.000         157.000
 02  7 12 12 24  0.0000000  0  8G10G30G24G 4G 5G 6G23G 9
  21723613.311   -17279916.22249 -13444072.96247  21723611.966    21723617.205
       237.000         194.000
  21156663.890   -17758293.81549 -13820089.02247  21156664.016    21156667.435
       248.000         210.000
  21146970.596     2439838.34249   1907249.52147  21146970.017    21146974.946
       246.000         211.000
  23998510.358    15856456.41749  12343826.15145  23998511.366    23998514.098
       215.000         151.000
  20307973.938    -8914257.66349  -6928352.24348  20307973.213    20307977.121
       248.000         218.000
  23557988.216   -12464790.07949  -9704950.85146  23557988.024    23557991.326
       224.000         167.000
  24153197.548    -5198959.45049  -4030826.31245  24153197.200    24153201.524
       208.000         141.000
  24283297.635    14179625.39949  11045008.61145  24283296.274    24283302.087
       215.000         155.000
 02  7 12 12 24 30.0000000  0  8G10G30G24G 4G 5G 6G23G 9
  21709686.423   -17353102.45449 -13501101.18747  21709685.378    21709689.994
       237.000         194.000
  21145549.087   -17816702.53549 -13865602.30647  21145549.001    21145552.170
       247.000         211.000
  21157768.449     2496581.58049   1951465.00647  21157767.822    21157772.369
       246.000         211.000
  24017439.602    15955930.31949  12421338.18745  24017439.423    24017444.937
       212.000         151.000
  20308653.237    -8910688.14549  -6925570.80848  20308652.303    20308656.562
       248.000         219.000
  23544709.449   -12534571.29249  -9759325.82946  23544709.557    23544713.765
       222.000         167.000
  24133714.309    -5301343.77749  -4110606.22645  24133713.418    24133718.742
       209.000         140.000
  24300833.907    14271779.65949  11116817.06345  24300833.953    24300839.362
       217.000         154.000
 02  7 12 12 25  0.0000000  0  8G10G30G24G 4G 5G 6G23G 9
  21695840.888   -17425861.22849 -13557796.32847  21695839.913    21695844.851
       238.000         195.000
  21134517.716   -17874672.65149 -13910773.83147  21134517.778    21134521.268
       248.000         211.000
  21168621.077     2553612.50649   1995904.66347  21168620.789    21168625.236
       247.000         211.000
  24036372.237    16055422.54549  12498864.52945  24036373.295    24036376.697
       214.000         151.000
  20309435.174    -8906578.92549  -6922368.83948  20309434.161    20309438.265
       247.000         218.000
  23531434.498   -12604331.80249  -9813684.66846  23531434.267    23531438.470
       225.000         167.000
  24114233.855    -5403714.41849  -4190375.47645  24114232.094    24114239.665
       210.000         139.000
  24318367.337    14363917.92349  11188613.09645  24318366.625    24318372.758
       221.000         155.000
 02  7 12 12 25 30.0000000  0  8G10G30G24G 4G 5G 6G23G 9
  21682076.956   -17498191.11749 -13614157.27447  21682076.081    21682080.900
       238.000         195.000
  21123570.059   -17932203.59049 -13955603.13247  21123569.717    21123573.378
       247.000         211.000
  21179527.851     2610927.40249   2040565.59947  21179527.568    21179531.992
       247.000         211.000
  24055308.253    16154930.05449  12576402.75645  24055308.546    24055313.739
       215.000         154.000
  20310319.628    -8901931.18149  -6918747.22248  20310318.969    20310322.784
       249.000         218.000
  23518163.287   -12674072.80149  -9868028.31546  23518162.755    23518167.165
       223.000         167.000
  24094756.165    -5506070.08749  -4270133.08845  24094755.628    24094761.061
       214.000         143.000
  24335896.940    14456035.91949  11260393.32745  24335896.060    24335900.944
       219.000         153.000
 02  7 12 12 26  0.0000000  0  8G10G30G24G 4G 5G 6G23G 9
  21668395.443   -17570088.14749 -13670180.92647  21668394.303    21668398.952
       239.000         194.000
  21112706.435   -17989291.99549 -14000087.60447  21112706.348    21112709.575
       248.000         211.000
  21190488.305     2668524.97549   2085446.80647  21190487.591    21190492.784
       245.000         211.000
  24074246.607    16254451.41349  12653951.75945  24074247.245    24074251.425
       216.000         157.000
  20311306.800    -8896743.77149  -6914705.09448  20311305.856    20311310.092
       248.000         219.000
  23504895.850   -12743793.33449  -9922356.01446  23504894.960    23504900.167
       223.000         166.000
  24075281.902    -5608407.24149  -4349876.23245  24075280.450    24075287.434
       212.000         148.000
  24353422.187    14548131.81549  11332156.33545  24353420.698    24353426.776
       216.000         151.000
 02  7 12 12 26 30.0000000  0  8G10G30G24G 4G 5G 6G23G 9
  21654796.899   -17641548.84649 -13725864.58447  21654795.627    21654800.561
       239.000         194.000
  21101927.607   -18045935.30849 -14044225.25247  21101927.160    21101931.108
       247.000         211.000
  21201502.253     2726403.89849   2130547.24547  21201501.696    21201506.659
       246.000         210.000
  24093187.331    16353985.39949  12731510.64545  24093187.294    24093192.443
       217.000         158.000
  20312396.769    -8891015.78849  -6910241.74248  20312395.961    20312399.997
       248.000         218.000
  23491632.541   -12813492.79849  -9976667.29846  23491631.722    23491636.078
       223.000         166.000
  24055812.029    -5710722.62949  -4429602.48345  24055811.358    24055817.518
       218.000         152.000
  24370942.813    14640203.12349  11403900.18345  24370942.667    24370947.797
       215.000         151.000
 02  7 12 12 27  0.0000000  0  8G10G30G24G 4G 5G 6G23G 9
  21641281.769   -17712571.36149 -13781206.81047  21641280.473    21641285.149
       239.000         195.000
  21091233.680   -18102132.02549 -14088014.90847  21091233.713    21091237.084
       248.000         211.000
  21212569.173     2784561.17849   2175864.58447  21212568.924    21212573.669
       246.000         210.000
  24112129.969    16453529.58449  12809077.47145  24112130.609    24112134.062
       222.000         159.000
  20313589.609    -8884747.46049  -6905357.33948  20313588.835    20313592.880
       248.000         219.000
  23478373.094   -12883171.53049 -10030962.44146  23478371.572    23478376.415
       224.000         166.000
  24036346.577    -5813014.17149  -4509310.10745  24036345.864    24036352.023
       216.000         155.000
  24388458.084    14732246.69249  11475622.40845  24388457.262    24388463.132
       211.000         150.000
 02  7 12 12 27 30.0000000  0  8G10G30G24G 4G 5G 6G23G 9
  21627850.773   -17783151.88749 -13836204.61847  21627849.501    21627854.468
       239.000         195.000
  21080625.366   -18157879.08249 -14131454.17247  21080624.897    21080628.661
       248.000         211.000
  21223688.881     2842995.50149   2221397.79947  21223688.346    21223693.218
       245.000         209.000
  24131074.351    16553083.13049  12886651.61745  24131074.315    24131079.321
       222.000         161.000
  20314885.496    -8877937.57849  -6900050.95048  20314884.598    20314888.851
       248.000         218.000
  23465117.883   -12952828.43349 -10085240.56246  23465117.387    23465121.775
       220.000         165.000
  24016886.437    -5915278.22249  -4588996.33145  24016886.096    24016891.574
       219.000         157.000
  24405967.573    14824260.40449  11547321.37045  24405966.641    24405972.801
       214.000         150.000
 02  7 12 12 28  0.0000000  0  8G10G30G24G 4G 5G 6G23G 9
  21614504.251   -17853288.01849 -13890856.14447  21614503.071    21614508.381
       239.000         196.000
  21070102.879   -18213174.75549 -14174541.71447  21070102.931    21070106.429
       248.000         211.000
  21234860.722     2901703.69749   2267144.42347  21234860.502    21234864.949
       246.000         209.000
  24150020.297    16652643.73249  12964231.24545  24150020.659    24150024.771
       220.000         160.000
  20316284.381    -8870586.45149  -6894322.80948  20316283.550    20316287.664
       248.000         218.000
  23451866.499   -13022463.97049 -10139502.03046  23451865.331    23451870.399
       220.000         165.000
  23997431.988    -6017512.65349  -4668659.47445  23997430.465    23997436.753
       218.000         156.000
  24423471.048    14916241.21949  11618994.70945  24423470.683    24423477.199
       215.000         153.000
 02  7 12 12 28 30.0000000  0  8G10G30G24G 4G 5G 6G23G 9
  21601242.808   -17922977.36749 -13945159.52947  21601241.991    21601246.545
       239.000         196.000
  21059666.706   -18268017.17049 -14217276.06447  21059666.496    21059670.029
       247.000         212.000
  21246084.280     2960683.66349   2313102.81047  21246083.952    21246088.672
       246.000         209.000
  24168966.967    16752209.20949  13041814.67045  24168965.893    24168972.164
       219.000         158.000
  20317786.263    -8862693.95249  -6888172.82548  20317785.660    20317789.625
       249.000         218.000
  23438619.417   -13092078.16649 -10193746.87546  23438618.642    23438623.304
       222.000         165.000
  23977983.336    -6119714.92849  -4748297.56445  23977982.568    23977989.511
       214.000         155.000
  24440967.576    15008185.81449  11690639.81245  24440967.860    24440973.538
       216.000         156.000
 02  7 12 12 29  0.0000000  0  8G10G30G24G 4G 5G 6G23G 9
  21588067.101   -17992216.00349 -13999111.70647  21588066.263    21588070.567
       240.000         197.000
  21049317.347   -18322403.16749 -14259654.76947  21049317.421    21049320.750
       248.000         211.000
  21257359.287     3019933.89349   2359271.80147  21257358.817    21257363.561
       246.000         209.000
  24187914.553    16851778.98749  13119401.46545  24187914.066    24187920.237
       217.000         157.000
  20319391.442    -8854258.89849  -6881600.06448  20319390.479    20319394.714
       248.000         219.000
  23425376.468   -13161669.94249 -10247974.23946  23425375.250    23425380.520
       222.000         165.000
  23958541.598    -6221881.19449  -4827907.58045  23958541.207    23958546.611
       217.000         155.000
  24458456.883    15100092.51849  11762255.35745  24458456.673    24458462.620
       215.000         156.000
 02  7 12 12 29 30.0000000  0  8G10G30G24G 4G 5G 6G23G 9
  21574977.597   -18061002.08949 -14052711.25047  21574976.275    21574981.211
       239.000         197.000
  21039055.171   -18376331.42949 -14301676.79047  21039055.165    21039058.372
       248.000         212.000
  21268685.170     3079451.60249   2405649.21247  21268684.496    21268689.465
       245.000         209.000
  24206862.246    16951350.29649  13196989.43345  24206861.069    24206867.562
       217.000         153.000
  20321099.692    -8845282.03049  -6874605.11848  20321099.056    20321102.948
       248.000         218.000
  23412137.685   -13231239.93249 -10302184.62946  23412137.824    23412142.165
       220.000         166.000
  23939107.292    -6324009.58149  -4907488.08445  23939105.872    23939112.408
       216.000         153.000
  24475938.298    15191957.84949  11833838.69245  24475938.770    24475943.887
       218.000         155.000
 02  7 12 12 30  0.0000000  0  8G10G30G24G 4G 5G 6G23G 9
  21561974.735   -18129332.51149 -14105955.72647  21561973.766    21561978.460
       239.000         197.000
  21028880.524   -18429799.62549 -14343340.32447  21028880.299    21028884.165
       247.000         212.000
  21280061.552     3139235.15749   2452233.77247  21280061.020    21280066.037
       245.000         209.000
  24225810.099    17050921.80249  13274577.60845  24225808.702    24225815.624
       216.000         150.000
  20322911.158    -8835762.73849  -6867187.50248  20322910.222    20322914.252
       248.000         218.000
  23398903.214   -13300787.45249 -10356377.50446  23398903.216    23398907.140
       222.000         167.000
  23919680.461    -6426096.98749  -4987036.65345  23919678.481    23919685.021
       211.000         150.000
  24493411.431    15283779.22249  11905387.74545  24493411.304    24493416.144
       218.000         155.000
 02  7 12 12 30 30.0000000  0  8G10G30G24G 4G 5G 6G23G 9
  21549059.171   -18197204.15849 -14158842.72147  21549058.137    21549062.843
       239.000         198.000
  21018793.820   -18482805.17249 -14384643.36147  21018793.692    21018797.028
       246.000         212.000
  21291488.143     3199282.34349   2499023.76447  21291487.640    21291492.410
       245.000         208.000
  24244757.675    17150491.99249  13352164.69645  24244757.474    24244763.226
       216.000         148.000
  20324825.974    -8825700.44649  -6859346.76348  20324825.146    20324829.343
       248.000         219.000
  23385673.157   -13370311.95049 -10410552.43746  23385673.135    23385677.394
       222.000         168.000
  23900262.126    -6528140.29649  -5066550.88245  23900261.283    23900267.230
       213.000         149.000
  24510875.667    15375554.31449  11976900.75445  24510875.264    24510881.596
       216.000         157.000
 02  7 12 12 31  0.0000000  0  8G10G30G24G 4G 5G 6G23G 9
  21536231.350   -18264614.78349 -14211370.47447  21536230.168    21536235.159
       239.000         198.000
  21008795.609   -18535346.41249 -14425584.58147  21008795.703    21008799.123
       247.000         212.000
  21302964.409     3259590.68649   2546017.24847  21302963.935    21302968.626
       244.000         208.000
  24263704.722    17250058.87549  13429749.20745  24263705.106    24263708.758
       212.000         144.000
  20326844.064    -8815095.25549  -6851082.99748  20326843.139    20326847.447
       247.000         218.000
  23372447.452   -13439813.52949 -10464709.50846  23372447.042    23372452.391
       222.000         169.000
  23880852.916    -6630137.09849  -5146028.86045  23880850.951    23880857.645
       212.000         149.000
  24528330.440    15467280.09849  12048375.34845  24528330.050    24528336.956
       218.000         157.000
 02  7 12 12 31 30.0000000  0  8G10G30G24G 4G 5G 6G23G 9
  21523491.816   -18331561.54849 -14263536.77747  21523490.578    21523495.513
       240.000         198.000
  20998886.053   -18587421.24749 -14466162.38747  20998886.004    20998889.494
       247.000         212.000
  21314489.953     3320157.85949   2593212.43647  21314489.366    21314494.514
       244.000         208.000
  24282650.662    17349620.57449  13507329.70545  24282652.170    24282655.341
       212.000         142.000
  20328965.423    -8803947.24549  -6842396.25348  20328964.801    20328968.813
       248.000         218.000
  23359226.046   -13509292.17449 -10518848.70646  23359225.655    23359229.582
       222.000         169.000
  23861452.852    -6732084.80849  -5225468.61045  23861451.801    23861457.396
       214.000         150.000
  24545775.531    15558953.91749  12119809.43045  24545775.783    24545782.529
       218.000         158.000
 02  7 12 12 32  0.0000000  0  8G10G30G24G 4G 5G 6G23G 9
  21510840.986   -18398042.47149 -14315340.08747  21510839.845    21510844.603
       240.000         198.000
  20989065.625   -18639028.28949 -14506375.66847  20989065.732    20989068.797
       247.000         212.000
  21326064.204     3380980.95649   2640607.02947  21326063.813    21326068.950
       245.000         208.000
  24301595.263    17449174.79649  13584904.31445  24301596.115    24301599.681
       213.000         144.000
  20331190.086    -8792256.88549  -6833286.89048  20331189.291    20331193.307
       248.000         218.000
  23346008.962   -13578748.25449 -10572970.32246  23346008.884    23346012.863
       226.000         170.000
  23842062.338    -6833981.28249  -5304868.42945  23842061.464    23842067.699
       214.000         151.000
  24563210.037    15650572.09649  12191200.16545  24563209.734    24563214.924
       216.000         156.000
 02  7 12 12 32 30.0000000  0  8G10G30G24G 4G 5G 6G23G 9
  21498279.519   -18464053.14649 -14366776.97847  21498278.452    21498283.189
       240.000         199.000
  20979334.800   -18690163.94049 -14546221.64247  20979334.649    20979338.341
       247.000         212.000
  21337687.070     3442059.39349   2688200.58547  21337686.737    21337691.786
       244.000         208.000
  24320538.567    17548721.44949  13662473.07345  24320537.272    24320542.722
       213.000         146.000
  20333518.170    -8780022.61449  -6823753.71548  20333517.479    20333521.713
       248.000         218.000
  23332796.708   -13648179.78849 -10627072.79846  23332796.101    23332800.897
       225.000         171.000
  23822682.655    -6935822.17549  -5384224.95645  23822681.171    23822688.130
       213.000         151.000
  24580633.664    15742133.51049  12262546.68645  24580634.121    24580639.434
       217.000         155.000
 02  7 12 12 33  0.0000000  0  8G10G30G24G 4G 5G 6G23G 9
  21485807.933   -18529591.89449 -14417846.12547  21485806.905    21485811.707
       240.000         199.000
  20969693.936   -18740826.98449 -14585699.34348  20969693.833    20969697.490
       247.000         213.000
  21349358.084     3503390.29049   2735990.87447  21349357.867    21349362.632
       244.000         208.000
  24339479.811    17648257.92149  13740033.93545  24339480.888    24339484.381
       215.000         147.000
  20335949.680    -8767245.22949  -6813797.32948  20335949.005    20335952.800
       248.000         218.000
  23319588.889   -13717587.53449 -10681156.75346  23319588.715    23319593.100
       225.000         172.000
  23803313.893    -7037605.47549  -5463536.58745  23803312.390    23803318.925
       214.000         151.000
  24598045.761    15833634.69149  12333846.22945  24598045.318    24598050.949
       212.000         152.000
 02  7 12 12 33 30.0000000  0  8G10G30G24G 4G 5G 6G23G 9
  21473426.714   -18594655.84049 -14468545.29847  21473425.387    21473430.630
       240.000         199.000
  20960143.466   -18791015.21349 -14624807.06548  20960143.644    20960147.083
       247.000         213.000
  21361076.710     3564971.74549   2783976.39347  21361076.365    21361081.367
       244.000         208.000
  24358418.832    17747782.64649  13817585.56845  24358418.328    24358424.247
       216.000         147.000
  20338484.564    -8753924.52349  -6803417.56748  20338483.691    20338487.966
       248.000         218.000
  23306385.724   -13786970.99349 -10735221.78846  23306385.975    23306389.552
       227.000         173.000
  23783956.641    -7139328.29249  -5542801.10845  23783956.140    23783961.038
       216.000         153.000
  24615446.020    15925073.10049  12405096.88445  24615445.152    24615451.052
       207.000         149.000
 02  7 12 12 34  0.0000000  0  8G10G30G24G 4G 5G 6G23G 9
  21461136.252   -18659242.34049 -14518872.43547  21461135.185    21461139.819
       239.000         199.000
  20950683.726   -18840726.45249 -14663543.10448  20950683.574    20950686.971
       247.000         213.000
  21372842.642     3626801.55849   2832155.44447  21372842.169    21372846.761
       244.000         208.000
  24377355.213    17847294.13349  13895126.94145  24377355.558    24377358.889
       215.000         149.000
  20341122.803    -8740060.30349  -6792614.29948  20341122.014    20341126.085
       248.000         218.000
  23293187.348   -13856329.90149 -10789267.68546  23293187.072    23293190.759
       227.000         173.000
  23764611.589    -7240987.79149  -5622016.25545  23764610.562    23764617.145
       218.000         155.000
  24632833.628    16016446.07749  12476296.54345  24632833.654    24632838.552
       213.000         148.000
 02  7 12 12 34 30.0000000  0  8G10G30G24G 4G 5G 6G23G 9
  21448937.162   -18723349.19449 -14568825.81947  21448936.180    21448940.742
       240.000         199.000
  20941315.094   -18889959.17249 -14701906.26948  20941315.209    20941318.723
       248.000         213.000
  21384655.183     3688876.92949   2880525.83647  21384654.532    21384659.184
       243.000         207.000
  24396288.676    17946790.18349  13972656.26645  24396288.801    24396294.821
       217.000         151.000
  20343864.415    -8725653.06349  -6781387.89648  20343863.556    20343867.894
       248.000         218.000
  23279993.324   -13925664.48549 -10843294.62546  23279992.217    23279996.944
       226.000         172.000
  23745278.818    -7342581.80549  -5701180.37745  23745277.606    23745283.541
       216.000         157.000
  24650208.468    16107750.65249  12547442.91745  24650208.066    24650213.831
       211.000         147.000
 02  7 12 12 35  0.0000000  0  8G10G30G24G 4G 5G 6G23G 9
  21436830.020   -18786972.30449 -14618402.26347  21436828.732    21436833.620
       239.000         199.000
  20932038.156   -18938709.84449 -14739893.81548  20932037.892    20932041.469
       248.000         214.000
  21396514.265     3751197.18949   2929087.05247  21396513.602    21396518.368
       244.000         207.000
  24415219.124    18046270.87049  14050173.62545  24415219.885    24415224.308
       218.000         151.000
  20346709.702    -8710701.04549  -6769736.99148  20346708.857    20346713.133
       248.000         218.000
  23266804.241   -13994972.73549 -10897301.04246  23266803.987    23266807.634
       226.000         172.000
  23725959.457    -7444105.73049  -5780289.89045  23725958.920    23725965.451
       220.000         159.000
  24667569.641    16198985.72249  12618535.11845  24667568.957    24667576.507
       207.000         144.000
 02  7 12 12 35 30.0000000  0  8G10G30G24G 4G 5G 6G23G 9
  21424815.343   -18850109.94949 -14667600.42247  21424814.280    21424819.029
       240.000         200.000
  20922853.233   -18986977.20649 -14777504.75348  20922853.510    20922856.527
       248.000         214.000
  21408419.467     3813759.89549   2977837.18047  21408418.870    21408423.841
       243.000         207.000
  24434146.689    18145733.77449  14127677.13145  24434146.592    24434150.676
       218.000         153.000
  20349658.499    -8695205.07149  -6757662.22648  20349657.645    20349661.844
       248.000         218.000
  23253620.136   -14064255.27849 -10951287.44246  23253619.444    23253624.717
       226.000         172.000
  23706653.984    -7545557.68749  -5859343.31346  23706652.706    23706659.511
       220.000         163.000
  24684917.339    16290147.60349  12689570.27645  24684916.598    24684922.387
       207.000         143.000
 02  7 12 12 36  0.0000000  0  8G10G30G24G 4G 5G 6G23G 9
  21412893.241   -18912760.64949 -14716419.14047  21412891.893    21412896.801
       241.000         200.000
  20913760.359   -19034760.57249 -14814738.55748  20913760.265    20913764.238
       248.000         214.000
  21420370.158     3876561.35049   3026773.35747  21420369.677    21420374.600
       244.000         206.000
  24453070.042    18245175.73449  14205164.30745  24453070.482    24453073.626
       218.000         153.000
  20352710.555    -8679166.52749  -6745164.67548  20352709.922    20352713.894
       249.000         218.000
  23240440.793   -14133513.09249 -11005254.56446  23240440.958    23240445.313
       225.000         172.000
  23687362.175    -7646936.09749  -5938339.45445  23687362.290    23687367.398
       218.000         162.000
  24702250.482    16381232.66049  12760545.62345  24702250.028    24702256.162
       211.000         142.000
 02  7 12 12 36 30.0000000  0  8G10G30G24G 4G 5G 6G23G 9
  21401064.784   -18974919.58949 -14764854.67947  21401063.852    21401068.630
       240.000         200.000
  20904760.396   -19082055.62449 -14851591.85748  20904760.226    20904763.546
       248.000         214.000
  21432366.297     3939601.41549   3075895.45847  21432366.232    21432370.879
       245.000         207.000
  24471989.409    18344597.63449  14282635.86945  24471989.274    24471993.850
       217.000         153.000
  20355866.258    -8662583.28949  -6732242.69048  20355865.388    20355869.747
       248.000         218.000
  23227266.783   -14202743.59649 -11059200.40646  23227266.458    23227271.256
       226.000         172.000
  23668085.484    -7748235.78149  -6017274.26445  23668084.106    23668090.573
       217.000         159.000
  24719568.783    16472240.55449  12831460.83045  24719568.949    24719574.680
       212.000         141.000
 02  7 12 12 37  0.0000000  0  8G10G30G24G 4G 5G 6G23G 9
  21389330.079   -19036586.13849 -14812906.53247  21389328.866    21389333.569
       241.000         200.000
  20895853.343   -19128862.47249 -14888064.73448  20895853.482    20895856.921
       249.000         214.000
  21444407.256     4002876.24049   3125200.48747  21444406.766    21444412.212
       244.000         207.000
  24490904.237    18443995.76149  14360088.91245  24490905.429    24490908.196
       214.000         153.000
  20359125.227    -8645457.42749  -6718897.87548  20359124.491    20359128.414
       248.000         218.000
  23214097.760   -14271948.52449 -11113126.32546  23214096.755    23214102.068
       224.000         171.000
  23648823.955    -7849456.04749  -6096147.16645  23648823.190    23648827.629
       217.000         159.000
  24736871.260    16563166.16549  12902311.89445  24736870.511    24736877.917
       209.000         142.000
 02  7 12 12 37 30.0000000  0  8G10G30G24G 4G 5G 6G23G 9
  21377689.741   -19097756.35249 -14860571.62647  21377688.704    21377693.592
       240.000         200.000
  20887039.919   -19175177.69149 -14924154.52548  20887039.763    20887043.477
       248.000         215.000
  21456492.653     4066385.01649   3174687.82247  21456492.269    21456497.218
       244.000         207.000
  24509814.643    18543370.19849  14437523.47145  24509813.129    24509819.921
       210.000         149.000
  20362487.717    -8627787.37149  -6705129.01748  20362486.574    20362491.143
       247.000         218.000
  23200933.595   -14341125.92049 -11167030.78946  23200932.838    23200938.165
       224.000         171.000
  23629578.313    -7950592.52849  -6174954.78345  23629577.654    23629583.463
       216.000         158.000
  24754157.965    16654008.69649  12973098.23245  24754157.563    24754162.718
       213.000         143.000
 02  7 12 12 38  0.0000000  0  8G10G30G24G 4G 5G 6G23G 9
  21366144.403   -19158427.54449 -14907847.88047  21366143.457    21366148.162
       241.000         200.000
  20878320.421   -19220998.83949 -14959859.33048  20878320.719    20878324.033
       250.000         215.000
  21468622.217     4130126.15949   3224356.20447  21468621.932    21468626.891
       244.000         207.000
  24528720.031    18642719.56049  14514938.49945  24528720.530    24528726.172
       212.000         147.000
  20365953.816    -8609572.91249  -6690935.95748  20365953.164    20365957.302
       248.000         218.000
  23187774.767   -14410275.13949 -11220913.29146  23187774.018    23187778.666
       224.000         171.000
  23610349.190    -8051642.03349  -6253694.61745  23610347.317    23610354.416
       216.000         160.000
  24771428.511    16744765.68749  13043817.92045  24771428.217    24771434.600
       212.000         143.000
 02  7 12 12 38 30.0000000  0  8G10G30G24G 4G 5G 6G23G 9
  21354694.245   -19218598.46049 -14954734.31247  21354692.854    21354698.167
       241.000         200.000
  20869695.050   -19266325.67949 -14995178.95248  20869694.761    20869698.379
       248.000         215.000
  21480795.323     4194096.01049   3274202.81247  21480794.915    21480799.641
       244.000         206.000
  24547620.181    18742040.92549  14592331.76745  24547621.665    24547622.924
       214.000         146.000
  20369523.151    -8590816.02449  -6676320.21248  20369522.313    20369526.869
       248.000         218.000
  23174621.137   -14479397.58649 -11274774.93446  23174620.534    23174625.043
       224.000         171.000
  23591136.974    -8152603.42049  -6332365.79745  23591137.036    23591141.737
       216.000         158.000
  24788681.942    16835433.06149  13114467.77345  24788681.723    24788686.956
       217.000         145.000
 02  7 12 12 39  0.0000000  0  8G10G30G24G 4G 5G 6G23G 9
  21343340.019   -19278265.19249 -15001227.86847  21343338.994    21343343.651
       242.000         201.000
  20861164.318   -19311154.86749 -15030110.79648  20861164.526    20861167.717
       249.000         216.000
  21493011.707     4258293.34149   3324226.66847  21493011.578    21493016.394
       244.000         206.000
  24566515.001    18841333.94149  14669702.86045  24566515.395    24566520.750
       210.000         145.000
  20373195.972    -8571515.26549  -6661280.68048  20373195.160    20373199.328
       248.000         218.000
  23161472.835   -14548491.43549 -11328614.29646  23161473.286    23161477.725
       225.000         171.000
  23571942.082    -8253472.51449  -6410965.07545  23571941.415    23571946.515
       216.000         157.000
  24805918.221    16926009.53449  13185046.79945  24805918.260    24805923.594
       215.000         146.000
 02  7 12 12 39 30.0000000  0  8G10G30G24G 4G 5G 6G23G 9
  21332082.073   -19337426.22749 -15047327.37347  21332080.888    21332085.634
       241.000         201.000
  20852728.630   -19355485.18649 -15064653.91448  20852728.367    20852732.125
       248.000         216.000
  21505270.870     4322715.59049   3374425.79047  21505270.241    21505274.885
       242.000         205.000
  24585404.219    18940596.37049  14747050.20245  24585404.988    24585409.910
       211.000         142.000
  20376972.132    -8551671.68649  -6645818.17148  20376971.436    20376975.530
       248.000         218.000
  23148330.270   -14617556.98149 -11382431.60846  23148330.384    23148334.349
       228.000         172.000
  23552765.099    -8354247.23449  -6489490.80745  23552763.871    23552770.304
       218.000         156.000
  24823136.389    17016492.10549  13255552.67745  24823137.170    24823141.999
       220.000         148.000
 02  7 12 12 40  0.0000000  0  8G10G30G24G 4G 5G 6G23G 9
  21320920.714   -19396079.41949 -15093031.15647  21320919.585    21320924.593
       242.000         202.000
  20844388.053   -19399315.18849 -15098807.17448  20844388.320    20844391.211
       249.000         216.000
  21517572.372     4387360.02749   3424798.05547  21517572.015    21517576.803
       244.000         205.000
  24604287.159    19039826.28749  14824372.16645  24604286.697    24604291.604
       214.000         144.000
  20380851.511    -8531285.69749  -6629932.99748  20380850.841    20380854.719
       248.000         218.000
  23135193.135   -14686594.32849 -11436226.93246  23135193.299    23135198.463
       225.000         173.000
  23533606.879    -8454925.07249  -6567941.05245  23533606.443    23533611.376
       217.000         156.000
  24840336.204    17106877.54849  13325982.85945  24840335.633    24840340.978
       214.000         151.000
 02  7 12 12 40 30.0000000  0  8G10G30G24G 4G 5G 6G23G 9
  21309856.709   -19454221.36649 -15138336.56847  21309855.774    21309860.492
       243.000         203.000
  20836143.294   -19442641.91249 -15132568.26948  20836143.188    20836146.988
       249.000         216.000
  21529916.048     4452226.33549   3475343.18747  21529915.580    21529920.160
       243.000         205.000
  24623163.995    19139023.41849  14901668.58645  24623164.238    24623167.783
       213.000         143.000
  20384834.247    -8510356.41749  -6613624.48448  20384833.284    20384837.610
       247.000         217.000
  23122061.410   -14755601.92749 -11489999.08546  23122060.471    23122065.277
       226.000         173.000
  23514467.546    -8555502.03449  -6646312.72345  23514465.894    23514471.831
       219.000         157.000
  24857517.439    17197164.39549  13396336.18045  24857517.609    24857523.189
       219.000         152.000
 02  7 12 12 41  0.0000000  0  8G10G30G24G 4G 5G 6G23G 9
  21298890.191   -19511850.74549 -15183242.57447  21298889.276    21298893.689
       242.000         203.000
  20827994.357   -19485464.82249 -15165936.78448  20827994.230    20827997.678
       249.000         216.000
  21542301.258     4517310.85449   3526058.37847  21542300.726    21542305.801
       242.000         204.000
  24642033.885    19238184.74549  14978937.09745  24642033.535    24642038.971
       210.000         142.000
  20388919.926    -8488885.58849  -6596893.98948  20388919.245    20388923.350
       248.000         217.000
  23108935.256   -14824580.71949 -11543748.78846  23108934.897    23108939.001
       227.000         173.000
  23495347.850    -8655976.58349  -6724604.57345  23495346.660    23495352.162
       220.000         157.000
  24874679.032    17287348.89849  13466609.75145  24874678.179    24874685.141
       220.000         153.000
 02  7 12 12 41 30.0000000  0  8G10G30G24G 4G 5G 6G23G 9
  21288021.874   -19568964.17949 -15227746.54847  21288020.780    21288025.343
       243.000         203.000
  20819941.875   -19527780.87649 -15198910.34448  20819942.104    20819945.387
       250.000         216.000
  21554727.576     4582611.97149   3576942.32847  21554727.183    21554732.080
       242.000         204.000
  24660896.752    19337310.05049  15056177.50745  24660897.346    24660902.520
       215.000         144.000
  20393108.942    -8466872.41549  -6579740.88148  20393108.065    20393112.390
       248.000         218.000
  23095814.900   -14893529.17249 -11597474.86146  23095813.761    23095818.522
       228.000         173.000
  23476248.434    -8756344.87649  -6802813.60845  23476247.212    23476254.049
       222.000         159.000
  24891820.563    17377429.48449  13536802.34345  24891819.862    24891826.832
       215.000         154.000
 02  7 12 12 42  0.0000000  0  8G10G30G24G 4G 5G 6G23G 9
  21277252.166   -19625559.44349 -15271846.75247  21277251.036    21277255.652
       243.000         203.000
  20811986.252   -19569588.30649 -15231487.57048  20811986.062    20811989.748
       249.000         216.000
  21567194.851     4648128.05049   3627993.79247  21567193.722    21567199.565
       241.000         203.000
  24679752.564    19436397.81749  15133388.69545  24679751.414    24679757.209
       214.000         143.000
  20397401.103    -8444317.08049  -6562165.31448  20397400.134    20397404.704
       247.000         218.000
  23082700.141   -14962446.93849 -11651177.01146  23082699.010    23082704.126
       226.000         173.000
  23457169.906    -8856604.11849  -6880937.65745  23457168.690    23457174.267
       222.000         161.000
  24908942.151    17467403.52849  13606911.93845  24908942.508    24908948.065
       211.000         155.000
 02  7 12 12 42 30.0000000  0  8G10G30G24G 4G 5G 6G23G 9
  21266581.602   -19681633.68949 -15315540.96447  21266580.373    21266585.186
       242.000         203.000
  20804127.705   -19610884.97949 -15263666.81048  20804127.812    20804131.065
       249.000         216.000
  21579702.588     4713857.14849   3679211.24147  21579702.113    21579707.070
       242.000         203.000
  24698601.009    19535446.83949  15210569.70445  24698600.954    24698606.899
       214.000         143.000
  20401796.402    -8421219.64449  -6544167.32948  20401795.541    20401799.855
       248.000         217.000
  23069591.262   -15031333.39449 -11704854.75446  23069590.705    23069595.330
       226.000         174.000
  23438112.581    -8956751.22249  -6958974.34445  23438111.033    23438115.781
       222.000         161.000
  24926043.076    17557268.85149  13676936.79945  24926042.340    24926048.090
       207.000         153.000
 02  7 12 12 43  0.0000000  0  8G10G30G24G 4G 5G 6G23G 9
  21256010.468   -19737185.30349 -15358827.93247  21256009.271    21256014.150
       243.000         203.000
  20796366.640   -19651669.91249 -15295447.28448  20796366.515    20796369.986
       249.000         217.000
  21592250.394     4779796.54349   3730592.57147  21592249.357    21592255.190
       240.000         202.000
  24717441.621    19634454.74349  15287718.67445  24717442.611    24717445.393
       211.000         144.000
  20406294.652    -8397581.31849  -6525747.86948  20406293.567    20406298.101
       248.000         218.000
  23056488.459   -15100188.91549 -11758508.38746  23056488.125    23056492.221
       226.000         175.000
  23419076.824    -9056784.04349  -7036921.95445  23419075.591    23419081.630
       220.000         162.000
  24943122.573    17647022.26849  13746874.44345  24943123.345    24943129.253
       210.000         151.000
 02  7 12 12 43 30.0000000  0  8G10G30G24G 4G 5G 6G23G 9
  21245539.298   -19792211.77449 -15401705.70247  21245538.240    21245543.066
       243.000         204.000
  20788703.289   -19691940.91749 -15326827.30348  20788703.340    20788706.574
       249.000         216.000
  21604837.949     4845944.71749   3782136.57547  21604837.642    21604842.890
       241.000         203.000
  24736274.350    19733420.82049  15364835.08345  24736273.894    24736278.608
       208.000         142.000
  20410895.932    -8373401.84349  -6506906.74448  20410895.171    20410899.245
       248.000         218.000
  23043391.650   -15169012.57749 -11812137.19646  23043391.482    23043395.695
       229.000         175.000
  23400063.645    -9156699.18449  -7114777.85545  23400061.614    23400067.891
       219.000         161.000
  24960180.564    17736661.58149  13816723.22145  24960180.666    24960185.898
       209.000         151.000
 02  7 12 12 44  0.0000000  0  7G10G30G24G 5G 6G23G 9
  21235168.800   -19846709.17949 -15444171.20447  21235167.909    21235172.237
       243.000         204.000
  20781138.432   -19731694.69349 -15357804.27948  20781138.437    20781142.014
       250.000         217.000
  21617465.159     4912300.83749   3833842.61247  21617464.541    21617469.707
       241.000         202.000
  20415600.295    -8348680.30449  -6487643.22548  20415599.245    20415603.557
       247.000         217.000
  23030301.532   -15237802.62949 -11865739.81646  23030300.864    23030305.673
       228.000         176.000
  23381073.614    -9256492.35449  -7192538.71445  23381072.760    23381078.064
       218.000         160.000
  24977216.681    17826185.87049  13886482.34945  24977214.874    24977222.155
       209.000         148.000
 02  7 12 12 44 30.0000000  0  7G10G30G24G 5G 6G23G 9
  21224899.182   -19900676.24649 -15486223.45847  21224898.249    21224902.842
       244.000         204.000
  20773672.094   -19770930.52549 -15388377.66448  20773672.046    20773675.200
       249.000         217.000
  21630131.277     4978861.75049   3885708.24147  21630130.802    21630135.954
       241.000         202.000
  20420407.512    -8323418.05149  -6467958.36548  20420406.777    20420410.896
       248.000         217.000
  23017217.630   -15306559.53649 -11919316.61046  23017217.232    23017222.101
       229.000         177.000
  23362107.124    -9356161.77349  -7270203.15145  23362105.191    23362112.490
       215.000         160.000
  24994229.688    17915591.46549  13956148.93245  24994228.516    24994234.770
       198.000         143.000
 02  7 12 12 45  0.0000000  0  7G10G30G24G 5G 6G23G 9
  21214730.677   -19954112.21949 -15527861.88447  21214729.468    21214734.169
       243.000         204.000
  20766304.398   -19809648.09449 -15418547.20448  20766304.287    20766307.841
       249.000         216.000
  21642835.745     5045624.07849   3937730.80647  21642835.527    21642840.130
       241.000         202.000
  20425317.307    -8297616.92149  -6447853.60948  20425316.418    20425320.975
       248.000         218.000
  23004139.884   -15375284.34249 -11972868.39246  23004139.656    23004143.746
       227.000         177.000
  23343164.242    -9455706.16949  -7347770.17845  23343164.124    23343168.536
       216.000         160.000
  25011219.561    18004874.66349  14025720.15945  25011217.784    25011224.933
       199.000         137.000
 02  7 12 12 45 30.0000000  0  7G10G30G24G 5G 6G23G 9
  21204663.770   -20007014.21249 -15569084.21747  21204662.468    21204667.303
       244.000         204.000
  20759035.777   -19847844.93349 -15448310.98548  20759035.609    20759039.465
       249.000         217.000
  21655578.371     5112586.05349   3989908.94447  21655577.755    21655583.057
       241.000         202.000
  20430329.720    -8271276.75049  -6427328.82348  20430328.828    20430333.132
       248.000         218.000
  22991068.198   -15443975.92149 -12026394.28646  22991067.205    22991072.081
       228.000         177.000
  23324246.020    -9555121.99549  -7425237.03145  23324245.151    23324251.414
       217.000         162.000
  25028186.207    18094033.55249  14095194.54145  25028184.508    25028192.823
       201.000         135.000
 02  7 12 12 46  0.0000000  0  8G10G30G24G 5G 6G17G23G 9
  21194698.386   -20059382.68849 -15609890.81947  21194697.156    21194702.191
       244.000         204.000
  20751865.986   -19885522.17449 -15477669.88648  20751865.742    20751869.350
       248.000         216.000
  21668358.076     5179743.67549   4042239.52147  21668357.908    21668362.568
       242.000         202.000
  20435444.132    -8244400.53149  -6406386.33248  20435443.407    20435447.648
       248.000         218.000
  22978002.405   -15512636.36149 -12079895.91846  22978001.710    22978006.613
       228.000         177.000
  24955475.358    -5519516.57349  -4287208.07145  24955474.974    24955481.574
       208.000         135.000
  23305352.101    -9654409.09649  -7502603.56446  23305351.181    23305356.750
       221.000         165.000
  25045127.982    18183062.81849  14164567.91245  25045127.699    25045132.982
       195.000         137.000
 02  7 12 12 46 30.0000000  0  8G10G30G24G 5G 6G17G23G 9
  21184835.105   -20111214.62549 -15650279.33947  21184833.715    21184838.662
       243.000         204.000
  20744795.616   -19922677.35749 -15506621.98048  20744795.767    20744799.261
       250.000         217.000
  21681174.761     5247095.28749   4094721.28247  21681174.125    21681179.378
       241.000         202.000
  20440660.572    -8216987.91649  -6385025.87848  20440659.886    20440663.857
       248.000         217.000
  22964942.855   -15581264.61849 -12133372.47046  22964941.882    22964946.643
       228.000         177.000
  24938513.983    -5608648.40749  -4356661.39045  24938512.327    24938520.001
       202.000         135.000
  23286483.741    -9753563.81349  -7579866.95746  23286483.113    23286488.453
       222.000         166.000
  25062044.917    18271960.51649  14233838.75745  25062043.878    25062050.881
       197.000         139.000
 02  7 12 12 47  0.0000000  0  7G10G30G24G 5G 6G17G23
  21175075.501   -20162501.55549 -15690243.16947  21175074.301    21175079.293
       243.000         204.000
  20737826.158   -19959302.28249 -15535160.88648  20737825.862    20737829.669
       249.000         217.000
  21694029.009     5314645.09649   4147357.46347  21694028.896    21694033.618
       242.000         202.000
  20445980.174    -8189033.32049  -6363243.08548  20445979.553    20445983.500
       248.000         217.000
  22951890.626   -15649853.84749 -12186818.61346  22951890.207    22951894.994
       228.000         177.000
  24921578.277    -5697645.14949  -4426009.43545  24921579.210    24921584.751
       201.000         137.000
  23267642.191    -9852576.93549  -7657020.01546  23267641.427    23267646.959
       222.000         166.000
 02  7 12 12 47 30.0000000  0  7G10G30G24G 5G 6G17G23
  21165419.899   -20213242.14749 -15729781.28647  21165418.706    21165423.747
       244.000         204.000
  20730957.690   -19995396.35249 -15563286.14448  20730957.647    20730961.312
       249.000         217.000
  21706920.543     5382389.91749   4200145.61347  21706919.732    21706924.860
       240.000         202.000
  20451402.673    -8160538.01949  -6341038.97848  20451401.749    20451406.029
       247.000         217.000
  22938845.766   -15718404.37249 -12240234.59046  22938845.158    22938849.777
       228.000         177.000
  24904668.525    -5786506.72249  -4495252.15645  24904667.767    24904674.107
       206.000         139.000
  23248827.953    -9951446.55449  -7734061.25846  23248827.652    23248832.902
       223.000         166.000
 02  7 12 12 48  0.0000000  0  7G10G30G24G 5G 6G17G23
  21155867.788   -20263438.61749 -15768895.42147  21155866.838    21155871.307
       244.000         205.000
  20724189.754   -20030962.13249 -15590999.74448  20724189.532    20724193.028
       249.000         217.000
  21719847.836     5450323.79349   4253081.07147  21719847.532    21719852.597
       242.000         201.000
  20456927.108    -8131506.97649  -6318417.41148  20456926.325    20456930.580
       248.000         217.000
  22925807.674   -15786920.14249 -12293623.49946  22925807.364    22925811.815
       228.000         177.000
  24887783.827    -5875236.68449  -4564392.31545  24887783.126    24887789.956
       205.000         142.000
  23230040.793   -10050174.13349  -7810991.83346  23230039.838    23230044.934
       223.000         164.000
 02  7 12 12 48 30.0000000  0  7G10G30G24G 5G 6G17G23
  21146419.730   -20313088.56449 -15807583.69147  21146418.549    21146423.237
       243.000         205.000
  20717522.668   -20065997.72849 -15618300.21548  20717522.568    20717526.344
       249.000         217.000
  21732810.995     5518445.09749   4306162.58047  21732810.618    21732815.377
       240.000         201.000
  20462553.462    -8101940.41249  -6295378.55248  20462552.710    20462557.009
       248.000         217.000
  22912776.367   -15855400.20349 -12346984.58146  22912775.266    22912780.227
       228.000         177.000
  24870924.319    -5963833.39649  -4633428.63945  24870924.267    24870930.488
       205.000         142.000
  23211281.194   -10148756.37349  -7887809.16946  23211281.554    23211285.775
       223.000         164.000
 02  7 12 12 49  0.0000000  0  7G10G30G24G 5G 6G17G23
  21137076.127   -20362189.52949 -15845844.18147  21137075.067    21137079.875
       244.000         205.000
  20710956.898   -20100501.27749 -15645186.10748  20710956.903    20710960.199
       249.000         217.000
  21745809.396     5586751.91449   4359388.65447  21745808.930    21745814.279
       241.000         201.000
  20468281.659    -8071838.65049  -6271922.64648  20468280.904    20468285.241
       248.000         218.000
  22899751.944   -15923843.91049 -12400317.33246  22899751.352    22899754.982
       226.000         177.000
  24854090.365    -6052296.03449  -4702360.50645  24854088.702    24854095.869
       202.000         141.000
  23192549.860   -10247190.29949  -7964510.90846  23192548.213    23192555.061
       222.000         164.000
 02  7 12 12 49 30.0000000  0  7G10G30G24G 5G 6G17G23
  21127837.495   -20410738.95249 -15883674.89947  21127836.453    21127841.069
       244.000         205.000
  20704492.717   -20134470.68149 -15671655.77348  20704492.478    20704496.072
       249.000         217.000
  21758842.774     5655242.80149   4412758.14347  21758842.287    21758847.786
       241.000         201.000
  20474111.708    -8041201.63649  -6248049.67248  20474110.788    20474115.179
       248.000         217.000
  22886734.684   -15992250.30649 -12453621.00846  22886734.903    22886738.841
       228.000         177.000
  24837282.088    -6140623.12549  -4771186.73445  24837281.408    24837288.191
       208.000         144.000
  23173847.304   -10345472.69249  -8041094.58946  23173845.451    23173850.812
       222.000         163.000
 02  7 12 12 50  0.0000000  0  7G10G30G24G 5G 6G17G23
  21118704.245   -20458734.59449 -15921074.09547  21118703.126    21118707.907
       244.000         206.000
  20698130.482   -20167904.24349 -15697707.90948  20698130.612    20698133.933
       249.000         217.000
  21771910.892     5723915.72249   4466269.48747  21771910.450    21771915.219
       240.000         201.000
  20480043.488    -8010030.05449  -6223760.14948  20480042.751    20480046.846
       248.000         217.000
  22873724.675   -16060618.67549 -12506895.05346  22873724.030    22873728.026
       227.000         177.000
  24820500.263    -6228813.53549  -4839906.46945  24820499.566    24820507.003
       211.000         146.000
  23155174.049   -10443600.39949  -8117557.73646  23155172.787    23155179.042
       221.000         164.000
 02  7 12 12 50 30.0000000  0  7G10G30G24G 5G 6G17G23
  21109676.690   -20506174.85549 -15958040.53147  21109675.746    21109680.349
       245.000         206.000
  20691870.560   -20200800.61849 -15723341.45248  20691870.256    20691874.148
       248.000         217.000
  21785013.108     5792768.77549   4519921.19247  21785012.909    21785017.954
       241.000         201.000
  20486076.809    -7978324.87149  -6199054.83148  20486075.865    20486080.206
       248.000         217.000
  22860721.991   -16128948.76049 -12560139.27546  22860721.852    22860726.061
       227.000         177.000
  24803744.312    -6316866.64949  -4908519.24545  24803743.416    24803749.119
       213.000         145.000
  23136530.863   -10541570.81949  -8193898.30946  23136530.223    23136535.839
       221.000         164.000
 02  7 12 12 51  0.0000000  0  7G10G30G24G 5G 6G17G23
  21100755.226   -20553057.39049 -15994572.38247  21100753.952    21100758.967
       244.000         206.000
  20685713.161   -20233157.94249 -15748554.95948  20685713.209    20685716.626
       249.000         217.000
  21798149.417     5861800.03949   4573711.74647  21798149.005    21798153.996
       240.000         201.000
  20492211.555    -7946086.32149  -6173933.90948  20492210.848    20492214.987
       247.000         217.000
  22847726.812   -16197239.66649 -12613352.96946  22847726.208    22847730.684
       229.000         178.000
  24787014.757    -6404781.18649  -4977024.05045  24787013.857    24787020.917
       210.000         146.000
  23117918.360   -10639380.80649  -8270113.84346  23117917.639    23117924.588
       221.000         165.000
 02  7 12 12 51 30.0000000  0  7G10G30G24G 5G 6G17G23
  21091940.143   -20599380.73349 -16030668.47947  21091938.795    21091943.814
       243.000         205.000
  20679658.553   -20264975.37649 -15773347.77148  20679658.480    20679662.100
       249.000         218.000
  21811319.022     5931006.81349   4627639.08847  21811318.438    21811323.591
       241.000         200.000
  20498447.567    -7913315.72349  -6148398.39848  20498446.861    20498450.925
       248.000         217.000
  22834739.058   -16265491.45549 -12666536.17246  22834738.659    22834741.832
       230.000         178.000
  24770311.529    -6492556.91949  -5045420.64945  24770311.310    24770317.994
       215.000         146.000
  23099336.659   -10737028.08749  -8346202.61146  23099335.183    23099341.069
       220.000         164.000
 02  7 12 12 52  0.0000000  0  7G10G30G24G 5G 6G17G23
  21083231.965   -20645142.37149 -16066326.89447  21083230.873    21083235.552
       244.000         206.000
  20673706.923   -20296251.05749 -15797718.44148  20673707.000    20673710.381
       249.000         217.000
  21824521.770     6000387.58049   4681701.99647  21824521.238    21824526.725
       240.000         200.000
  20504784.807    -7880013.49649  -6122448.62948  20504784.143    20504788.375
       248.000         217.000
  22821758.742   -16333703.21449 -12719688.18146  22821757.976    22821762.592
       230.000         179.000
  24753635.095    -6580192.85849  -5113708.37445  24753634.216    24753641.204
       213.000         146.000
  23080786.540   -10834509.52449  -8422162.14146  23080785.765    23080791.279
       222.000         166.000
 02  7 12 12 52 30.0000000  0  7G10G30G24G 5G 6G17G23
  21074631.167   -20690339.73149 -16101545.61747  21074630.007    21074634.804
       244.000         206.000
  20667858.903   -20326982.68549 -15821665.16948  20667858.829    20667862.395
       249.000         218.000
  21837757.380     6069941.21149   4735899.60547  21837757.195    21837761.443
       240.000         199.000
  20511223.254    -7846179.77149  -6096084.70748  20511222.516    20511226.747
       248.000         217.000
  22808786.221   -16401873.65149 -12772807.99846  22808785.626    22808790.321
       230.000         179.000
  24736985.605    -6667687.01849  -5181885.62145  24736984.672    24736991.135
       208.000         145.000
  23062268.649   -10931821.61149  -8497989.72846  23062267.255    23062274.005
       222.000         168.000
 02  7 12 12 53  0.0000000  0  7G10G30G24G 5G 6G17G23
  21066138.024   -20734971.52649 -16136323.63047  21066137.007    21066141.706
       245.000         206.000
  20662114.579   -20357169.21749 -15845187.15448  20662114.506    20662118.145
       250.000         218.000
  21851025.462     6139665.27849   4790230.02647  21851025.170    21851030.500
       240.000         199.000
  20517762.522    -7811815.69849  -6069307.52848  20517761.589    20517765.971
       247.000         217.000
  22795821.695   -16470002.64749 -12825895.51246  22795821.581    22795825.226
       231.000         180.000
  24720362.696    -6755039.23149  -5249952.19845  24720360.820    24720368.280
       209.000         143.000
  23043783.547   -11028961.72549  -8573683.29246  23043782.531    23043788.847
       225.000         170.000
 02  7 12 12 53 30.0000000  0  7G10G30G24G 5G 6G17G23
  21057752.806   -20779036.22349 -16170659.76047  21057751.692    21057756.297
       245.000         206.000
  20656474.185   -20386809.69649 -15868283.64148  20656474.240    20656477.619
       249.000         218.000
  21864325.516     6209557.17549   4844691.22247  21864324.563    21864329.698
       238.000         199.000
  20524402.441    -7776922.49649  -6042118.04548  20524401.692    20524406.202
       247.000         217.000
  22782865.063   -16538090.03349 -12878950.62146  22782864.641    22782869.072
       230.000         180.000
  24703767.273    -6842248.86749  -5317907.73245  24703765.509    24703772.038
       208.000         139.000
  23025331.670   -11125927.54649  -8649241.04446  23025330.875    23025337.157
       224.000         172.000
 02  7 12 12 54  0.0000000  0  7G10G30G24G 5G 6G17G23
  21049475.802   -20822531.94149 -16204552.52847  21049474.722    21049479.231
       245.000         206.000
  20650938.047   -20415902.53249 -15890953.39048  20650938.003    20650941.547
       250.000         218.000
  21877657.007     6279615.28349   4899281.92347  21877656.783    21877661.393
       240.000         198.000
  20531142.952    -7741500.79449  -6014516.74148  20531142.196    20531146.583
       248.000         217.000
  22769916.322   -16606135.07849 -12931972.73346  22769915.735    22769920.251
       230.000         180.000
  24687199.075    -6929315.04349  -5385751.47945  24687198.138    24687204.150
       210.000         138.000
  23006913.466   -11222716.17249  -8724660.72246  23006913.245    23006917.127
       224.000         172.000
 02  7 12 12 54 30.0000000  0  7G10G30G24G 5G 6G17G23
  21041307.581   -20865456.30849 -16238000.09047  21041306.337    21041311.300
       245.000         207.000
  20645506.370   -20444446.08349 -15913195.13448  20645506.273    20645509.828
       250.000         218.000
  21891020.041     6349837.96749   4954000.87247  21891019.043    21891024.656
       239.000         198.000
  20537983.992    -7705551.03349  -5986503.95848  20537983.280    20537987.525
       247.000         217.000
  22756975.925   -16674136.90349 -12984961.16246  22756975.704    22756980.499
       230.000         181.000
  24670658.436    -7016236.69349  -5453482.62445  24670657.359    24670663.927
       207.000         137.000
  22988529.398   -11319324.45949  -8799939.87146  22988528.263    22988534.627
       224.000         172.000
 02  7 12 12 55  0.0000000  0  7G10G30G24G 5G 6G17G23
  21033248.435   -20907807.18949 -16271000.77447  21033247.376    21033252.347
       245.000         207.000
  20640179.590   -20472438.66549 -15935007.54448  20640179.621    20640183.146
       250.000         218.000
  21904413.863     6420223.44449   5008846.66247  21904413.500    21904418.389
       240.000         198.000
  20544925.431    -7669073.59149  -5958080.00148  20544924.705    20544928.913
       247.000         216.000
  22744044.140   -16742094.50649 -13037915.12946  22744043.586    22744048.058
       231.000         181.000
  24654145.540    -7103012.60149  -5521100.18845  24654143.891    24654150.445
       211.000         137.000
  22970180.438   -11415749.16949  -8875075.99646  22970178.237    22970184.637
       224.000         172.000
 02  7 12 12 55 30.0000000  0  7G10G30G24G 5G 6G17G23
  21025298.529   -20949584.33649 -16303554.39347  21025297.599    21025302.270
       244.000         207.000
  20634957.658   -20499879.98949 -15956390.40648  20634957.746    20634961.023
       250.000         218.000
  21917838.184     6490768.61949   5063816.91247  21917837.547    21917843.164
       239.000         198.000
  20551966.871    -7632070.60049  -5929246.52348  20551966.080    20551970.536
       248.000         217.000
  22731120.513   -16810008.49549 -13090835.13346  22731119.623    22731124.725
       230.000         181.000
  24637660.156    -7189643.01949  -5588604.37645  24637659.833    24637666.530
       209.000         138.000
  22951866.571   -11511988.77749  -8950067.86846  22951865.924    22951870.158
       225.000         172.000
 02  7 12 12 56  0.0000000  0  7G10G30G24G 5G 6G17G23
  21017458.235   -20990785.26249 -16335659.00847  21017457.247    21017461.945
       244.000         207.000
  20629841.060   -20526768.41249 -15977342.42348  20629841.008    20629844.768
       250.000         219.000
  21931292.526     6561471.86349   5118910.31247  21931292.322    21931297.240
       240.000         198.000
  20559108.271    -7594542.48349  -5900003.85648  20559107.496    20559111.799
       248.000         217.000
  22718205.390   -16877877.88449 -13143720.36846  22718204.774    22718209.823
       232.000         182.000
  24621202.876    -7276126.81149  -5655994.32745  24621202.216    24621208.531
       207.000         140.000
  22933588.578   -11608039.98149  -9024912.92646  22933587.278    22933593.068
       226.000         171.000
 02  7 12 12 56 30.0000000  0  7G10G30G24G 5G 6G17G23
  21009728.253   -21031406.63649 -16367312.02347  21009727.248    21009731.852
       244.000         207.000
  20624830.175   -20553100.66049 -15997861.07448  20624830.277    20624833.437
       250.000         218.000
  21944777.092     6632333.32149   5174127.00847  21944776.327    21944781.758
       238.000         197.000
  20566349.732    -7556488.36649  -5870351.31648  20566348.893    20566353.301
       247.000         216.000
  22705299.212   -16945700.31349 -13196569.01546  22705298.289    22705303.877
       232.000         183.000
  24604774.146    -7362461.30649  -5723267.91445  24604772.211    24604779.764
       207.000         140.000
  22915347.314   -11703898.22349  -9099607.62746  22915346.945    22915352.370
       225.000         171.000
 02  7 12 12 57  0.0000000  0  7G10G30G24G 5G 6G17G23
  21002108.645   -21071448.07649 -16398513.14547  21002107.663    21002112.379
       245.000         208.000
  20619925.101   -20578877.10949 -16017946.62048  20619924.893    20619928.533
       250.000         218.000
  21958291.005     6703349.44249   5229464.21447  21958290.912    21958296.012
       239.000         197.000
  20573690.793    -7517910.84449  -5840290.93348  20573689.851    20573694.541
       247.000         216.000
  22692401.751   -17013476.79549 -13249381.85746  22692400.888    22692406.302
       230.000         183.000
  24588373.429    -7448647.20849  -5790425.70745  24588372.244    24588379.415
       206.000         140.000
  22897142.939   -11799562.20349  -9174150.95946  22897141.689    22897148.370
       224.000         170.000
 02  7 12 12 57 30.0000000  0  7G10G30G24G 5G 6G17G23
  20994599.811   -21110907.49949 -16429260.74847  20994598.732    20994603.343
       245.000         208.000
  20615126.036   -20604096.09949 -16037597.79748  20615125.995    20615129.563
       250.000         219.000
  21971834.128     6774518.67549   5284920.73847  21971833.526    21971839.001
       239.000         197.000
  20581131.357    -7478810.44949  -5809823.12048  20581130.550    20581135.071
       247.000         216.000
  22679513.065   -17081206.17449 -13302157.99746  22679512.900    22679517.364
       231.000         183.000
  24572001.039    -7534683.37349  -5857466.81745  24572000.038    24572007.274
       209.000         142.000
  22878976.131   -11895028.85349  -9248540.52546  22878975.645    22878981.583
       225.000         169.000
 02  7 12 12 58  0.0000000  0  7G10G30G24G 5G 6G17G23
  20987201.989   -21149783.29049 -16459553.56947  20987201.113    20987205.596
       245.000         209.000
  20610433.374   -20628756.19149 -16056813.45948  20610433.314    20610436.788
       250.000         218.000
  21985405.940     6845839.32649   5340495.23547  21985405.431    21985410.554
       239.000         196.000
  20588671.247    -7439188.16049  -5778948.63148  20588670.390    20588674.843
       247.000         216.000
  22666633.697   -17148887.85649 -13354896.97346  22666633.336    22666637.984
       231.000         183.000
  24555657.677    -7620569.08649  -5924390.71845  24555657.302    24555663.076
       213.000         145.000
  22860847.531   -11990295.18549  -9322774.00646  22860846.685    22860852.514
       224.000         169.000
 02  7 12 12 58 30.0000000  0  7G10G30G24G 5G 6G17G23
  20979915.398   -21188074.82749 -16489391.13447  20979914.417    20979919.037
       245.000         209.000
  20605847.115   -20652857.41349 -16075593.63648  20605847.179    20605850.813
       250.000         219.000
  21999006.136     6917308.41549   5396185.42647  21999005.425    21999011.099
       239.000         196.000
  20596310.088    -7399045.93349  -5747668.99948  20596309.372    20596313.783
       247.000         216.000
  22653763.240   -17216522.18649 -13407599.04846  22653762.407    22653767.775
       231.000         184.000
  24539342.689    -7706304.47749  -5991197.47445  24539341.547    24539346.820
       208.000         146.000
  22842757.370   -12085359.29549  -9396849.90546  22842755.679    22842762.450
       224.000         170.000
 02  7 12 12 59  0.0000000  0  7G10G30G24G 5G 6G17G23
  20972740.467   -21225779.27049 -16518771.23047  20972739.215    20972744.194
       245.000         208.000
  20601367.684   -20676397.07849 -16093936.24848  20601367.740    20601371.162
       250.000         219.000
  22012634.267     6988925.21949   5451990.69047  22012633.841    22012639.267
       239.000         195.000
  20604047.921    -7358383.69749  -5715984.16548  20604047.045    20604051.527
       247.000         216.000
  22640902.174   -17284107.17249 -13460262.67046  22640902.150    22640906.870
       233.000         184.000
  24523056.659    -7791887.51449  -6057885.51145  24523055.532    24523062.128
       210.000         148.000
  22824706.516   -12180217.14349  -9470765.08646  22824705.475    22824711.061
       225.000         172.000
 02  7 12 12 59 30.0000000  0  7G10G30G24G 5G 6G17G23
  20965677.517   -21262895.40049 -16547692.88647  20965676.494    20965681.235
       245.000         208.000
  20596995.292   -20699374.50649 -16111840.74348  20596995.387    20596998.873
       251.000         219.000
  22026290.187     7060687.54849   5507909.37147  22026289.927    22026295.050
       238.000         195.000
  20611884.386    -7317202.84349  -5683895.21248  20611883.620    20611888.063
       247.000         215.000
  22628050.675   -17351642.65149 -13512887.71046  22628050.377    22628055.414
       232.000         184.000
  24506799.687    -7877317.97949  -6124454.66145  24506798.746    24506805.519
       213.000         152.000
  22806695.329   -12274866.34649  -9544517.68646  22806694.574    22806699.886
       225.000         172.000
 02  7 12 13  0  0.0000000  0  7G10G30G24G 5G 6G17G23
  20958726.720   -21299422.08949 -16576155.24147  20958725.626    20958730.274
       246.000         208.000
  20592729.942   -20721789.13149 -16129306.69348  20592729.790    20592733.279
       250.000         219.000
  22039973.305     7132592.72349   5563939.35247  22039972.934    22039978.069
       238.000         195.000
  20619819.242    -7275505.10949  -5651403.48848  20619818.467    20619822.883
       248.000         216.000
  22615208.605   -17419128.51449 -13565474.10046  22615207.987    22615213.280
       232.000         184.000
  24490571.971    -7962595.58749  -6190904.69745  24490571.370    24490577.694
       215.000         154.000
  22788724.422   -12369304.78049  -9618106.04846  22788723.575    22788729.436
       227.000         173.000
 02  7 12 13  0 30.0000000  0  7G10G30G24G 5G 6G17G23
  20951888.359   -21335357.90849 -16604157.18147  20951887.270    20951891.939
       245.000         209.000
  20588571.873   -20743639.68949 -16146333.10648  20588571.908    20588575.225
       250.000         219.000
  22053683.346     7204639.06749   5620079.33847  22053683.223    22053687.936
       238.000         195.000
  20627852.248    -7233291.36049  -5618509.68848  20627851.406    20627855.992
       246.000         216.000
  22602376.172   -17486564.01749 -13618021.24446  22602375.461    22602380.627
       231.000         184.000
  24474373.554    -8047719.64449  -6257235.06945  24474372.654    24474378.681
       215.000         155.000
  22770794.011   -12463529.57549  -9691527.94246  22770792.418    22770798.295
       226.000         173.000
 02  7 12 13  1  0.0000000  0  7G10G30G24G 5G 6G17G23
  20945162.874   -21370700.57449 -16631696.92547  20945161.846    20945166.464
       246.000         209.000
  20584521.541   -20764924.26249 -16162918.50048  20584521.262    20584525.141
       250.000         219.000
  22067419.973     7276825.47649   5676328.46747  22067419.443    22067424.763
       237.000         194.000
  20635983.431    -7190561.88749  -5585214.02148  20635982.527    20635987.001
       246.000         215.000
  22589553.348   -17553947.76149 -13670528.05446  22589553.008    22589558.456
       232.000         184.000
  24458204.474    -8132688.58349  -6323444.57845  24458203.648    24458209.941
       214.000         154.000
  22752904.902   -12557537.20449  -9764780.61346  22752904.342    22752909.882
       227.000         174.000
 02  7 12 13  1 30.0000000  0  7G10G30G24G 5G 6G17G23
  20938550.686   -21405448.08649 -16658772.91247  20938549.684    20938554.409
       246.000         210.000
  20580579.208   -20785641.52949 -16179061.83648  20580579.172    20580582.555
       250.000         219.000
  22081182.956     7349150.06949   5732685.27147  22081182.735    22081187.906
       238.000         194.000
  20644212.565    -7147317.44849  -5551517.08648  20644211.830    20644216.403
       246.000         215.000
  22576740.621   -17621278.85949 -13722993.85246  22576740.358    22576745.023
       232.000         184.000
  24442065.050    -8217501.04749  -6389532.18245  24442064.171    24442070.843
       213.000         153.000
  22735057.698   -12651324.63249  -9837861.69246  22735057.187    22735062.286
       228.000         174.000
 02  7 12 13  2  0.0000000  0  7G10G30G24G 5G 6G17G23
  20932051.704   -21439600.34849 -16685385.07347  20932050.573    20932055.353
       247.000         210.000
  20576744.833   -20805791.32149 -16194762.98148  20576744.886    20576748.348
       251.000         219.000
  22094971.739     7421610.29449   5789147.76447  22094971.090    22094976.578
       238.000         194.000
  20652539.283    -7103560.17449  -5517420.53948  20652538.265    20652542.905
       247.000         215.000
  22563938.020   -17688557.53749 -13775418.80046  22563937.481    22563941.952
       232.000         184.000
  24425955.263    -8302157.57349  -6455498.26145  24425954.733    24425961.158
       214.000         153.000
  22717252.918   -12744889.90649  -9910769.67746  22717251.374    22717258.112
       228.000         175.000
 02  7 12 13  2 30.0000000  0  7G10G30G24G 5G 6G17G23
  20925666.689   -21473153.97849 -16711530.76047  20925665.443    20925670.401
       244.000         210.000
  20573019.004   -20825370.75749 -16210019.69448  20573019.035    20573022.515
       250.000         219.000
  22108786.277     7494206.33049   5845716.08147  22108786.036    22108791.187
       238.000         194.000
  20660963.744    -7059289.43149  -5482923.87748  20660962.973    20660967.326
       247.000         215.000
  22551145.856   -17755781.13749 -13827800.83446  22551145.907    22551149.877
       233.000         184.000
  24409875.765    -8386655.62049  -6521340.83845  24409874.885    24409881.021
       210.000         150.000
  22699491.074   -12838228.36549  -9983500.90846  22699490.530    22699495.196
       228.000         175.000
 02  7 12 13  3  0.0000000  0  7G10G30G24G 5G 6G17G23
  20919395.344   -21506109.95549 -16737210.73547  20919394.055    20919398.875
       245.000         209.000
  20569401.437   -20844381.24249 -16224833.06848  20569401.380    20569404.777
       250.000         219.000
  22122625.881     7566933.55649   5902386.61647  22122625.445    22122630.958
       237.000         194.000
  20669485.234    -7014508.93549  -5448030.00748  20669484.334    20669488.941
       247.000         215.000
  22538363.910   -17822951.49349 -13880141.37546  22538363.865    22538367.979
       232.000         184.000
  24393826.104    -8470996.79749  -6587061.21445  24393825.646    24393831.948
       210.000         148.000
  22681772.598   -12931339.82249 -10056055.25846  22681772.436    22681777.399
       228.000         176.000
 02  7 12 13  3 30.0000000  0  7G10G30G24G 5G 6G17G23
  20913238.390   -21538465.20449 -16762422.62147  20913237.427    20913241.780
       245.000         209.000
  20565892.697   -20862820.11249 -16239201.02148  20565892.759    20565896.279
       251.000         219.000
  22136490.377     7639791.96349   5959159.38647  22136489.887    22136494.863
       237.000         194.000
  20678103.760    -6969218.32549  -5412738.65048  20678103.067    20678107.445
       247.000         215.000
  22525592.515   -17890066.18349 -13932438.53646  22525592.047    22525596.697
       233.000         184.000
  24377806.623    -8555179.01049  -6652657.69845  24377806.326    24377812.528
       209.000         146.000
  22664098.097   -13024219.75949 -10128429.21546  22664097.392    22664103.094
       229.000         176.000
 02  7 12 13  4  0.0000000  0  7G10G30G24G 5G 6G17G23
  20907195.924   -21570218.51149 -16787165.47747  20907194.960    20907199.481
       246.000         210.000
  20562492.916   -20880686.38149 -16253122.80748  20562492.633    20562496.353
       250.000         219.000
  22150379.452     7712779.76449   6016032.96247  22150378.822    22150384.338
       238.000         193.000
  20686819.139    -6923418.72749  -5377050.68848  20686818.424    20686822.904
       247.000         215.000
  22512831.771   -17957124.51349 -13984691.79846  22512831.531    22512835.802
       232.000         185.000
  24361817.568    -8639201.38249  -6718129.63345  24361816.775    24361823.796
       208.000         145.000
  22646468.266   -13116865.49449 -10200620.68746  22646468.336    22646472.615
       230.000         177.000
 02  7 12 13  4 30.0000000  0  7G10G30G24G 5G 6G17G23
  20901268.235   -21601368.86449 -16811438.47647  20901266.954    20901271.788
       246.000         210.000
  20559202.096   -20897979.42949 -16266597.91848  20559202.200    20559205.600
       251.000         219.000
  22164292.832     7785894.80549   6073005.71247  22164292.520    22164297.240
       236.000         193.000
  20695631.118    -6877111.57149  -5340967.21348  20695630.403    20695634.747
       247.000         214.000
  22500081.858   -18024126.01849 -14036900.75446  22500081.957    22500085.448
       233.000         185.000
  24345859.347    -8723063.28749  -6783476.53645  24345858.913    24345864.485
       209.000         143.000
  22628883.438   -13209274.38549 -10272627.59546  22628882.271    22628888.019
       230.000         177.000
 02  7 12 13  5  0.0000000  0  7G10G30G24G 5G 6G17G23
  20895455.296   -21631916.23249 -16835241.63347  20895454.158    20895458.891
       245.000         210.000
  20556020.451   -20914699.39649 -16279626.47648  20556020.353    20556023.716
       250.000         219.000
  22178229.773     7859134.18549   6130075.32447  22178229.062    22178234.353
       236.000         193.000
  20704539.176    -6830299.48049  -5304490.29148  20704538.496    20704543.065
       247.000         214.000
  22487342.633   -18091071.20449 -14089065.84646  22487341.587    22487345.976
       232.000         185.000
  24329931.488    -8806765.52549  -6848699.01445  24329930.759    24329936.506
       211.000         142.000
  22611343.991   -13301444.98749 -10344448.81746  22611343.663    22611348.054
       229.000         178.000
 02  7 12 13  5 30.0000000  0  7G10G30G24G 5G 6G17G23
  20889757.633   -21661857.45349 -16858572.44947  20889756.483    20889761.351
       246.000         210.000
  20552948.184   -20930844.04249 -16292206.72248  20552947.990    20552951.600
       250.000         219.000
  22192190.379     7932497.45249   6187241.49047  22192190.186    22192195.084
       237.000         192.000
  20713543.395    -6782982.11349  -5267619.63548  20713542.613    20713547.080
       248.000         215.000
  22474614.506   -18157957.84349 -14141185.31346  22474614.408    22474617.963
       233.000         185.000
  24314034.291    -8890305.96649  -6913795.44645  24314031.806    24314038.074
       207.000         140.000
  22593850.654   -13393373.15749 -10416081.12546  22593849.693    22593854.673
       229.000         178.000
 02  7 12 13  6  0.0000000  0  7G10G30G24G 5G 6G17G23
  20884175.608   -21691191.29449 -16881429.99447  20884174.557    20884179.374
       245.000         210.000
  20549985.662   -20946412.02649 -16304337.63448  20549985.681    20549989.155
       250.000         219.000
  22206174.283     8005982.98249   6244502.92047  22206173.646    22206178.775
       237.000         192.000
  20722643.606    -6735160.52049  -5230356.08848  20722642.723    20722647.190
       247.000         214.000
  22461897.695   -18224784.82849 -14193258.29346  22461896.882    22461901.629
       233.000         185.000
  24298167.771    -8973683.67649  -6978765.04445  24298166.250    24298172.247
       210.000         140.000
  22576404.014   -13485055.90649 -10487522.19746  22576403.631    22576408.732
       228.000         177.000
 02  7 12 13  6 30.0000000  0  7G10G30G24G 5G 6G17G23
  20878709.120   -21719917.62249 -16903814.14447  20878707.871    20878712.987
       246.000         210.000
  20547132.971   -20961403.56749 -16316019.36448  20547132.796    20547136.209
       251.000         220.000
  22220180.856     8079588.10849   6301857.52947  22220180.549    22220186.025
       237.000         192.000
  20731839.255    -6686837.16749  -5192701.55648  20731838.557    20731842.894
       248.000         214.000
  22449192.158   -18291552.54149 -14245285.08646  22449191.498    22449195.494
       233.000         186.000
  24282332.436    -9056898.86649  -7043608.01645  24282331.392    24282337.296
       213.000         143.000
  22559004.394   -13576491.34849 -10558770.57646  22559003.647    22559008.794
       228.000         178.000
 02  7 12 13  7  0.0000000  0  7G10G30G24G 5G 6G17G23
  20873359.034   -21748032.38849 -16925721.76347  20873357.745    20873362.706
       246.000         211.000
  20544390.552   -20975814.86649 -16327248.95648  20544390.474    20544393.926
       250.000         219.000
  22234210.448     8153313.84349   6359306.13147  22234209.967    22234214.886
       236.000         192.000
  20741130.672    -6638010.49449  -5154654.83048  20741129.994    20741134.309
       247.000         215.000
  22436498.637   -18358257.22049 -14297262.76346  22436498.196    22436501.931
       233.000         186.000
  24266528.797    -9139947.97349  -7108321.60245  24266527.533    24266534.362
       216.000         145.000
  22541652.879   -13667673.88649 -10629821.87446  22541651.779    22541657.700
       229.000         178.000
 02  7 12 13  7 30.0000000  0  7G10G30G24G 5G 6G17G23
  20868124.625   -21775539.59649 -16947155.95547  20868123.549    20868128.328
       246.000         211.000
  20541757.713   -20989650.42649 -16338029.92448  20541757.787    20541761.201
       250.000         220.000
  22248261.680     8227152.98449   6416843.09647  22248261.209    22248266.606
       235.000         192.000
  20750516.558    -6588687.33749  -5116221.23248  20750515.897    20750520.254
       247.000         214.000
  22423816.274   -18424903.41949 -14349194.87846  22423815.925    22423819.568
       233.000         186.000
  24250755.706    -9222835.93949  -7172909.59645  24250755.391    24250761.887
       218.000         149.000
  22524349.039   -13758606.18549 -10700678.18846  22524347.759    22524353.840
       229.000         179.000
 02  7 12 13  8  0.0000000  0  7G10G30G24G 5G 6G17G23
  20863006.790   -21802433.94349 -16968112.59347  20863005.762    20863010.327
       245.000         210.000
  20539235.327   -21002905.45749 -16348358.53148  20539235.243    20539238.773
       250.000         219.000
  22262334.846     8301108.14249   6474470.46147  22262334.337    22262339.739
       236.000         192.000
  20759997.491    -6538864.87249  -5077398.55448  20759996.773    20760001.172
       246.000         214.000
  22411146.004   -18491486.38349 -14401077.72046  22411145.917    22411150.192
       234.000         187.000
  24235014.279    -9305557.75649  -7237368.13045  24235013.319    24235019.212
       216.000         151.000
  22507094.061   -13849281.27749 -10771334.07846  22507093.084    22507099.112
       229.000         180.000
 02  7 12 13  8 30.0000000  0  7G10G30G24G 5G 6G17G23
  20858005.574   -21828715.54449 -16988591.76647  20858004.384    20858009.227
       245.000         210.000
  20536823.453   -21015580.27549 -16358235.02248  20536823.743    20536826.986
       251.000         219.000
  22276429.576     8375176.24749   6532185.84047  22276429.319    22276434.439
       236.000         192.000
  20769572.983    -6488545.56049  -5038188.72548  20769572.294    20769576.760
       246.000         213.000
  22398487.796   -18558006.38649 -14452911.50546  22398487.510    22398491.628
       234.000         187.000
  24219304.290    -9388114.07849  -7301697.69845  24219303.805    24219309.380
       220.000         154.000
  22489888.395   -13939697.58149 -10841788.33046  22489888.204    22489892.604
       230.000         181.000
 02  7 12 13  9  0.0000000  0  7G10G30G24G 5G 6G17G23
  20853121.115   -21854383.71249 -17008592.93947  20853119.866    20853124.580
       245.000         210.000
  20534522.039   -21027674.38149 -16367659.01948  20534521.936    20534525.479
       250.000         219.000
  22290545.451     8449355.47849   6589987.79447  22290545.287    22290550.764
       236.000         192.000
  20779242.640    -6437731.27649  -4998593.21948  20779241.830    20779246.499
       246.000         214.000
  22385841.699   -18624463.05049 -14504695.92447  22385841.245    22385845.251
       235.000         188.000
  24203626.112    -9470504.55649  -7365898.05945  24203625.439    24203631.833
       220.000         156.000
  22472732.358   -14029852.84849 -10912039.17146  22472731.861    22472736.554
       230.000         181.000
 02  7 12 13  9 30.0000000  0  7G10G30G24G 5G 6G17G23
  20848353.604   -21879436.93749 -17028114.94047  20848352.176    20848357.182
       245.000         210.000
  20532331.361   -21039186.41149 -16376629.44248  20532331.353    20532334.646
       250.000         219.000
  22304682.212     8523644.10949   6647875.00647  22304681.910    22304686.911
       236.000         191.000
  20789006.361    -6386422.66749  -4958612.51648  20789005.741    20789010.019
       247.000         214.000
  22373207.832   -18690854.72249 -14556429.71247  22373207.211    22373211.322
       235.000         188.000
  24187979.502    -9552728.02049  -7429968.26245  24187978.101    24187985.024
       219.000         157.000
  22455626.774   -14119743.67049 -10982083.95346  22455626.213    22455631.823
       229.000         182.000
 02  7 12 13 10  0.0000000  0  7G10G30G24G 5G 6G17G23
  20843703.249   -21903874.74349 -17047157.39547  20843702.215    20843707.082
       246.000         210.000
  20530251.481   -21050116.39949 -16385146.32648  20530251.423    20530255.006
       250.000         219.000
  22318839.398     8598040.11049   6705845.87747  22318839.339    22318844.167
       236.000         191.000
  20798863.749    -6334621.97249  -4918248.37248  20798862.977    20798867.588
       246.000         213.000
  22360586.367   -18757181.33349 -14608112.79347  22360585.619    22360589.857
       235.000         188.000
  24172364.745    -9634784.35249  -7493908.24545  24172364.220    24172370.852
       220.000         160.000
  22438571.769   -14209368.07949 -11051921.15046  22438570.841    22438576.567
       230.000         182.000
 02  7 12 13 10 30.0000000  0  7G10G30G24G 5G 6G17G23
  20839170.290   -21927695.64449 -17065719.13647  20839169.233    20839174.262
       246.000         211.000
  20528282.545   -21060463.11549 -16393208.71448  20528282.476    20528286.074
       250.000         219.000
  22333016.771     8672542.41049   6763899.59247  22333016.165    22333021.210
       235.000         190.000
  20808814.608    -6282330.20449  -4877501.57348  20808813.838    20808818.361
       247.000         213.000
  22347977.520   -18823441.47749 -14659744.08347  22347976.438    22347981.014
       234.000         189.000
  24156781.913    -9716672.46149  -7557717.11545  24156781.728    24156787.464
       219.000         160.000
  22421568.063   -14298722.86549 -11121548.23946  22421567.572    22421572.695
       230.000         182.000
 02  7 12 13 11  0.0000000  0  7G10G30G24G 5G 6G17G23
  20834755.062   -21950897.59249 -17083798.57147  20834754.160    20834758.751
       245.000         211.000
  20526424.952   -21070224.77049 -16400815.20848  20526424.932    20526428.552
       250.000         219.000
  22347214.248     8747150.50049   6822035.72447  22347214.126    22347219.048
       236.000         189.000
  20818858.814    -6229547.66449  -4836372.34648  20818857.995    20818862.586
       246.000         213.000
  22335381.709   -18889633.24049 -14711322.08947  22335381.107    22335384.691
       235.000         189.000
  24141231.547    -9798390.95549  -7621393.82145  24141229.904    24141236.965
       218.000         160.000
  22404616.368   -14387804.43049 -11190962.42646  22404615.627    22404620.757
       231.000         183.000
 02  7 12 13 11 30.0000000  0  7G10G30G24G 5G 6G17G23
  20830457.640   -21973480.89549 -17101395.95447  20830456.605    20830461.152
       246.000         210.000
  20524678.617   -21079402.23549 -16407966.49248  20524678.491    20524681.994
       250.000         220.000
  22361431.256     8821860.87049   6880251.55947  22361430.704    22361435.767
       236.000         189.000
  20828995.861    -6176277.19349  -4794862.91747  20828994.967    20828999.599
       246.000         212.000
  22322798.658   -18955757.24449 -14762847.30347  22322798.578    22322802.429
       235.000         189.000
  24125713.235    -9879940.48549  -7684938.87745  24125712.347    24125717.918
       217.000         160.000
  22387716.970   -14476611.27749 -11260162.54246  22387716.476    22387721.332
       232.000         184.000
 02  7 12 13 12  0.0000000  0  7G10G30G24G 5G 6G17G23
  20826278.132   -21995444.26749 -17118510.27347  20826277.018    20826281.995
       245.000         211.000
  20523043.595   -21087994.12249 -16414661.48148  20523043.633    20523047.160
       250.000         219.000
  22375667.417     8896672.67249   6938546.42847  22375666.259    22375671.786
       235.000         189.000
  20839225.588    -6122519.58749  -4752973.90247  20839224.755    20839229.330
       245.000         212.000
  22310228.926   -19021811.99549 -14814318.54147  22310228.130    22310232.402
       234.000         189.000
  24110227.330    -9961319.69549  -7748351.19245  24110225.218    24110232.675
       215.000         159.000
  22370870.552   -14565139.97249 -11329145.91646  22370869.759    22370874.595
       232.000         184.000
 02  7 12 13 12 30.0000000  0  7G10G30G24G 5G 6G17G23
  20822216.747   -22016787.01749 -17135140.98747  20822215.790    20822220.399
       246.000         211.000
  20521520.117   -21096000.19449 -16420899.99548  20521520.027    20521523.772
       250.000         220.000
  22389922.500     8971583.90449   6996918.77047  22389921.960    22389927.616
       235.000         188.000
  20849547.631    -6068276.89149  -4710706.89648  20849546.879    20849551.468
       246.000         213.000
  22297672.405   -19087797.11249 -14865735.51747  22297671.503    22297676.303
       234.000         189.000
  24094773.563   -10042528.40349  -7811630.66945  24094772.686    24094778.765
       215.000         157.000
  22354077.424   -14653388.45049 -11397910.94646  22354077.005    22354082.204
       232.000         185.000
 02  7 12 13 13  0.0000000  0  7G10G30G24G 5G 6G17G23
  20818273.834   -22037507.31549 -17151286.68147  20818272.620    20818277.643
       245.000         211.000
  20520108.401   -21103418.79449 -16426680.73748  20520108.215    20520111.866
       250.000         220.000
  22404196.365     9046593.87549   7055368.05947  22404195.888    22404201.508
       235.000         188.000
  20859961.915    -6013549.69149  -4668062.36048  20859961.069    20859965.702
       246.000         213.000
  22285129.439   -19153710.61049 -14917096.69147  22285128.846    22285133.168
       234.000         190.000
  24079352.628   -10123565.04449  -7874776.07045  24079352.591    24079357.504
       213.000         156.000
  22337338.333   -14741352.92949 -11466454.67146  22337337.373    22337342.558
       231.000         185.000
 02  7 12 13 13 30.0000000  0  7G10G30G24G 5G 6G17G23
  20814449.382   -22057604.67749 -17166946.96747  20814448.287    20814452.961
       244.000         210.000
  20518808.476   -21110249.92349 -16432003.71248  20518808.554    20518811.956
       250.000         219.000
  22418488.749     9121700.48249   7113892.64247  22418487.444    22418493.635
       233.000         188.000
  20870467.968    -5958340.05049  -4625041.89548  20870467.296    20870471.718
       245.000         213.000
  22272600.010   -19219552.00849 -14968401.68847  22272599.320    22272603.976
       234.000         190.000
  24063964.520   -10204429.58249  -7937787.33945  24063964.124    24063969.240
       213.000         156.000
  22320653.670   -14829031.15749 -11534775.35846  22320652.514    22320658.118
       230.000         184.000
 02  7 12 13 14  0.0000000  0  7G10G30G24G 5G 6G17G23
  20810743.651   -22077078.26949 -17182121.19547  20810742.673    20810747.430
       245.000         210.000
  20517620.533   -21116492.87849 -16436868.37048  20517620.507    20517624.142
       250.000         220.000
  22432799.097     9196902.20149   7172491.32747  22432798.457    22432803.688
       234.000         188.000
  20881065.570    -5902649.34349  -4581646.56848  20881064.840    20881069.498
       246.000         213.000
  22260084.631   -19285320.12449 -15019649.58047  22260084.154    22260088.670
       235.000         190.000
  24048609.140   -10285121.15549  -8000663.85745  24048608.904    24048614.658
       214.000         155.000
  22304023.935   -14916420.24649 -11602870.73146  22304023.206    22304029.087
       230.000         184.000
 02  7 12 13 14 30.0000000  0  7G10G30G24G 5G 6G17G23
  20807156.664   -22095927.95749 -17196809.26147  20807155.446    20807160.820
       246.000         211.000
  20516544.484   -21122147.54349 -16441274.61748  20516544.672    20516547.859
       251.000         220.000
  22447127.287     9272197.03949   7231162.57147  22447127.097    22447132.274
       234.000         188.000
  20891754.321    -5846479.75149  -4537878.08747  20891753.610    20891758.260
       246.000         212.000
  22247583.413   -19351014.62149 -15070840.11547  22247582.719    22247587.558
       235.000         190.000
  24033286.612   -10365639.85449  -8063405.64845  24033286.032    24033292.305
       212.000         153.000
  22287449.749   -15003518.01549 -11670739.09946  22287449.300    22287454.393
       231.000         184.000
 02  7 12 13 15  0.0000000  0  7G10G30G24G 5G 6G17G23
  20803688.577   -22114152.95449 -17211010.56247  20803687.537    20803692.304
       246.000         211.000
  20515580.468   -21127213.66449 -16445222.26148  20515580.419    20515584.080
       250.000         220.000
  22461472.735     9347583.22649   7289905.01046  22461472.526    22461477.902
       234.000         187.000
  20902533.911    -5789832.99549  -4493737.79147  20902533.037    20902537.562
       246.000         212.000
  22235096.347   -19416634.74549 -15121972.69247  22235095.404    22235101.135
       236.000         191.000
  24017997.144   -10445985.09549  -8126012.28645  24017996.707    24018003.131
       212.000         152.000
  22270931.572   -15090321.85049 -11738378.43846  22270930.346    22270936.044
       231.000         184.000
 02  7 12 13 15 30.0000000  0  7G10G30G24G 5G 6G17G23
  20800339.499   -22131752.44349 -17224724.45647  20800338.375    20800343.253
       246.000         211.000
  20514728.506   -21131690.74349 -16448710.91048  20514728.379    20514731.947
       250.000         220.000
  22475835.462     9423058.87749   7348717.16847  22475835.133    22475840.931
       234.000         188.000
  20913403.910    -5732710.75049  -4449226.97447  20913403.182    20913407.852
       247.000         212.000
  22222623.556   -19482179.59049 -15173046.60347  22222622.778    22222627.742
       235.000         190.000
  24002741.013   -10526156.32749  -8188483.34645  24002740.748    24002747.403
       214.000         153.000
  22254469.710   -15176829.26649 -11805786.79346  22254468.532    22254474.511
       232.000         184.000
 02  7 12 13 16  0.0000000  0  7G10G30G24G 5G 6G17G23
  20797109.488   -22148726.41349 -17237950.93947  20797108.411    20797113.166
       246.000         211.000
  20513988.570   -21135579.07449 -16451740.80148  20513988.491    20513992.097
       250.000         220.000
  22490214.604     9498621.62349   7407597.17146  22490214.049    22490220.704
       233.000         187.000
  20924364.037    -5675115.14049  -4404347.30947  20924363.115    20924367.775
       246.000         212.000
  22210165.143   -19547648.79949 -15224061.58847  22210164.753    22210169.366
       234.000         191.000
  23987518.192   -10606153.81649  -8250819.00645  23987518.037    23987524.661
       214.000         155.000
  22238064.689   -15263038.28549 -11872962.63146  22238063.679    22238069.214
       231.000         185.000
 02  7 12 13 16 30.0000000  0  7G10G30G24G 5G 6G17G23
  20793998.635   -22165073.92549 -17250689.25947  20793997.405    20794002.454
       245.000         211.000
  20513360.815   -21138877.72949 -16454311.19948  20513360.906    20513364.408
       250.000         220.000
  22504610.041     9574270.49749   7466544.27646  22504610.143    22504615.888
       234.000         187.000
  20935413.934    -5617047.40349  -4359099.76047  20935413.195    20935417.898
       246.000         212.000
  22197721.430   -19613041.13949 -15275016.67047  22197721.357    22197725.979
       235.000         191.000
  23972328.443   -10685976.58849  -8313018.53845  23972328.752    23972334.250
       216.000         155.000
  22221717.025   -15348945.76849 -11939903.51046  22221716.476    22221721.943
       232.000         185.000
 02  7 12 13 17  0.0000000  0  7G10G30G24G 5G 6G17G23
  20791007.335   -22180793.29749 -17262938.12947  20791006.406    20791010.987
       246.000         211.000
  20512845.599   -21141585.23649 -16456420.96348  20512845.353    20512849.348
       250.000         220.000
  22519021.929     9650004.93649   7525558.08246  22519021.916    22519026.847
       235.000         187.000
  20946553.574    -5558508.40149  -4313484.98747  20946552.943    20946557.508
       246.000         212.000
  22185292.768   -19678354.66849 -15325910.33847  22185292.262    22185297.105
       236.000         191.000
  23957172.254   -10765623.05649  -8375080.69945  23957171.935    23957178.228
       216.000         155.000
  22205427.427   -15434548.09349 -12006606.60746  22205426.623    22205431.882
       233.000         186.000
 02  7 12 13 17 30.0000000  0  7G10G30G24G 5G 6G17G23
  20788135.318   -22195885.92049 -17274698.62447  20788134.124    20788139.101
       247.000         211.000
  20512442.556   -21143703.35149 -16458071.46548  20512442.911    20512446.237
       252.000         220.000
  22533449.527     9725821.35549   7584635.76546  22533449.547    22533454.516
       237.000         186.000
  20957782.191    -5499501.96949  -4267505.98047  20957781.340    20957786.015
       247.000         212.000
  22172878.853   -19743590.36849 -15376743.36347  22172878.336    22172883.146
       237.000         191.000
  23942049.498   -10845094.56649  -8437006.55145  23942048.874    23942054.093
       220.000         155.000
  22189196.096   -15519844.65749 -12073071.45646  22189195.020    22189200.713
       232.000         186.000
 02  7 12 13 18  0.0000000  0  7G10G30G24G 5G 6G17G23
  20785382.977   -22210349.63749 -17285969.06047  20785381.940    20785386.764
       246.000         211.000
  20512152.087   -21145229.98549 -16459261.07148  20512151.993    20512155.808
       250.000         220.000
  22547892.586     9801719.63349   7643777.23046  22547891.719    22547897.375
       234.000         185.000
  20969099.716    -5440028.13249  -4221162.75447  20969098.985    20969103.645
       246.000         211.000
  22160480.303   -19808745.53349 -15427513.63347  22160479.729    22160484.505
       236.000         192.000
  23926960.354   -10924389.32249  -8498794.66245  23926959.271    23926965.356
       219.000         155.000
  22173023.528   -15604831.34949 -12139294.83146  22173022.926    22173027.666
       233.000         186.000
 02  7 12 13 18 30.0000000  0  7G10G30G24G 5G 6G17G23
  20782750.532   -22224183.16849 -17296748.44147  20782749.402    20782754.361
       246.000         211.000
  20511974.215   -21146164.57549 -16459989.34248  20511974.156    20511977.689
       250.000         220.000
  22562350.907     9877699.04749   7702981.91546  22562350.170    22562356.118
       234.000         185.000
  20980505.912    -5380088.20149  -4174456.35147  20980505.069    20980509.990
       246.000         211.000
  22148097.253   -19873818.75449 -15478220.04647  22148096.802    22148100.954
       237.000         192.000
  23911904.982   -11003506.06049  -8560444.04445  23911904.923    23911910.179
       219.000         156.000
  22156910.674   -15689504.92249 -12205274.23646  22156909.741    22156915.188
       232.000         185.000
 02  7 12 13 19  0.0000000  0  7G10G30G24G 5G 6G17G23
  20780238.107   -22237386.35549 -17307036.64447  20780237.051    20780241.624
       246.000         211.000
  20511909.059   -21146507.00749 -16460256.19248  20511908.921    20511912.776
       250.000         220.000
  22576824.436     9953757.66849   7762248.33246  22576823.580    22576829.334
       234.000         186.000
  20992000.421    -5319684.22949  -4127388.34847  20991999.561    20992004.244
       245.000         211.000
  22135729.907   -19938809.41949 -15528862.12847  22135729.194    22135733.684
       236.000         192.000
  23896883.454   -11082444.72449  -8621954.68245  23896882.413    23896887.859
       218.000         158.000
  22140857.874   -15773863.11049 -12271007.87746  22140856.814    22140862.273
       232.000         186.000
 02  7 12 13 19 30.0000000  0  7G10G30G24G 5G 6G17G23
  20777845.694   -22249958.46949 -17316833.11247  20777844.468    20777849.536
       246.000         211.000
  20511956.703   -21146256.54849 -16460061.05448  20511956.768    20511960.354
       249.000         219.000
  22591312.662    10029894.09749   7821575.36846  22591312.460    22591317.368
       233.000         185.000
  21003583.028    -5258817.37749  -4079959.66347  21003582.223    21003586.902
       245.000         210.000
  22123378.483   -20003716.08449 -15579438.76147  22123378.044    22123382.141
       236.000         192.000
  23881896.018   -11161204.30949  -8683325.77345  23881895.338    23881901.536
       219.000         159.000
  22124865.575   -15857902.96949 -12336493.48146  22124864.625    22124870.132
       233.000         186.000
 02  7 12 13 20  0.0000000  0  7G10G30G24G 5G 6G17G23
  20775573.157   -22261900.68349 -17326138.73747  20775572.071    20775577.223
       246.000         212.000
  20512116.936   -21145414.66449 -16459405.06048  20512117.247    20512120.617
       250.000         220.000
  22605815.287    10106105.33149   7880960.69646  22605814.680    22605819.846
       233.000         184.000
  21015252.996    -5197491.16249  -4032173.03447  21015252.453    21015256.963
       246.000         210.000
  22111042.991   -20068539.52749 -15629950.54847  22111042.544    22111046.704
       237.000         193.000
  23866942.340   -11239786.08449  -8744558.29645  23866941.450    23866947.856
       218.000         159.000
  22108934.054   -15941623.51649 -12401730.26146  22108933.384    22108938.918
       233.000         187.000
 02  7 12 13 20 30.0000000  0  7G10G30G24G 5G 6G17G23
  20773420.809   -22273211.60149 -17334952.44647  20773419.681    20773424.760
       246.000         212.000
  20512389.935   -21143980.48049 -16458287.53548  20512390.058    20512393.803
       250.000         220.000
  22620331.960    10182390.56649   7940403.67946  22620331.171    22620337.178
       234.000         184.000
  21027010.221    -5135706.76949  -3984029.38747  21027009.594    21027014.318
       246.000         211.000
  22098723.687   -20133278.03549 -15680396.15247  22098723.622    22098727.921
       237.000         193.000
  23852022.801   -11318188.79049  -8805651.29945  23852022.458    23852027.981
       219.000         160.000
  22093063.921   -16025021.53849 -12466715.71946  22093063.301    22093068.508
       234.000         187.000
 02  7 12 13 21  0.0000000  0  7G10G30G24G 5G 6G17G23
  20771388.555   -22283891.17049 -17343274.19347  20771387.448    20771392.455
       246.000         212.000
  20512775.634   -21141953.79549 -16456708.32248  20512775.831    20512779.604
       250.000         220.000
  22634862.369    10258748.09049   7999903.01246  22634862.291    22634867.411
       234.000         184.000
  21038854.319    -5073465.97249  -3935530.09147  21038853.585    21038858.333
       246.000         211.000
  22086420.784   -20197930.58249 -15730774.77347  22086420.589    22086424.850
       237.000         194.000
  23837137.364   -11396412.12649  -8866604.52145  23837136.564    23837142.041
       216.000         160.000
  22077255.755   -16108094.64449 -12531447.99946  22077254.825    22077260.671
       233.000         187.000
 02  7 12 13 21 30.0000000  0  7G10G30G24G 5G 6G17G23
  20769476.738   -22293937.93449 -17351102.85047  20769475.491    20769480.506
       246.000         211.000
  20513274.343   -21139333.21149 -16454666.33248  20513274.356    20513277.955
       250.000         220.000
  22649406.396    10335177.62149   8059458.44646  22649405.463    22649411.993
       232.000         183.000
  21050785.076    -5010769.29949  -3886675.57547  21050784.155    21050788.946
       246.000         210.000
  22074134.606   -20262494.97349 -15781084.69847  22074134.285    22074138.611
       237.000         194.000
  23822286.328   -11474454.34449  -8927416.62245  23822285.115    23822291.635
       216.000         159.000
  22061509.851   -16190839.07249 -12595924.16347  22061509.395    22061514.287
       235.000         188.000
 02  7 12 13 22  0.0000000  0  7G10G30G24G 5G 6G17G23
  20767685.269   -22303352.05949 -17358438.54147  20767684.381    20767688.947
       246.000         211.000
  20513885.900   -21136119.54649 -16452162.20048  20513885.872    20513889.795
       249.000         220.000
  22663963.591    10411676.82449   8119068.15746  22663963.145    22663968.595
       232.000         182.000
  21062802.048    -4947619.63749  -3837468.08247  21062801.276    21062805.865
       245.000         209.000
  22061865.189   -20326970.96649 -15831325.73847  22061864.589    22061869.331
       236.000         194.000
  23807469.781   -11552315.76649  -8988087.82745  23807468.772    23807475.073
       217.000         160.000
  22045827.139   -16273253.13649 -12660142.90547  22045826.172    22045831.885
       235.000         188.000
 02  7 12 13 22 30.0000000  0  7G10G30G24G 5G 6G17G23
  20766014.068   -22312134.35849 -17365281.90047  20766012.828    20766017.771
       246.000         211.000
  20514610.169   -21132313.42549 -16449196.41448  20514610.051    20514613.703
       250.000         220.000
  22678533.776    10488243.06649   8178730.13746  22678533.748    22678539.258
       234.000         183.000
  21074904.727    -4884019.71949  -3787909.73147  21074903.838    21074908.602
       246.000         209.000
  22049612.572   -20391358.40249 -15881497.77547  22049611.861    22049616.678
       237.000         194.000
  23792687.645   -11629996.97949  -9048618.61445  23792687.205    23792693.189
       215.000         160.000
  22030207.464   -16355334.99549 -12724102.78247  22030206.475    22030211.892
       234.000         188.000
 02  7 12 13 23  0.0000000  0  7G10G30G24G 5G 6G17G23
  20764463.521   -22320282.38449 -17371631.01847  20764462.542    20764467.335
       246.000         212.000
  20515447.601   -21127912.88049 -16445767.43548  20515447.911    20515451.268
       251.000         220.000
  22693116.771    10564876.94949   8238444.83046  22693116.882    22693121.881
       233.000         183.000
  21087093.079    -4819969.48749  -3738000.49747  21087092.350    21087097.310
       245.000         209.000
  22037377.443   -20455654.40049 -15931598.56647  22037376.941    22037381.373
       237.000         194.000
  23777940.038   -11707495.68249  -9109007.19445  23777938.736    23777945.752
       217.000         161.000
  22014651.780   -16437080.28849 -12787800.40247  22014650.844    22014656.550
       234.000         189.000
 02  7 12 13 23 30.0000000  0  7G10G30G24G 5G 6G17G23
  20763033.564   -22327797.12149 -17377486.66347  20763032.502    20763037.261
       246.000         212.000
  20516397.968   -21122919.00149 -16441876.12548  20516397.893    20516401.554
       249.000         220.000
  22707712.255    10641576.36849   8298210.57446  22707711.798    22707716.867
       231.000         182.000
  21099366.565    -4755471.86349  -3687742.64547  21099365.973    21099370.594
       245.000         209.000
  22025159.754   -20519858.81949 -15981627.99347  22025159.020    22025163.796
       237.000         195.000
  23763227.238   -11784812.31349  -9169253.89845  23763226.511    23763232.117
       218.000         162.000
  21999160.522   -16518487.47749 -12851234.55447  21999159.819    21999165.353
       234.000         189.000
 02  7 12 13 24  0.0000000  0  7G10G30G24G 5G 6G17G23
  20761724.031   -22334678.65249 -17382848.89947  20761722.798    20761728.011
       246.000         211.000
  20517461.084   -21117332.03449 -16437522.66548  20517461.077    20517464.737
       250.000         220.000
  22722319.505    10718339.06449   8358025.60946  22722319.006    22722325.187
       231.000         182.000
  21111724.829    -4690529.06149  -3637137.89447  21111724.437    21111728.873
       246.000         209.000
  22012959.590   -20583971.01049 -16031585.55347  22012959.415    22012964.056
       237.000         195.000
  23748549.072   -11861946.82249  -9229358.68046  23748547.892    23748554.419
       217.000         163.000
  21983733.949   -16599554.62349 -12914403.74647  21983733.278    21983738.305
       234.000         190.000
 02  7 12 13 24 30.0000000  0  7G10G30G24G 5G 6G17G23
  20760535.403   -22340924.74049 -17387715.99647  20760534.391    20760539.147
       246.000         211.000
  20518637.500   -21111149.97649 -16432705.50148  20518637.493    20518641.336
       250.000         220.000
  22736939.046    10795165.34849   8417890.19446  22736939.854    22736944.557
       235.000         183.000
  21124167.788    -4625141.17149  -3586186.32847  21124167.263    21124172.156
       245.000         209.000
  22000777.622   -20647988.02349 -16081468.95647  22000777.379    22000782.112
       237.000         195.000
  23733905.876   -11938896.88449  -9289319.74645  23733904.890    23733910.708
       219.000         162.000
  21968372.882   -16680277.23749 -12977304.48047  21968372.542    21968377.355
       236.000         191.000
 02  7 12 13 25  0.0000000  0  7G10G30G24G 5G 6G17G23
  20759467.139   -22346538.63449 -17392090.47147  20759466.021    20759470.961
       245.000         211.000
  20519926.491   -21104376.34049 -16427427.36948  20519926.391    20519930.291
       249.000         220.000
  22751570.245    10872050.78049   8477800.90146  22751569.606    22751574.515
       233.000         184.000
  21136694.448    -4559313.50849  -3534892.07547  21136693.731    21136698.213
       245.000         209.000
  21988613.358   -20711912.06849 -16131279.90547  21988613.390    21988617.649
       237.000         196.000
  23719297.184   -12015665.52149  -9349139.45946  23719296.723    23719302.799
       219.000         163.000
  21953077.345   -16760656.13649 -13039937.37447  21953076.471    21953082.203
       235.000         191.000
 02  7 12 13 25 30.0000000  0  7G10G30G24G 5G 6G17G23
  20758519.478   -22351518.67449 -17395971.02247  20758518.287    20758523.531
       246.000         212.000
  20521328.394   -21097009.38449 -16421686.90048  20521328.340    20521332.131
       251.000         220.000
  22766212.384    10948995.51049   8537757.79746  22766211.680    22766217.519
       232.000         182.000
  21149304.672    -4493046.42849  -3483255.42147  21149303.872    21149308.500
       246.000         209.000
  21976467.239   -20775740.40049 -16181016.27147  21976466.789    21976471.403
       239.000         196.000
  23704723.582   -12092250.57449  -9408816.11046  23704723.062    23704728.898
       221.000         164.000
  21937847.994   -16840687.13849 -13102299.17847  21937847.254    21937852.546
       237.000         192.000
 02  7 12 13 26  0.0000000  0  7G10G30G24G 5G 6G17G23
  20757692.665   -22355863.56849 -17399356.65547  20757691.609    20757696.525
       245.000         212.000
  20522843.420   -21089048.07949 -16415483.30848  20522843.461    20522847.054
       250.000         220.000
  22780865.513    11025999.22349   8597760.64746  22780865.085    22780870.956
       232.000         182.000
  21161998.309    -4426340.87349  -3431277.10047  21161997.534    21162002.360
       245.000         209.000
  21964339.742   -20839470.67849 -16230676.23647  21964339.194    21964343.860
       237.000         195.000
  23690185.168   -12168650.54749  -9468348.54846  23690184.926    23690190.541
       220.000         164.000
  21922685.547   -16920366.61149 -13164387.07147  21922684.831    21922689.714
       236.000         192.000
 02  7 12 13 26 30.0000000  0  7G10G30G24G 5G 6G17G23
  20756986.421   -22359574.92849 -17402248.64047  20756985.448    20756990.338
       246.000         212.000
  20524471.209   -21080494.11949 -16408817.91348  20524471.334    20524475.027
       250.000         220.000
  22795529.452    11103058.85949   8657807.06746  22795528.774    22795535.261
       232.000         183.000
  21174774.769    -4359200.34849  -3378959.84947  21174774.059    21174778.838
       244.000         208.000
  21952230.754   -20903103.44949 -16280260.22647  21952230.067    21952235.003
       238.000         196.000
  23675681.811   -12244866.71049  -9527737.75246  23675681.147    23675686.833
       219.000         164.000
  21907590.065   -16999693.81449 -13226200.47847  21907589.381    21907594.558
       237.000         193.000
 02  7 12 13 27  0.0000000  0  7G10G30G24G 5G 6G17G23
  20756401.132   -22362650.83649 -17404645.46947  20756399.983    20756404.932
       246.000         211.000
  20526212.100   -21071345.80549 -16401689.38348  20526212.109    20526215.755
       251.000         220.000
  22810204.104    11180174.51149   8717897.13946  22810204.244    22810209.670
       233.000         183.000
  21187633.909    -4291625.15349  -3326303.89047  21187633.237    21187637.781
       245.000         207.000
  21940140.872   -20966635.90849 -16329766.05047  21940140.427    21940145.013
       237.000         196.000
  23661213.620   -12320897.00149  -9586982.12046  23661211.724    23661218.497
       220.000         163.000
  21892562.423   -17078664.55849 -13287736.10847  21892561.595    21892566.627
       236.000         193.000
 02  7 12 13 27 30.0000000  0  7G10G30G24G 5G 6G17G23
  20755936.488   -22365092.61049 -17406548.15547  20755935.545    20755940.306
       246.000         212.000
  20528065.809   -21061604.86849 -16394099.05848  20528065.696    20528069.471
       250.000         220.000
  22824888.989    11257343.13949   8778028.51646  22824888.319    22824894.112
       230.000         181.000
  21200575.164    -4223618.78949  -3273311.95147  21200574.498    21200579.225
       244.000         207.000
  21928069.969   -21030068.52049 -16379194.06747  21928069.613    21928074.021
       237.000         196.000
  23646780.743   -12396742.32249  -9646082.37046  23646780.255    23646785.813
       219.000         163.000
  21877602.820   -17157277.87649 -13348993.22747  21877602.131    21877607.492
       236.000         193.000
 02  7 12 13 28  0.0000000  0  7G10G30G24G 5G 6G17G23
  20755592.684   -22366899.32349 -17407955.98847  20755591.593    20755596.478
       245.000         211.000
  20530032.373   -21051270.37049 -16386046.23048  20530032.364    20530036.201
       250.000         220.000
  22839583.769    11334565.07849   8838201.40846  22839582.976    22839589.736
       228.000         179.000
  21213598.232    -4155182.18349  -3219984.76147  21213597.512    21213602.272
       245.000         208.000
  21916018.569   -21093399.09949 -16428542.57047  21916018.286    21916022.749
       237.000         197.000
  23632383.283   -12472401.37249  -9705037.46645  23632382.002    23632387.993
       219.000         161.000
  21862711.901   -17235530.29849 -13409969.12447  21862710.900    21862716.055
       236.000         193.000
 02  7 12 13 28 30.0000000  0  7G10G30G24G 5G 6G17G23
  20755369.642   -22368071.45549 -17408869.34347  20755368.547    20755373.666
       246.000         211.000
  20532111.835   -21040342.66549 -16377531.16448  20532112.055    20532115.535
       251.000         220.000
  22854288.328    11411838.31149   8898414.27046  22854288.036    22854293.694
       229.000         178.000
  21226702.784    -4086317.52549  -3166324.02447  21226702.040    21226707.012
       245.000         208.000
  21903986.907   -21156626.57449 -16477810.73947  21903986.686    21903991.093
       238.000         197.000
  23618021.352   -12547873.98049  -9763847.28345  23618021.614    23618025.820
       220.000         162.000
  21847889.989   -17313419.63749 -13470662.10347  21847889.311    21847894.256
       237.000         193.000
 02  7 12 13 29  0.0000000  0  7G10G30G24G 5G 6G17G23
  20755267.110   -22368610.26249 -17409289.20147  20755265.928    20755271.140
       246.000         212.000
  20534303.911   -21028823.59049 -16368555.27948  20534303.687    20534307.827
       250.000         220.000
  22869002.287    11489160.05449   8958664.95146  22869002.269    22869008.023
       231.000         179.000
  21239888.020    -4017028.54149  -3112332.64147  21239887.302    21239892.259
       245.000         207.000
  21891974.746   -21219751.47449 -16526998.97447  21891974.332    21891978.941
       238.000         197.000
  23603694.675   -12623161.41249  -9822512.80846  23603693.663    23603700.068
       218.000         163.000
  21833137.359   -17390945.07249 -13531071.51747  21833136.464    21833141.758
       236.000         194.000
 02  7 12 13 29 30.0000000  0  7G10G30G24G 5G 6G17G23
  20755285.384   -22368514.40049 -17409214.51047  20755284.456    20755289.318
       246.000         212.000
  20536608.667   -21016711.79349 -16359117.54948  20536609.001    20536612.691
       251.000         220.000
  22883725.435    11566530.46649   9018953.53246  22883724.387    22883731.185
       229.000         178.000
  21253153.971    -3947315.66549  -3058010.95347  21253153.028    21253157.917
       245.000         207.000
  21879982.590   -21282770.92649 -16576105.04647  21879982.064    21879986.780
       239.000         197.000
  23589403.492   -12698261.66049  -9881032.46346  23589402.197    23589409.216
       219.000         163.000
  21818454.741   -17468102.54649 -13591194.20547  21818453.889    21818458.850
       237.000         194.000
 02  7 12 13 30  0.0000000  0  7G10G30G24G 5G 6G17G23
  20755424.412   -22367783.95849 -17408645.35147  20755423.289    20755428.290
       245.000         211.000
  20539026.278   -21004007.62849 -16349218.22448  20539026.318    20539030.082
       250.000         220.000
  22898457.429    11643948.00349   9079278.84146  22898456.908    22898461.718
       228.000         177.000
  21266500.154    -3877181.20349  -3003360.75847  21266499.489    21266504.194
       245.000         207.000
  21868010.605   -21345684.05249 -16625128.27247  21868009.972    21868014.817
       239.000         197.000
  23575148.041   -12773174.54049  -9939406.13446  23575147.035    23575153.163
       220.000         163.000
  21803842.590   -17544889.80749 -13651028.42047  21803841.854    21803847.137
       238.000         195.000
 02  7 12 13 30 30.0000000  0  7G10G30G24G 5G 6G17G23
  20755684.077   -22366419.37249 -17407582.04447  20755682.970    20755688.122
       246.000         211.000
  20541556.509   -20990711.37649 -16338857.52848  20541556.476    20541560.224
       250.000         220.000
  22913198.176    11721411.55249   9139640.01246  22913198.063    22913202.708
       229.000         176.000
  21279926.223    -3806627.22949  -2948383.66747  21279925.514    21279930.466
       244.000         207.000
  21856059.114   -21408489.63049 -16674067.68747  21856058.715    21856063.222
       238.000         198.000
  23560928.262   -12847899.70949  -9997633.52046  23560927.579    23560933.402
       218.000         163.000
  21789301.388   -17621304.54249 -13710572.34947  21789300.631    21789305.695
       237.000         195.000
 02  7 12 13 31  0.0000000  0  8G10G30G24G 5G 6G17G23G15
  20756061.943   -22364433.76649 -17406034.81947  20756060.648    20756065.843
       246.000         212.000
  20544196.798   -20976836.66549 -16328046.09048  20544196.928    20544200.504
       250.000         220.000
  22927945.204    11798906.50549   9200025.65746  22927944.284    22927951.250
       230.000         178.000
  21293429.153    -3735669.03749  -2893091.61747  21293428.436    21293433.144
       244.000         206.000
  21844125.793   -21471199.65449 -16722932.64847  21844125.716    21844129.977
       239.000         198.000
  23546741.707   -12922450.08849 -10055724.70846  23546740.741    23546746.938
       220.000         163.000
  21774828.983   -17697357.61249 -13769834.47347  21774828.150    21774833.301
       238.000         195.000
  24778954.204    -5685175.01249  -4408069.79044  24778951.599    24778960.074
       196.000         131.000
 02  7 12 13 31 30.0000000  0  8G10G30G24G 5G 6G17G23G15
  20756561.281   -22361809.52649 -17403989.96947  20756560.312    20756565.111
       246.000         211.000
  20546950.520   -20962365.94049 -16316770.22448  20546950.582    20546954.193
       250.000         220.000
  22942701.055    11876448.83449   9260448.21146  22942700.729    22942707.256
       229.000         180.000
  21307012.006    -3664290.74749  -2837472.20947  21307011.253    21307015.965
       243.000         206.000
  21832214.388   -21533795.01649 -16771708.26247  21832213.703    21832218.528
       239.000         198.000
  23532591.973   -12996807.35349 -10113665.42946  23532591.196    23532597.936
       220.000         165.000
  21760429.210   -17773028.76949 -13828799.00447  21760428.639    21760433.725
       239.000         195.000
  24761918.736    -5774695.80949  -4477826.19745  24761917.391    24761924.681
       201.000         134.000
 02  7 12 13 32  0.0000000  0  8G10G30G24G 5G 6G17G23G15
  20757182.021   -22358547.70049 -17401448.29747  20757181.123    20757185.909
       246.000         211.000
  20549817.481   -20947300.06549 -16305030.60448  20549817.288    20549821.433
       249.000         220.000
  22957465.729    11954037.21949   9320906.63946  22957465.357    22957471.180
       229.000         179.000
  21320674.226    -3592495.36849  -2781527.79447  21320673.365    21320678.442
       242.000         205.000
  21820324.759   -21596275.37049 -16820394.26447  21820324.294    21820328.799
       238.000         198.000
  23518478.958   -13070972.04249 -10171456.07546  23518478.346    23518484.474
       220.000         165.000
  21746102.477   -17848316.38249 -13887464.65547  21746101.527    21746107.119
       238.000         196.000
  24744910.672    -5864072.60849  -4547470.42045  24744909.476    24744918.140
       202.000         135.000
 02  7 12 13 32 30.0000000  0  8G10G30G24G 5G 6G17G23G15
  20757923.529   -22354651.35449 -17398412.18447  20757922.509    20757927.361
       245.000         212.000
  20552796.938   -20931642.67949 -16292830.06448  20552797.105    20552800.763
       250.000         220.000
  22972238.456    12031667.48349   9381397.71346  22972238.081    22972243.732
       230.000         178.000
  21334414.880    -3520287.96349  -2725262.32447  21334414.202    21334418.971
       242.000         205.000
  21808456.584   -21658642.39749 -16868991.95247  21808456.140    21808461.031
       238.000         198.000
  23504401.977   -13144946.66649 -10229098.63446  23504401.322    23504407.094
       220.000         165.000
  21731848.512   -17923221.19749 -13945832.02847  21731847.685    21731852.822
       237.000         195.000
  24727929.903    -5953307.60649  -4617004.15845  24727928.721    24727936.667
       202.000         139.000
 02  7 12 13 33  0.0000000  0  8G10G30G24G 5G 6G17G23G15
  20758785.461   -22350121.57449 -17394882.49447  20758784.473    20758789.371
       246.000         211.000
  20555888.872   -20915394.64949 -16280169.28148  20555888.834    20555892.807
       250.000         220.000
  22987018.697    12109337.48949   9441919.77646  22987018.029    22987024.182
       228.000         177.000
  21348233.383    -3447671.32049  -2668677.96347  21348232.626    21348237.463
       242.000         205.000
  21796610.278   -21720895.39849 -16917500.78547  21796610.141    21796614.543
       239.000         198.000
  23490361.158   -13218731.77349 -10286593.50746  23490360.512    23490366.543
       222.000         165.000
  21717667.741   -17997741.31649 -14003899.62947  21717667.052    21717672.309
       238.000         196.000
  24710976.004    -6042400.92349  -4686427.45845  24710975.158    24710981.300
       208.000         142.000
 02  7 12 13 33 30.0000000  0  8G10G30G24G 5G 6G17G23G15
  20759768.136   -22344957.83949 -17390858.81447  20759767.012    20759772.026
       246.000         212.000
  20559093.260   -20898555.45349 -16267047.85148  20559093.376    20559097.097
       250.000         220.000
  23001806.036    12187046.80349   9502472.42646  23001805.801    23001811.609
       227.000         176.000
  21362129.541    -3374646.68949  -2611775.69247  21362128.876    21362133.595
       242.000         205.000
  21784786.176   -21783032.23949 -16965919.10647  21784785.937    21784789.977
       240.000         199.000
  23476356.696   -13292326.02549 -10343939.66046  23476355.797    23476362.051
       222.000         166.000
  21703560.769   -18071873.64149 -14061665.06647  21703560.018    21703565.062
       239.000         196.000
  24694049.467    -6131351.09349  -4755739.22545  24694049.056    24694055.665
       210.000         145.000
 02  7 12 13 34  0.0000000  0  8G10G30G24G 5G 6G17G23G15
  20760871.026   -22339161.85349 -17386342.46347  20760869.799    20760874.889
       245.000         211.000
  20562409.821   -20881127.07149 -16253467.31748  20562409.740    20562413.624
       250.000         220.000
  23016600.618    12264792.49449   9563053.44746  23016598.910    23016606.250
       224.000         173.000
  21376102.675    -3301217.64749  -2554558.29747  21376101.963    21376107.014
       242.000         205.000
  21772983.987   -21845053.25049 -17014247.16847  21772983.347    21772987.749
       239.000         199.000
  23462388.376   -13365730.44949 -10401137.90046  23462386.938    23462393.538
       221.000         166.000
  21689527.772   -18145617.45149 -14119127.75947  21689526.853    21689532.148
       239.000         197.000
  24677150.026    -6220158.79249  -4824940.01545  24677149.155    24677156.261
       215.000         151.000
 02  7 12 13 34 30.0000000  0  8G10G30G24G 5G 6G17G23G15
  20762094.292   -22332733.41349 -17381333.29547  20762093.402    20762098.524
       245.000         212.000
  20565838.413   -20863109.42549 -16239427.61248  20565838.496    20565842.034
       250.000         219.000
  23031401.784    12342573.80449   9623662.21146  23031400.503    23031407.412
       224.000         172.000
  21390152.434    -3227385.87849  -2497027.08047  21390151.526    21390156.496
       242.000         205.000
  21761204.105   -21906956.63849 -17062483.57647  21761202.943    21761208.130
       238.000         199.000
  23448456.152   -13438944.46349 -10458187.76446  23448455.222    23448461.815
       220.000         166.000
  21675569.254   -18218969.93449 -14176285.52347  21675568.366    21675573.221
       238.000         197.000
  24660277.811    -6308823.10249  -4894029.07845  24660277.195    24660284.217
       214.000         152.000
 02  7 12 13 35  0.0000000  0  8G10G30G24G 5G 6G17G23G15
  20763437.751   -22325673.54049 -17375832.10047  20763436.622    20763441.803
       245.000         211.000
  20569379.034   -20844503.66849 -16224929.64048  20569379.015    20569382.720
       250.000         219.000
  23046209.664    12420389.24949   9684297.58546  23046209.651    23046215.333
       230.000         175.000
  21404278.244    -3153154.33049  -2439184.35547  21404277.567    21404282.410
       242.000         204.000
  21749446.671   -21968741.56549 -17110627.67847  21749446.072    21749451.090
       239.000         199.000
  23434560.201   -13511968.16849 -10515089.33946  23434559.932    23434565.056
       223.000         167.000
  21661685.540   -18291929.32449 -14233136.97847  21661684.888    21661689.786
       240.000         198.000
  24643432.848    -6397343.86649  -4963006.25345  24643432.517    24643438.846
       214.000         152.000
 02  7 12 13 35 30.0000000  0  8G10G30G24G 5G 6G17G23G15
  20764901.236   -22317982.76249 -17369839.29747  20764900.299    20764905.055
       246.000         211.000
  20573031.354   -20825310.57649 -16209974.00848  20573031.387    20573035.151
       250.000         219.000
  23061023.786    12498237.33649   9744958.39846  23061022.666    23061029.652
       228.000         177.000
  21418479.631    -3078525.46149  -2381032.02747  21418479.006    21418483.961
       242.000         204.000
  21737712.148   -22030407.08049 -17158678.73347  21737711.835    21737716.514
       239.000         199.000
  23420700.521   -13584801.55549 -10571842.62946  23420700.317    23420705.681
       222.000         167.000
  21647877.000   -18364493.76849 -14289680.69347  21647876.237    21647881.353
       240.000         198.000
  24626615.246    -6485720.69749  -5031871.30145  24626615.029    24626621.386
       215.000         152.000
 02  7 12 13 36  0.0000000  0  8G10G30G24G 5G 6G17G23G15
  20766484.807   -22309661.42449 -17363355.15347  20766483.682    20766488.652
       246.000         211.000
  20576795.416   -20805530.39849 -16194560.90348  20576795.521    20576799.187
       250.000         219.000
  23075843.749    12576116.81049   9805643.65346  23075843.146    23075849.954
       226.000         176.000
  21432756.298    -3003501.09249  -2322571.52347  21432755.332    21432760.666
       242.000         204.000
  21726000.781   -22091951.62749 -17206635.52447  21726000.143    21726004.704
       240.000         200.000
  23406877.048   -13657444.02049 -10628447.13146  23406876.287    23406882.717
       219.000         167.000
  21634144.121   -18436660.52649 -14345914.52347  21634143.344    21634148.095
       238.000         198.000
  24609825.349    -6573952.54349  -5100623.36445  24609824.223    24609831.289
       217.000         150.000
 02  7 12 13 36 30.0000000  0  8G10G30G24G 5G 6G17G23G15
  20768188.144   -22300709.98949 -17356380.00747  20768187.013    20768192.155
       245.000         211.000
  20580671.129   -20785163.65849 -16178690.73048  20580671.238    20580675.119
       250.000         219.000
  23090669.565    12654026.85149   9866352.73846  23090669.112    23090674.978
       228.000         175.000
  21447107.790    -2928083.44649  -2263804.55947  21447107.117    21447112.253
       242.000         204.000
  21714312.526   -22153373.91949 -17254497.04747  21714311.745    21714316.840
       240.000         200.000
  23393089.857   -13729895.42449 -10684902.73946  23393088.622    23393095.218
       220.000         167.000
  21620487.366   -18508427.32249 -14401836.68247  21620486.449    21620491.894
       239.000         198.000
  24593063.057    -6662038.76649  -5169261.96145  24593061.868    24593069.286
       216.000         150.000
 02  7 12 13 37  0.0000000  0  8G10G30G24G 5G 6G17G23G15
  20770011.550   -22291127.97649 -17348913.51447  20770010.561    20770015.313
       245.000         211.000
  20584658.430   -20764210.28549 -16162363.45848  20584658.567    20584662.566
       250.000         220.000
  23105500.962    12731966.59649   9927084.95846  23105501.014    23105506.782
       229.000         175.000
  21461533.843    -2852274.18949  -2204732.45947  21461533.250    21461537.972
       242.000         203.000
  21702647.730   -22214672.05249 -17302261.83147  21702647.330    21702651.678
       239.000         200.000
  23379339.323   -13802154.84249 -10741208.77646  23379338.491    23379344.666
       222.000         167.000
  21606907.177   -18579791.46849 -14457445.08947  21606906.390    21606911.611
       238.000         198.000
  24576328.612    -6749978.44749  -5237786.35545  24576327.782    24576334.589
       216.000         147.000
 02  7 12 13 37 30.0000000  0  8G10G30G24G 5G 6G17G23G15
  20771954.723   -22280916.76049 -17340956.73647  20771953.756    20771958.614
       246.000         211.000
  20588757.158   -20742671.47549 -16145579.98748  20588757.330    20588761.009
       250.000         220.000
  23120337.932    12809934.33349   9987839.01446  23120338.373    23120343.826
       230.000         177.000
  21476033.913    -2776076.16549  -2145357.40947  21476032.982    21476038.272
       241.000         203.000
  21691006.864   -22275845.33449 -17349929.32447  21691006.808    21691010.960
       240.000         200.000
  23365625.333   -13874222.42249 -10797365.32146  23365625.354    23365630.519
       222.000         168.000
  21593403.997   -18650751.16149 -14512738.33547  21593402.928    21593408.657
       238.000         199.000
  24559622.206    -6837771.46049  -5306196.48645  24559620.259    24559627.180
       215.000         142.000
 02  7 12 13 38  0.0000000  0  8G10G30G24G 5G 6G17G23G15
  20774017.438   -22270077.11649 -17332510.26947  20774016.268    20774021.432
       245.000         211.000
  20592967.109   -20720548.04049 -16128340.97648  20592966.956    20592970.860
       249.000         219.000
  23135179.849    12887928.79149  10048613.86446  23135179.119    23135184.916
       228.000         178.000
  21490607.497    -2699491.68349  -2085681.23447  21490606.703    21490611.616
       242.000         203.000
  21679390.064   -22336892.54849 -17397498.58547  21679389.701    21679393.893
       241.000         200.000
  23351947.860   -13946098.22349 -10853372.42546  23351946.904    23351953.310
       220.000         168.000
  21579978.069   -18721304.49549 -14567714.94347  21579977.293    21579982.557
       240.000         199.000
  24542943.734    -6925417.26649  -5374491.92345  24542942.834    24542949.646
       212.000         139.000
 02  7 12 13 38 30.0000000  0  8G10G30G24G 5G 6G17G23G15
  20776199.684   -22258609.46749 -17323574.43847  20776198.697    20776203.561
       246.000         211.000
  20597288.101   -20697840.86249 -16110647.08648  20597288.074    20597291.855
       250.000         219.000
  23150026.497    12965949.00349  10109408.79646  23150026.460    23150031.406
       227.000         175.000
  21505254.090    -2622523.16449  -2025705.80347  21505253.453    21505258.427
       242.000         203.000
  21667797.492   -22397812.43549 -17444968.62347  21667796.756    21667801.682
       240.000         201.000
  23338306.866   -14017782.00949 -10909229.90346  23338306.227    23338311.560
       222.000         169.000
  21566629.976   -18791449.28449 -14622373.19847  21566628.943    21566634.202
       238.000         199.000
  24526293.422    -7012915.27649  -5442672.17145  24526294.370    24526296.743
       210.000         137.000
 02  7 12 13 39  0.0000000  0  8G10G30G24G 5G 6G17G23G15
  20778501.194   -22246514.94549 -17314150.15047  20778500.324    20778505.167
       246.000         212.000
  20601720.090   -20674550.72349 -16092498.95248  20601720.176    20601724.077
       250.000         219.000
  23164877.758    13043993.05649  10170222.30146  23164877.279    23164881.799
       227.000         173.000
  21519973.384    -2545173.11049  -1965433.07247  21519972.723    21519977.536
       242.000         202.000
  21656229.144   -22458603.95849 -17492338.65347  21656228.755    21656233.243
       240.000         201.000
  23324702.383   -14089273.83049 -10964937.80546  23324701.255    23324708.282
       222.000         170.000
  21553359.960   -18861183.62249 -14676711.62847  21553359.140    21553364.556
       239.000         199.000
  24509671.085    -7100265.25049  -5510737.08045  24509670.668    24509677.242
       210.000         134.000
 02  7 12 13 39 30.0000000  0  8G10G30G24G 5G 6G17G23G15
  20780921.937   -22233794.01449 -17304237.74147  20780920.758    20780925.898
       245.000         212.000
  20606262.882   -20650678.36449 -16073897.14648  20606263.081    20606266.793
       250.000         219.000
  23179733.498    13122060.02049  10231053.66346  23179732.925    23179738.854
       227.000         173.000
  21534764.811    -2467443.84749  -1904864.85647  21534763.973    21534769.112
       242.000         202.000
  21644685.536   -22519265.88449 -17539607.68947  21644685.396    21644689.402
       240.000         201.000
  23311134.528   -14160573.50749 -11020495.96846  23311133.368    23311140.188
       222.000         170.000
  21540168.474   -18930505.34749 -14730728.55047  21540167.882    21540173.065
       240.000         200.000
  24493077.194    -7187466.61549  -5578686.16645  24493076.826    24493084.476
       208.000         134.000
 02  7 12 13 40  0.0000000  0  8G10G30G24G 5G 6G17G23G15
  20783461.982   -22220446.17049 -17293836.82847  20783460.989    20783465.856
       246.000         212.000
  20610916.581   -20626223.44149 -16054841.37948  20610916.669    20610920.340
       250.000         219.000
  23194593.529    13200149.91049  10291902.87046  23194593.127    23194598.927
       227.000         174.000
  21549628.164    -2389336.59249  -1844002.10047  21549627.743    21549632.491
       241.000         201.000
  21633167.146   -22579795.46049 -17586773.59147  21633166.590    21633171.037
       241.000         201.000
  23297603.433   -14231679.49049 -11075903.21846  23297602.505    23297609.124
       222.000         170.000
  21527056.210   -18999411.02949 -14784421.27547  21527055.470    21527060.752
       240.000         200.000
  24476511.793    -7274517.45349  -5646517.98745  24476510.324    24476517.667
       205.000         134.000
 02  7 12 13 40 30.0000000  0  8G10G30G24G 5G 6G17G23G15
  20786121.101   -22206472.38149 -17282948.17047  20786120.118    20786124.663
       245.000         211.000
  20615680.928   -20601186.81449 -16035332.33848  20615681.031    20615684.895
       250.000         219.000
  23209457.664    13278261.13549  10352768.73946  23209458.186    23209463.711
       229.000         174.000
  21564563.000    -2310853.77949  -1782846.69447  21564562.354    21564567.192
       240.000         201.000
  21621674.142   -22640191.70549 -17633835.59547  21621673.477    21621678.272
       240.000         201.000
  23284109.193   -14302591.82049 -11131159.57146  23284108.367    23284114.432
       223.000         170.000
  21514023.400   -19067898.91149 -14837788.44347  21514022.712    21514027.814
       240.000         200.000
  24459975.067    -7361417.59049  -5714232.34645  24459974.192    24459981.605
       205.000         134.000
 02  7 12 13 41  0.0000000  0  8G10G30G24G 5G 6G17G23G15
  20788898.863   -22191875.04149 -17271573.63047  20788897.845    20788902.872
       246.000         211.000
  20620555.430   -20575571.12049 -16015372.09448  20620555.207    20620559.254
       250.000         219.000
  23224325.374    13356391.01649  10413649.13446  23224324.535    23224329.888
       225.000         172.000
  21579568.535    -2231999.21849  -1721401.62447  21579567.506    21579572.823
       240.000         200.000
  21610206.303   -22700455.01149 -17680794.02347  21610205.756    21610210.494
       241.000         202.000
  23270651.759   -14373312.02849 -11186266.20846  23270650.564    23270657.121
       222.000         171.000
  21501070.173   -19135968.52149 -14890829.68747  21501069.369    21501074.743
       240.000         200.000
  24443467.097    -7448168.13549  -5781830.14945  24443465.431    24443472.547
       204.000         136.000
 02  7 12 13 41 30.0000000  0  8G10G30G24G 5G 6G17G23G15
  20791795.321   -22176654.29249 -17259713.31247  20791794.290    20791799.421
       246.000         212.000
  20625540.071   -20549376.57749 -15994960.78348  20625540.066    20625544.027
       250.000         219.000
  23239196.302    13434539.21949  10474543.77346  23239195.200    23239202.560
       223.000         171.000
  21594644.412    -2152774.93049  -1659668.45247  21594643.619    21594648.630
       239.000         200.000
  21598764.280   -22760583.36949 -17727647.29047  21598764.087    21598768.574
       241.000         202.000
  23257230.891   -14443839.31149 -11241222.51646  23257230.474    23257235.157
       223.000         171.000
  21488197.004   -19203617.23449 -14943542.95747  21488196.311    21488201.339
       239.000         200.000
  24426987.514    -7534767.65749  -5849310.25245  24426986.259    24426994.577
       206.000         140.000
 02  7 12 13 42  0.0000000  0  8G10G30G24G 5G 6G17G23G15
  20794810.519   -22160809.17849 -17247366.48347  20794809.513    20794814.526
       245.000         211.000
  20630635.093   -20522602.32149 -15974097.75748  20630635.248    20630638.914
       250.000         219.000
  23254070.920    13512706.34149  10535453.16746  23254070.932    23254077.129
       224.000         171.000
  21609790.525    -2073181.61249  -1597647.72847  21609789.704    21609795.178
       239.000         200.000
  21587348.586   -22820573.64649 -17774392.96447  21587348.260    21587352.817
       241.000         202.000
  23243846.965   -14514172.01649 -11296027.20846  23243845.850    23243852.541
       223.000         171.000
  21475404.671   -19270841.34649 -14995925.35947  21475403.897    21475409.085
       239.000         200.000
  24410537.233    -7621214.41249  -5916671.34545  24410536.737    24410543.423
       210.000         144.000
